[[{"header":{"parameterUnit":"m.s-1","parameterCategory":1,"la1":31.0,"la2":29.5877,"lo1":-88.7671,"lo2":-86.6584,"dy":0.0162,"dx":0.0185,"nx":115,"ny":88,"refTime":"2023-04-04T00:00:00:Z","depth":0,"parameterNumber":2,"parameterNumberName":"U-component_of_WINDS"},"data":[0.0,0.0,0.0,0.0,0.0,0.0,0.0,0.0,0.0,0.0,0.0,0.0,0.0,0.0,0.0,0.0,0.0,0.0,0.0,0.0,0.0,0.0,0.0,0.0,0.0,0.0,0.0,0.0,0.0,0.0,0.0,0.0,0.0,0.0,0.0,0.0,0.0,0.0,0.0,0.0,0.0,0.0,0.0,0.0,0.0,0.0,0.0,0.0,0.0,0.0,0.0,0.0,0.0,0.0,0.0,0.0,0.0,0.0,0.0,0.0,0.0,0.0,0.0,0.0,0.0,0.0,0.0,0.0,0.0,0.0,0.0,0.0,0.0,0.0,0.0,0.0,0.0,0.0,0.0,0.0,0.0,0.0,0.0,0.0,0.0,0.0,0.0,0.0,0.0,0.0,0.0,0.0,0.0,0.0,0.0,0.0,0.0,0.0,0.0,0.0,0.0,0.0,0.0,0.0,0.0,0.0,0.0,0.0,0.0,0.0,0.0,0.0,0.0,0.0,0.0,0.0,0.0,0.0,0.0,0.0,0.0,0.0,0.0,0.0,0.0,0.0,0.0,0.0,0.0,0.0,0.0,0.0,0.0,0.0,0.0,0.0,0.0,0.0,0.0,0.0,0.0,0.0,0.0,0.0,0.0,0.0,0.0,0.0,0.0,0.0,0.0,0.0,0.0,0.0,0.0,0.0,0.0,0.0,0.0,0.0,0.0,0.0,0.0,0.0,0.0,0.0,0.0,0.0,0.0,0.0,0.0,0.0,0.0,0.0,0.0,0.0,0.0,0.0,0.0,0.0,0.0,0.0,0.0,0.0,0.0,0.0,0.0,0.0,0.0,0.0,0.0,0.0,0.0,0.0,0.0,0.0,0.0,0.0,0.0,0.0,0.0,0.0,0.0,0.0,0.0,0.0,0.0,0.0,0.0,0.0,0.0,0.0,0.0,0.0,0.0,0.0,0.0,0.0,0.0,0.0,0.0,0.0,0.0,0.0,0.0,0.0,0.0,0.0,0.0,0.0,0.0,0.0,0.0,0.0,0.0,0.0,0.0,0.0,0.0,0.0,0.0,0.0,0.0,0.0,0.0,0.0,0.0,0.0,0.0,0.0,0.0,0.0,0.0,0.0,0.0,0.0,0.0,0.0,0.0,0.0,0.0,0.0,0.0,0.0,0.0,0.0,0.0,0.0,0.0,0.0,0.0,0.0,0.0,0.0,0.0,0.0,0.0,0.0,0.0,0.0,0.0,0.0,0.0,0.0,0.0,0.0,0.0,0.0,0.0,0.0,0.0,0.0,0.0,0.0,0.0,0.0,0.0,0.0,0.0,0.0,0.0,0.0,0.0,0.0,0.0,0.0,0.0,0.0,0.0,0.0,0.0,0.0,0.0,0.0,0.0,0.0,0.0,0.0,0.0,0.0,0.0,0.0,0.0,0.0,0.0,0.0,0.0,0.0,0.0,0.0,0.0,0.0,0.0,0.0,0.0,0.0,0.0,0.0,0.0,0.0,0.0,0.0,0.0,0.0,0.0,0.0,0.0,0.0,0.0,0.0,0.0,0.0,0.0,0.0,0.0,0.0,0.0,0.0,0.0,0.0,0.0,0.0,0.0,0.0,0.0,0.0,0.0,0.0,0.0,0.0,0.0,0.0,0.0,0.0,0.0,0.0,0.0,0.0,0.0,0.0,0.0,0.0,0.0,0.0,0.0,0.0,0.0,0.0,0.0,0.0,0.0,0.0,0.0,0.0,0.0,0.0,0.0,0.0,0.0,0.0,0.0,0.0,0.0,0.0,0.0,0.0,0.0,0.0,0.0,0.0,0.0,0.0,0.0,0.0,0.0,0.0,0.0,0.0,0.0,0.0,0.0,0.0,0.0,0.0,0.0,0.0,0.0,0.0,0.0,0.0,0.0,0.0,0.0,0.0,0.0,0.0,0.0,0.0,0.0,0.0,0.0,0.0,0.0,0.0,0.0,0.0,0.0,0.0,0.0,0.0,0.0,0.0,0.0,0.0,0.0,0.0,0.0,0.0,0.0,0.0,0.0,0.0,0.0,0.0,0.0,0.0,0.0,0.0,0.0,0.0,0.0,0.0,0.0,0.0,0.0,0.0,0.0,0.0,0.0,0.0,0.0,0.0,0.0,0.0,0.0,0.0,0.0,0.0,0.0,0.0,0.0,0.0,0.0,0.0,0.0,0.0,0.0,0.0,0.0,0.0,0.0,0.0,0.0,0.0,0.0,0.0,0.0,0.0,0.0,0.0,0.0,0.0,0.0,0.0,0.0,0.0,0.0,0.0,0.0,0.0,0.0,0.0,0.0,0.0,0.0,0.0,0.0,0.0,0.0,0.0,0.0,0.0,0.0,0.0,0.0,0.0,0.0,0.0,0.0,0.0,0.0,0.0,0.0,0.0,0.0,0.0,0.0,0.0,0.0,0.0,0.0,0.0,0.0,0.0,0.0,0.0,0.0,0.0,0.0,0.0,0.0,0.0,0.0,0.0,0.0,0.0,0.0,0.0,0.0,0.0,0.0,0.0,0.0,0.0,0.0,0.0,0.0,0.0,0.0,0.0,0.0,0.0,0.0,0.0,0.0,0.0,0.0,0.0,0.0,0.0,0.0,0.0,0.0,0.0,0.0,0.0,0.0,0.0,0.0,0.0,0.0,0.0,0.0,0.0,0.0,0.0,0.0,0.0,0.0,0.0,0.0,0.0,0.0,0.0,0.0,0.0,0.0,0.0,0.0,0.0,0.0,0.0,0.0,0.0,0.0,0.0,0.0,0.0,0.0,0.0,0.0,0.0,0.0,0.0,0.0,0.0,0.0,0.0,0.0,0.0,0.0,0.0,0.0,0.0,0.0,0.0,0.0,0.0,0.0,0.0,0.0,0.0,0.0,0.0,0.0,0.0,0.0,0.0,0.0,0.0,0.0,0.0,0.0,0.0,0.0,0.0,0.0,0.0,0.0,0.0,0.0,0.0,0.0,0.0,0.0,0.0,0.0,0.0,0.0,0.0,0.0,0.0,0.0,0.0,0.0,0.0,0.0,0.0,0.0,0.0,0.0,0.0,0.0,0.0,0.0,0.0,0.0,0.0,0.0,0.0,0.0,0.0,0.0,0.0,0.0,0.0,0.0,0.0,0.0,0.0,0.0,0.0,0.0,0.0,0.0,0.0,0.0,0.0,0.0,0.0,0.0,0.0,0.0,0.0,0.0,0.0,0.0,0.0,0.0,0.0,0.0,0.0,0.0,0.0,0.0,0.0,0.0,0.0,0.0,0.0,0.0,0.0,0.0,0.0,0.0,0.0,0.0,0.0,0.0,0.0,0.0,0.0,0.0,0.0,0.0,0.0,0.0,0.0,0.0,0.0,0.0,0.0,0.0,0.0,0.0,0.0,0.0,0.0,0.0,0.0,0.0,0.0,0.0,0.0,0.0,0.0,0.0,0.0,0.0,0.0,0.0,0.0,0.0,0.0,0.0,0.0,0.0,0.0,0.0,0.0,0.0,0.0,0.0,0.0,0.0,0.0,0.0,0.0,0.0,0.0,0.0,0.0,0.0,0.0,0.0,0.0,0.0,0.0,0.0,0.0,0.0,0.0,0.0,0.0,0.0,0.0,0.0,0.0,0.0,0.0,0.0,0.0,0.0,0.0,0.0,0.0,0.0,0.0,0.0,0.0,0.0,0.0,0.0,0.0,0.0,0.0,0.0,0.0,0.0,0.0,0.0,0.0,0.0,0.0,0.0,0.0,0.0,0.0,0.0,0.0,0.0,0.0,0.0,0.0,0.0,0.0,0.0,0.0,0.0,0.0,0.0,0.0,0.0,0.0,0.0,0.0,0.0,0.0,0.0,0.0,0.0,0.0,0.0,0.0,0.0,0.0,0.0,0.0,0.0,0.0,0.0,0.0,0.0,0.0,0.0,0.0,0.0,0.0,0.0,0.0,0.0,0.0,0.0,0.0,0.0,0.0,0.0,0.0,0.0,0.0,0.0,0.0,0.0,0.0,0.0,0.0,0.0,0.0,0.0,0.0,0.0,0.0,0.0,0.0,0.0,0.0,0.0,0.0,0.0,0.0,0.0,0.0,0.0,0.0,0.0,0.0,0.0,0.0,0.0,0.0,0.0,0.0,0.0,0.0,0.0,0.0,0.0,0.0,0.0,0.0,0.0,0.0,0.0,0.0,0.0,0.0,0.0,0.0,0.0,0.0,0.0,0.0,0.0,0.0,0.0,0.0,0.0,0.0,0.0,0.0,0.0,0.0,0.0,0.0,0.0,0.0,3.4293,0.0,0.0,0.0,0.0,0.0,0.0,0.0,0.0,0.0,0.0,0.0,0.0,0.0,0.0,0.0,0.0,0.0,0.0,0.0,0.0,0.0,0.0,0.0,0.0,0.0,0.0,0.0,0.0,0.0,0.0,0.0,0.0,0.0,0.0,0.0,0.0,0.0,0.0,0.0,0.0,0.0,0.0,0.0,0.0,0.0,0.0,0.0,0.0,0.0,0.0,0.0,0.0,0.0,0.0,0.0,0.0,0.0,0.0,0.0,0.0,0.0,0.0,0.0,0.0,0.0,0.0,0.0,0.0,0.0,0.0,0.0,0.0,0.0,0.0,0.0,0.0,0.0,0.0,0.0,0.0,0.0,0.0,0.0,0.0,0.0,0.0,0.0,0.0,0.0,0.0,0.0,0.0,0.0,0.0,0.0,0.0,0.0,0.0,0.0,0.0,0.0,0.0,0.0,0.0,0.0,0.0,0.0,0.0,0.0,0.0,3.3998,3.3998,3.4105,3.4221,3.4293,0.0,0.0,0.0,0.0,0.0,0.0,0.0,0.0,0.0,0.0,0.0,0.0,0.0,0.0,0.0,0.0,0.0,0.0,0.0,0.0,0.0,0.0,0.0,0.0,0.0,0.0,0.0,0.0,0.0,0.0,0.0,0.0,0.0,0.0,0.0,0.0,0.0,0.0,0.0,0.0,0.0,0.0,0.0,0.0,0.0,0.0,0.0,0.0,0.0,0.0,0.0,0.0,0.0,0.0,0.0,0.0,0.0,0.0,0.0,0.0,0.0,0.0,0.0,0.0,0.0,0.0,0.0,0.0,0.0,0.0,0.0,0.0,0.0,0.0,0.0,0.0,0.0,0.0,0.0,0.0,0.0,0.0,0.0,0.0,0.0,0.0,0.0,0.0,0.0,0.0,0.0,0.0,0.0,0.0,0.0,0.0,0.0,0.0,0.0,0.0,0.0,0.0,0.0,0.0,0.0,0.0,0.0,0.0,0.0,0.0,0.0,0.0,3.4124,3.4152,3.4055,0.0,0.0,0.0,0.0,0.0,0.0,0.0,0.0,0.0,0.0,0.0,0.0,0.0,0.0,0.0,0.0,0.0,0.0,0.0,0.0,0.0,0.0,0.0,0.0,0.0,0.0,0.0,0.0,0.0,0.0,0.0,0.0,0.0,0.0,0.0,0.0,0.0,0.0,0.0,0.0,0.0,0.0,0.0,0.0,0.0,0.0,0.0,0.0,0.0,0.0,0.0,0.0,0.0,0.0,0.0,0.0,0.0,0.0,0.0,0.0,0.0,0.0,0.0,0.0,0.0,0.0,0.0,0.0,0.0,0.0,0.0,0.0,0.0,0.0,0.0,0.0,0.0,0.0,0.0,0.0,0.0,0.0,0.0,0.0,0.0,0.0,0.0,0.0,0.0,0.0,0.0,0.0,0.0,0.0,0.0,0.0,0.0,0.0,0.0,0.0,0.0,0.0,0.0,0.0,0.0,0.0,0.0,0.0,0.0,0.0,3.3998,3.3998,3.4124,0.0,3.3318,0.0,0.0,0.0,0.0,0.0,0.0,0.0,0.0,0.0,0.0,0.0,0.0,0.0,0.0,0.0,0.0,0.0,0.0,0.0,0.0,0.0,0.0,0.0,0.0,0.0,0.0,0.0,0.0,0.0,0.0,0.0,0.0,0.0,0.0,0.0,0.0,0.0,0.0,0.0,0.0,0.0,0.0,0.0,0.0,0.0,0.0,0.0,0.0,0.0,0.0,0.0,0.0,0.0,0.0,0.0,0.0,0.0,0.0,0.0,0.0,0.0,0.0,0.0,0.0,0.0,0.0,0.0,0.0,0.0,0.0,0.0,0.0,0.0,0.0,0.0,0.0,0.0,0.0,0.0,0.0,0.0,0.0,0.0,0.0,0.0,0.0,0.0,0.0,0.0,0.0,0.0,0.0,0.0,0.0,0.0,0.0,0.0,0.0,0.0,0.0,0.0,0.0,0.0,0.0,0.0,0.0,0.0,0.0,0.0,0.0,3.3998,3.3998,3.3751,3.3477,0.0,0.0,0.0,0.0,0.0,0.0,0.0,0.0,0.0,0.0,0.0,0.0,0.0,0.0,0.0,0.0,0.0,0.0,0.0,0.0,0.0,0.0,0.0,0.0,0.0,0.0,0.0,0.0,0.0,0.0,0.0,0.0,0.0,0.0,0.0,0.0,0.0,0.0,0.0,0.0,0.0,0.0,0.0,0.0,0.0,0.0,0.0,0.0,0.0,0.0,0.0,0.0,0.0,0.0,0.0,0.0,0.0,0.0,0.0,0.0,0.0,0.0,0.0,0.0,0.0,0.0,0.0,0.0,0.0,0.0,0.0,0.0,0.0,0.0,0.0,0.0,0.0,0.0,0.0,0.0,0.0,0.0,0.0,0.0,0.0,0.0,0.0,0.0,0.0,0.0,0.0,0.0,0.0,0.0,0.0,0.0,0.0,0.0,0.0,0.0,0.0,0.0,0.0,0.0,0.0,0.0,0.0,0.0,0.0,0.0,3.3921,3.3913,3.3741,3.3394,3.2985,3.2537,0.0,0.0,0.0,0.0,0.0,0.0,0.0,0.0,0.0,0.0,0.0,0.0,0.0,0.0,0.0,0.0,0.0,0.0,0.0,0.0,0.0,0.0,0.0,0.0,0.0,0.0,0.0,0.0,0.0,0.0,0.0,0.0,0.0,0.0,0.0,0.0,0.0,0.0,0.0,0.0,0.0,0.0,0.0,0.0,0.0,0.0,0.0,0.0,0.0,0.0,0.0,0.0,0.0,0.0,0.0,0.0,0.0,0.0,0.0,0.0,0.0,0.0,0.0,0.0,0.0,0.0,0.0,0.0,0.0,0.0,0.0,0.0,0.0,0.0,0.0,0.0,0.0,0.0,0.0,0.0,0.0,0.0,0.0,0.0,0.0,0.0,0.0,0.0,0.0,0.0,0.0,0.0,0.0,0.0,0.0,0.0,0.0,0.0,0.0,0.0,0.0,0.0,0.0,0.0,0.0,0.0,0.0,0.0,3.3698,3.3876,3.3704,3.3185,3.3164,3.2462,0.0,0.0,0.0,0.0,0.0,0.0,0.0,0.0,0.0,0.0,0.0,0.0,0.0,0.0,0.0,0.0,0.0,0.0,0.0,0.0,0.0,0.0,0.0,0.0,0.0,0.0,0.0,0.0,0.0,0.0,0.0,0.0,0.0,0.0,0.0,0.0,0.0,0.0,0.0,0.0,0.0,0.0,0.0,0.0,0.0,0.0,0.0,0.0,0.0,0.0,0.0,0.0,0.0,0.0,0.0,0.0,0.0,0.0,0.0,0.0,0.0,0.0,0.0,0.0,0.0,0.0,0.0,0.0,0.0,0.0,0.0,0.0,0.0,0.0,0.0,0.0,0.0,0.0,0.0,0.0,0.0,0.0,0.0,0.0,0.0,0.0,0.0,0.0,0.0,0.0,0.0,0.0,0.0,0.0,0.0,0.0,0.0,0.0,0.0,0.0,0.0,0.0,0.0,0.0,0.0,0.0,0.0,0.0,0.0,3.2938,3.3121,3.321,3.3059,3.2139,3.1383,0.0,0.0,0.0,0.0,0.0,0.0,0.0,0.0,0.0,0.0,0.0,0.0,0.0,0.0,0.0,0.0,0.0,0.0,0.0,0.0,0.0,0.0,0.0,0.0,0.0,0.0,0.0,0.0,0.0,0.0,0.0,0.0,0.0,0.0,0.0,0.0,0.0,0.0,0.0,0.0,0.0,0.0,0.0,0.0,0.0,0.0,0.0,0.0,0.0,0.0,0.0,0.0,0.0,0.0,0.0,0.0,0.0,0.0,0.0,0.0,0.0,0.0,0.0,0.0,0.0,0.0,0.0,0.0,0.0,0.0,0.0,0.0,0.0,0.0,0.0,0.0,0.0,0.0,0.0,0.0,0.0,0.0,0.0,0.0,0.0,0.0,0.0,0.0,0.0,0.0,0.0,0.0,0.0,0.0,0.0,0.0,0.0,0.0,0.0,0.0,0.0,0.0,0.0,0.0,0.0,0.0,0.0,0.0,0.0,3.221,0.0,3.2395,3.2281,3.1283,3.0655,0.0,0.0,0.0,0.0,0.0,0.0,0.0,0.0,0.0,0.0,0.0,0.0,0.0,0.0,0.0,0.0,0.0,0.0,0.0,0.0,0.0,0.0,0.0,0.0,0.0,0.0,0.0,0.0,0.0,0.0,0.0,0.0,0.0,0.0,0.0,0.0,0.0,0.0,0.0,0.0,0.0,0.0,0.0,0.0,0.0,0.0,0.0,0.0,0.0,0.0,0.0,0.0,0.0,0.0,0.0,0.0,0.0,0.0,0.0,0.0,0.0,0.0,0.0,0.0,0.0,0.0,0.0,0.0,0.0,0.0,0.0,0.0,0.0,0.0,0.0,0.0,0.0,0.0,0.0,0.0,0.0,0.0,0.0,0.0,0.0,0.0,0.0,0.0,0.0,0.0,0.0,0.0,0.0,0.0,0.0,0.0,0.0,0.0,0.0,0.0,0.0,0.0,0.0,0.0,0.0,0.0,0.0,0.0,3.1327,3.1592,3.1597,3.1362,3.0742,3.0688,3.0375,0.0,0.0,0.0,0.0,0.0,0.0,0.0,0.0,0.0,0.0,0.0,0.0,0.0,0.0,0.0,0.0,0.0,0.0,0.0,0.0,0.0,0.0,0.0,0.0,0.0,0.0,0.0,0.0,0.0,0.0,0.0,0.0,0.0,0.0,0.0,0.0,0.0,0.0,0.0,0.0,0.0,0.0,0.0,0.0,0.0,0.0,0.0,0.0,0.0,0.0,0.0,0.0,0.0,0.0,0.0,0.0,0.0,0.0,0.0,0.0,0.0,0.0,0.0,0.0,0.0,0.0,0.0,0.0,0.0,0.0,0.0,0.0,0.0,0.0,0.0,0.0,0.0,0.0,0.0,0.0,0.0,0.0,0.0,0.0,0.0,0.0,0.0,0.0,0.0,0.0,0.0,0.0,0.0,0.0,0.0,0.0,0.0,0.0,0.0,0.0,0.0,0.0,0.0,0.0,0.0,0.0,0.0,0.0,0.0,3.147,3.1038,3.075,3.0686,3.0165,2.9851,0.0,0.0,0.0,0.0,0.0,0.0,0.0,0.0,0.0,0.0,0.0,0.0,0.0,0.0,0.0,0.0,0.0,0.0,0.0,0.0,0.0,0.0,0.0,0.0,0.0,0.0,0.0,0.0,0.0,0.0,0.0,0.0,0.0,0.0,0.0,0.0,0.0,0.0,0.0,0.0,0.0,0.0,0.0,0.0,0.0,0.0,0.0,0.0,0.0,0.0,0.0,0.0,0.0,0.0,0.0,0.0,0.0,0.0,0.0,0.0,0.0,0.0,0.0,0.0,0.0,0.0,0.0,0.0,0.0,0.0,0.0,0.0,0.0,0.0,0.0,0.0,0.0,0.0,0.0,0.0,0.0,0.0,0.0,0.0,0.0,0.0,0.0,0.0,0.0,0.0,0.0,0.0,0.0,0.0,0.0,0.0,0.0,0.0,0.0,0.0,0.0,0.0,0.0,0.0,0.0,0.0,0.0,0.0,0.0,3.0502,3.0167,3.0046,3.0239,2.9792,2.9626,2.979,0.0,0.0,0.0,0.0,0.0,0.0,0.0,0.0,0.0,0.0,0.0,0.0,0.0,0.0,0.0,0.0,0.0,0.0,0.0,0.0,0.0,0.0,0.0,0.0,0.0,0.0,0.0,0.0,0.0,0.0,0.0,0.0,0.0,0.0,0.0,0.0,0.0,0.0,0.0,0.0,0.0,0.0,0.0,0.0,0.0,0.0,0.0,0.0,0.0,0.0,0.0,0.0,0.0,0.0,0.0,0.0,0.0,0.0,0.0,0.0,0.0,0.0,0.0,0.0,0.0,0.0,0.0,0.0,0.0,0.0,0.0,0.0,0.0,0.0,0.0,0.0,0.0,0.0,0.0,0.0,0.0,0.0,0.0,0.0,0.0,0.0,0.0,0.0,0.0,0.0,0.0,0.0,0.0,0.0,0.0,0.0,0.0,0.0,0.0,0.0,0.0,0.0,0.0,0.0,0.0,0.0,0.0,0.0,2.8975,2.9112,2.9307,2.9511,2.9569,2.9664,0.0,0.0,0.0,0.0,0.0,0.0,0.0,0.0,0.0,0.0,0.0,0.0,0.0,0.0,0.0,0.0,0.0,0.0,0.0,0.0,0.0,0.0,0.0,0.0,0.0,0.0,0.0,0.0,0.0,0.0,0.0,0.0,0.0,0.0,0.0,0.0,0.0,0.0,0.0,0.0,0.0,0.0,0.0,0.0,0.0,0.0,0.0,0.0,0.0,0.0,0.0,0.0,0.0,0.0,0.0,0.0,0.0,0.0,0.0,0.0,0.0,0.0,0.0,0.0,0.0,0.0,0.0,0.0,0.0,0.0,0.0,0.0,0.0,0.0,0.0,0.0,0.0,0.0,0.0,0.0,0.0,0.0,0.0,0.0,0.0,0.0,0.0,0.0,0.0,0.0,0.0,0.0,0.0,0.0,0.0,0.0,0.0,0.0,0.0,0.0,0.0,0.0,0.0,0.0,0.0,0.0,0.0,0.0,0.0,2.8994,2.9134,2.9307,2.9492,2.9569,2.9645,0.0,0.0,0.0,0.0,0.0,0.0,0.0,0.0,0.0,0.0,0.0,0.0,0.0,0.0,0.0,0.0,0.0,0.0,0.0,0.0,0.0,0.0,0.0,0.0,0.0,0.0,0.0,0.0,0.0,0.0,0.0,0.0,0.0,0.0,0.0,0.0,0.0,0.0,0.0,0.0,0.0,0.0,0.0,0.0,0.0,0.0,0.0,0.0,0.0,0.0,0.0,0.0,0.0,0.0,0.0,0.0,0.0,0.0,0.0,0.0,0.0,0.0,0.0,0.0,0.0,0.0,0.0,0.0,0.0,0.0,0.0,0.0,0.0,0.0,0.0,0.0,0.0,0.0,0.0,0.0,0.0,0.0,0.0,0.0,0.0,0.0,0.0,0.0,0.0,0.0,0.0,0.0,0.0,0.0,0.0,0.0,0.0,0.0,0.0,0.0,0.0,0.0,0.0,0.0,0.0,0.0,0.0,0.0,2.8791,2.8975,2.9112,2.9307,2.9511,2.9589,2.9682,0.0,0.0,0.0,0.0,0.0,0.0,0.0,0.0,0.0,0.0,0.0,0.0,0.0,0.0,0.0,0.0,0.0,0.0,0.0,0.0,0.0,0.0,0.0,0.0,0.0,0.0,0.0,0.0,0.0,0.0,0.0,0.0,0.0,0.0,0.0,0.0,0.0,0.0,0.0,0.0,0.0,0.0,0.0,0.0,0.0,0.0,0.0,0.0,0.0,0.0,0.0,0.0,0.0,0.0,0.0,0.0,0.0,0.0,0.0,0.0,0.0,0.0,0.0,0.0,0.0,0.0,0.0,0.0,0.0,0.0,0.0,0.0,0.0,0.0,0.0,0.0,0.0,0.0,0.0,0.0,0.0,0.0,0.0,0.0,0.0,0.0,0.0,0.0,0.0,0.0,0.0,0.0,0.0,0.0,0.0,0.0,0.0,0.0,0.0,0.0,0.0,0.0,0.0,0.0,0.0,0.0,0.0,0.0,2.8785,2.8952,2.913,2.9286,2.9472,2.9608,2.9738,0.0,0.0,0.0,0.0,0.0,0.0,0.0,0.0,0.0,0.0,0.0,0.0,0.0,0.0,0.0,0.0,0.0,0.0,0.0,0.0,0.0,0.0,0.0,0.0,0.0,0.0,0.0,0.0,0.0,0.0,0.0,0.0,0.0,0.0,0.0,0.0,0.0,0.0,0.0,0.0,0.0,0.0,0.0,0.0,0.0,0.0,0.0,0.0,0.0,0.0,0.0,0.0,0.0,0.0,0.0,0.0,0.0,0.0,0.0,0.0,0.0,0.0,0.0,0.0,0.0,0.0,0.0,0.0,0.0,0.0,0.0,0.0,0.0,0.0,0.0,0.0,0.0,0.0,0.0,0.0,0.0,0.0,0.0,0.0,0.0,0.0,0.0,0.0,0.0,0.0,0.0,0.0,0.0,0.0,0.0,0.0,0.0,0.0,0.0,0.0,0.0,0.0,0.0,0.0,0.0,0.0,0.0,0.0,2.8662,2.8834,2.9021,2.9222,2.9412,2.9607,2.9775,0.0,0.0,0.0,0.0,0.0,0.0,0.0,0.0,0.0,0.0,0.0,0.0,0.0,0.0,0.0,0.0,0.0,0.0,0.0,0.0,0.0,0.0,0.0,0.0,0.0,0.0,0.0,0.0,0.0,0.0,0.0,0.0,0.0,0.0,0.0,0.0,0.0,0.0,0.0,0.0,0.0,0.0,0.0,0.0,0.0,0.0,0.0,0.0,-1.6683,0.0,0.0,0.0,0.0,0.0,0.0,0.0,0.0,0.0,0.0,0.0,0.0,0.0,0.0,0.0,0.0,0.0,0.0,0.0,0.0,0.0,0.0,0.0,0.0,0.0,0.0,0.0,0.0,0.0,0.0,0.0,0.0,0.0,0.0,0.0,0.0,0.0,0.0,0.0,0.0,0.0,0.0,0.0,0.0,0.0,0.0,0.0,0.0,0.0,0.0,0.0,0.0,0.0,0.0,0.0,0.0,0.0,0.0,0.0,2.8562,2.8785,2.8998,2.9181,2.9392,2.9589,2.9756,0.0,0.0,0.0,0.0,0.0,0.0,0.0,0.0,0.0,0.0,0.0,0.0,0.0,0.0,0.0,0.0,0.0,0.0,0.0,0.0,0.0,0.0,0.0,0.0,0.0,0.0,0.0,0.0,0.0,0.0,0.0,0.0,0.0,0.0,0.0,0.0,0.0,0.0,0.0,0.0,0.0,0.0,0.0,0.0,0.0,0.0,0.0,0.0,0.0,0.0,0.0,0.0,0.0,0.0,0.0,0.0,0.0,0.0,0.0,0.0,0.0,0.0,0.0,0.0,0.0,0.0,0.0,0.0,0.0,0.0,0.0,0.0,0.0,0.0,0.0,0.0,0.0,0.0,0.0,0.0,0.0,0.0,0.0,0.0,0.0,0.0,0.0,0.0,0.0,0.0,0.0,0.0,0.0,0.0,0.0,0.0,0.0,0.0,0.0,0.0,0.0,0.0,0.0,0.0,0.0,0.0,0.0,2.8237,2.8484,2.8737,2.8952,2.916,2.9372,2.9588,2.9756,2.9912,0.0,0.0,0.0,0.0,0.0,0.0,0.0,0.0,0.0,0.0,0.0,0.0,0.0,0.0,0.0,0.0,0.0,0.0,0.0,0.0,0.0,0.0,0.0,0.0,0.0,0.0,0.0,0.0,0.0,0.0,0.0,0.0,0.0,0.0,0.0,0.0,0.0,0.0,1.2436,0.6813,0.0,0.0,0.0,0.0,0.0,0.0,0.0,0.0,-1.9794,0.0,0.0,0.0,0.0,0.0,0.0,0.0,0.0,0.0,0.0,0.0,0.0,0.0,0.0,0.0,0.0,0.0,0.0,0.0,0.0,0.0,0.0,0.0,0.0,0.0,0.0,0.0,0.0,0.0,0.0,0.0,0.0,0.0,0.0,0.0,0.0,0.0,0.0,0.0,0.0,0.0,0.0,0.0,0.0,0.0,0.0,0.0,0.0,0.0,0.0,0.0,0.0,0.0,0.0,0.0,0.0,2.7677,2.7968,2.8264,2.8458,2.8785,2.9026,2.9249,2.955,2.9774,2.9891,0.0,0.0,0.0,0.0,0.0,0.0,0.0,0.0,0.0,0.0,0.0,0.0,0.0,0.0,0.0,0.0,0.0,0.0,0.0,0.0,0.0,0.0,0.0,0.0,0.0,0.0,0.0,0.0,0.0,0.0,0.0,0.0,0.0,0.0,0.0,0.0,0.0,0.0,0.0,0.5438,0.0296,0.0,0.0,0.0,0.0,0.0,0.0,0.0,0.0,-1.9306,0.0,0.0,0.0,0.0,0.0,0.0,0.0,0.0,0.0,0.0,0.0,0.0,0.0,0.0,0.0,0.0,0.0,0.0,0.0,0.0,0.0,0.0,0.0,0.0,0.0,0.0,0.0,0.0,0.0,0.0,0.0,0.0,0.0,0.0,0.0,0.0,0.0,0.0,0.0,0.0,0.0,0.0,0.0,0.0,0.0,0.0,0.0,0.0,0.0,0.0,0.0,0.0,0.0,0.0,0.0,2.7386,2.7719,2.8025,2.83,2.8619,2.891,2.916,2.9433,2.9701,0.0,0.0,0.0,0.0,0.0,0.0,0.0,0.0,0.0,0.0,0.0,0.0,0.0,0.0,0.0,0.0,0.0,0.0,0.0,0.0,0.0,0.0,0.0,0.0,0.0,0.0,0.0,0.0,0.0,0.0,0.0,0.0,0.0,0.0,0.0,0.0,0.0,0.0,0.0,0.0,0.1022,-0.4156,-0.9251,0.0,0.0,0.0,0.0,0.0,0.0,-1.9383,-1.9168,0.0,0.0,0.0,0.0,0.0,0.0,0.0,0.0,0.0,0.0,0.0,0.0,0.0,0.0,0.0,0.0,0.0,0.0,0.0,0.0,0.0,0.0,0.0,0.0,0.0,0.0,0.0,0.0,0.0,0.0,0.0,0.0,0.0,0.0,0.0,0.0,0.0,0.0,0.0,0.0,0.0,0.0,0.0,0.0,0.0,0.0,0.0,0.0,0.0,0.0,0.0,0.0,0.0,0.0,0.0,2.7036,2.7382,2.776,2.8091,2.844,2.8743,2.9044,2.9291,2.9495,0.0,0.0,0.0,0.0,0.0,0.0,0.0,0.0,0.0,0.0,0.0,0.0,0.0,0.0,0.0,0.0,0.0,0.0,0.0,0.0,0.0,0.0,0.0,0.0,0.0,0.0,0.0,0.0,0.0,0.0,0.0,0.0,0.0,0.0,0.0,0.0,0.0,0.0,0.0,0.0,0.0,-0.9503,-1.3408,-1.7857,0.0,0.0,0.0,0.0,-1.9877,-1.9658,0.0,0.0,0.0,0.0,0.0,0.0,0.0,0.0,0.0,0.0,0.0,0.0,0.0,0.0,0.0,0.0,0.0,0.0,0.0,0.0,0.0,0.0,0.0,0.0,0.0,0.0,0.0,0.0,0.0,0.0,0.0,0.0,0.0,0.0,0.0,0.0,0.0,0.0,0.0,0.0,0.0,0.0,0.0,0.0,0.0,0.0,0.0,0.0,0.0,0.0,0.0,0.0,0.0,0.0,0.0,0.0,2.6487,2.6956,2.7338,2.7672,2.8101,2.8474,2.8821,2.9079,2.904,0.0,0.0,0.0,0.0,0.0,0.0,0.0,0.0,0.0,0.0,0.0,0.0,0.0,0.0,0.0,0.0,0.0,0.0,0.0,0.0,0.0,0.0,0.0,0.0,0.0,0.0,0.0,0.0,0.0,0.0,0.0,0.0,0.0,0.0,0.0,0.0,0.0,0.0,0.0,0.0,0.0,-1.4957,-1.571,-1.9542,-2.2258,0.0,0.0,0.0,-2.1297,-2.1038,0.0,0.0,0.0,0.0,0.0,0.0,0.0,0.0,0.0,0.0,0.0,0.0,0.0,0.0,0.0,0.0,0.0,0.0,0.0,0.0,0.0,0.0,0.0,0.0,0.0,0.0,0.0,0.0,0.0,0.0,0.0,0.0,0.0,0.0,0.0,0.0,0.0,0.0,0.0,0.0,0.0,0.0,0.0,0.0,0.0,0.0,0.0,0.0,0.0,0.0,0.0,0.0,0.0,0.0,0.0,2.5663,2.6033,2.6419,2.6791,2.721,2.7713,2.7897,2.7702,2.8114,2.8075,0.0,0.0,0.0,0.0,0.0,0.0,0.0,0.0,0.0,0.0,0.0,0.0,0.0,0.0,0.0,0.0,0.0,0.0,0.0,0.0,0.0,0.0,0.0,0.0,0.0,0.0,0.0,0.0,0.0,0.0,0.0,0.0,0.0,0.0,0.0,0.0,0.0,0.0,0.0,0.0,0.0,0.0,-1.9458,-2.1347,0.0,0.0,0.0,-2.1606,-2.1349,0.0,0.0,0.0,0.0,0.0,0.0,0.0,0.0,0.0,0.0,0.0,0.0,0.0,0.0,0.0,0.0,0.0,0.0,0.0,0.0,0.0,0.0,0.0,0.0,0.0,0.0,0.0,0.0,0.0,0.0,0.0,0.0,0.0,0.0,0.0,0.0,0.0,0.0,0.0,0.0,0.0,0.0,0.0,0.0,0.0,0.0,0.0,0.0,0.0,0.0,0.0,0.0,0.0,0.0,0.0,0.0,0.0,2.5427,2.5746,2.6042,2.6336,2.6837,2.6895,2.6482,2.688,0.0,0.0,0.0,0.0,0.0,0.0,0.0,0.0,0.0,0.0,0.0,0.0,0.0,0.0,0.0,0.0,0.0,0.0,0.0,0.0,0.0,0.0,0.0,0.0,0.0,0.0,0.0,1.32,0.0,0.0,0.0,0.0,0.0,0.0,0.0,0.0,0.0,0.0,0.0,0.0,0.0,0.0,-1.9514,-2.2814,-2.3037,-2.2825,0.0,0.0,-2.1983,-2.1783,-2.1445,-2.1208,0.0,0.0,0.0,0.0,0.0,0.0,0.0,0.0,0.0,0.0,0.0,0.0,0.0,0.0,0.0,0.0,0.0,0.0,0.0,0.0,0.0,0.0,0.0,0.0,0.0,0.0,0.0,0.0,0.0,0.0,0.0,0.0,0.0,0.0,0.0,0.0,0.0,0.0,0.0,0.0,0.0,0.0,0.0,0.0,0.0,0.0,0.0,0.0,0.0,0.0,0.0,0.0,0.0,0.0,0.0,2.4511,2.4871,2.4981,2.4853,2.5313,2.5501,2.5327,2.5596,2.5572,0.0,0.0,0.0,0.0,0.0,0.0,0.0,0.0,0.0,0.0,0.0,0.0,0.0,0.0,0.0,0.0,0.0,0.0,0.0,0.0,0.0,0.0,0.0,0.0,0.0,0.0,0.0,0.0,0.0,0.0,0.0,0.0,0.0,0.0,0.0,0.0,0.0,0.0,0.0,0.0,0.0,-2.4668,-2.4752,-2.4568,-2.434,0.0,0.0,-2.3484,-2.3275,-2.2944,-2.266,-2.2415,0.0,0.0,0.0,0.0,0.0,0.0,0.0,0.0,0.0,0.0,0.0,0.0,0.0,0.0,0.0,0.0,0.0,0.0,0.0,0.0,0.0,0.0,0.0,0.0,0.0,0.0,0.0,0.0,0.0,0.0,0.0,0.0,0.0,0.0,0.0,0.0,0.0,0.0,0.0,0.0,0.0,0.0,0.0,0.0,0.0,0.0,0.0,0.0,0.0,0.0,0.0,0.0,0.0,2.2755,2.3201,2.3115,2.3186,2.3399,2.386,2.3966,2.3727,2.4098,2.4164,0.0,0.0,0.0,0.0,0.0,0.0,0.0,0.0,0.0,0.0,0.0,0.0,0.0,0.0,0.0,0.0,0.0,0.0,0.0,0.0,0.0,0.0,0.0,0.0,0.0,0.0,0.0,0.0,0.2754,-0.062,-0.4618,0.0,0.0,0.0,0.0,0.0,0.0,0.0,0.0,0.0,0.0,-2.4993,-2.4818,-2.4543,0.0,0.0,-2.371,-2.3417,-2.3193,-2.2868,-2.2579,-2.2405,-2.2106,0.0,0.0,0.0,0.0,0.0,0.0,0.0,0.0,0.0,0.0,0.0,0.0,0.0,0.0,0.0,0.0,0.0,0.0,0.0,0.0,0.0,0.0,0.0,0.0,0.0,0.0,0.0,0.0,0.0,0.0,0.0,0.0,0.0,0.0,0.0,0.0,0.0,0.0,0.0,0.0,0.0,0.0,0.0,0.0,0.0,0.0,0.0,0.0,0.0,0.0,0.0,0.0,2.1197,2.1796,2.1562,2.1549,2.1848,2.2243,2.2367,2.2117,2.2485,2.27,0.0,0.0,0.0,0.0,0.0,0.0,0.0,0.0,0.0,0.0,0.0,0.0,0.0,0.0,0.0,0.0,0.0,0.0,0.0,0.0,0.0,0.0,0.0,0.0,0.0,0.0,0.0,0.0,-0.2978,-0.6991,-1.2553,0.0,0.0,0.0,0.0,0.0,0.0,0.0,0.0,0.0,0.0,-2.4737,-2.4559,-2.4284,-2.4019,-2.3813,-2.3508,-2.3217,-2.2952,-2.2659,-2.2405,-2.2209,0.0,0.0,0.0,0.0,0.0,0.0,0.0,0.0,0.0,0.0,0.0,0.0,0.0,0.0,0.0,0.0,0.0,0.0,0.0,0.0,0.0,0.0,0.0,0.0,0.0,0.0,0.0,0.0,0.0,0.0,0.0,0.0,0.0,0.0,0.0,0.0,0.0,0.0,0.0,0.0,0.0,0.0,0.0,0.0,0.0,0.0,0.0,0.0,0.0,0.0,0.0,0.0,0.0,0.0,2.013,2.0217,2.0215,2.0069,2.0389,2.0546,2.0481,2.0797,2.1241,2.1795,0.0,0.0,0.0,0.0,0.0,0.0,0.0,0.0,0.0,0.0,0.0,0.0,0.0,0.0,0.0,0.0,0.0,0.0,0.0,0.0,0.0,0.0,0.0,0.0,0.0,0.0,-0.5308,-1.1543,-1.7402,0.0,0.0,0.0,0.0,0.0,0.0,0.0,0.0,0.0,0.0,-2.47,-2.451,-2.4229,-2.4037,-2.3813,-2.3549,-2.3289,-2.302,-2.2738,-2.2542,-2.2293,0.0,0.0,0.0,0.0,0.0,0.0,0.0,0.0,0.0,0.0,0.0,0.0,0.0,0.0,0.0,0.0,0.0,0.0,0.0,0.0,0.0,0.0,0.0,0.0,0.0,0.0,0.0,2.2016,2.203,0.0,0.0,0.0,0.0,0.0,0.0,0.0,0.0,0.0,0.0,0.0,2.0055,1.9798,0.0,0.0,0.0,0.0,0.0,0.0,0.0,0.0,0.0,0.0,0.0,0.0,1.8087,1.8346,1.8219,1.8178,1.8329,1.8635,1.8989,1.9368,1.9692,2.0237,2.1132,0.0,0.0,0.0,0.0,0.0,0.0,0.0,0.0,0.0,0.0,0.0,0.0,0.0,0.0,0.0,0.0,0.0,0.0,0.0,0.0,0.0,0.0,0.0,0.0,0.0,-0.6113,0.0,0.0,0.0,0.0,0.0,0.0,0.0,0.0,0.0,0.0,0.0,-2.4678,-2.4489,-2.4318,-2.4136,-2.3959,-2.3728,-2.3481,0.0,0.0,0.0,0.0,0.0,0.0,0.0,0.0,0.0,0.0,0.0,0.0,0.0,0.0,-2.0061,-1.9975,-1.9833,-1.969,-1.9632,0.0,0.0,0.0,0.0,0.0,0.0,0.0,0.0,0.0,0.0,0.0,0.0,0.0,0.0,0.0,0.0,2.1299,0.0,0.0,0.0,0.0,0.0,0.0,0.0,0.0,1.9656,1.95,1.9384,1.9016,1.8762,0.0,1.7979,1.769,0.0,0.0,0.0,0.0,0.0,0.0,0.0,0.0,1.6532,1.6707,1.656,1.66,1.6925,1.7175,1.7612,1.8196,1.866,1.9287,2.007,2.054,2.0972,0.0,0.0,0.0,0.0,0.0,0.0,0.0,0.0,0.0,0.0,0.0,0.0,0.0,0.0,0.0,0.0,0.0,0.0,0.0,0.0,0.0,0.0,0.0,-1.3123,0.0,0.0,0.0,0.0,0.0,0.0,0.0,0.0,0.0,-2.4334,-2.4388,-2.4319,-2.4136,-2.3925,-2.378,-2.3628,0.0,0.0,0.0,0.0,0.0,0.0,0.0,-2.1794,-2.1631,-2.1433,-2.1262,-2.1103,-2.0711,-2.0392,-2.027,0.0,0.0,-1.9762,-1.9705,-1.9632,-1.945,-1.9354,-1.9191,-1.9026,-1.8927,-1.8841,0.0,0.0,0.0,0.0,0.0,0.0,0.0,0.0,2.061,2.056,0.0,2.056,0.0,0.0,0.0,0.0,0.0,0.0,0.0,0.0,1.904,1.8827,1.856,1.8213,1.7995,1.782,1.7098,1.6461,1.5833,1.5804,0.0,0.0,0.0,0.0,0.0,0.0,1.4994,1.5266,1.5344,1.5522,1.5744,1.6095,1.6429,1.6857,1.7679,1.8296,1.874,1.9148,1.9566,2.0107,1.983,0.0,0.0,0.0,0.0,0.0,0.0,0.0,0.0,0.0,0.0,0.0,0.0,0.0,0.0,0.0,0.0,0.0,0.0,0.0,0.0,-1.7596,0.0,0.0,0.0,0.0,0.0,0.0,0.0,0.0,0.0,0.0,-2.3864,-2.3959,-2.3896,-2.3692,0.0,0.0,0.0,0.0,-2.2876,-2.2632,-2.2487,-2.2293,-2.1957,-2.1811,-2.1678,-2.134,0.0,0.0,-2.0827,-2.0509,-2.0254,-2.0115,-1.9904,-1.969,-1.9675,-1.9611,-1.9487,-1.9176,-1.9101,-1.9011,-1.8836,-1.8736,-1.8673,2.0385,0.0,0.0,0.0,0.0,2.0055,2.0003,2.0055,1.9991,2.0055,2.0003,1.9914,0.0,0.0,0.0,0.0,0.0,0.0,1.859,1.8429,1.8182,1.7975,1.7799,1.7446,1.7234,1.7045,1.6138,1.5468,1.505,1.4328,1.4121,1.4453,0.0,0.0,0.0,0.0,1.4294,1.4376,1.4479,1.4628,1.4709,1.4915,1.5297,1.5971,1.6494,1.6972,1.7451,1.7785,1.8204,1.8726,1.8517,0.0,0.0,0.0,0.0,0.0,0.0,0.0,0.0,0.0,0.0,0.0,0.0,0.0,0.0,0.0,0.0,0.0,0.0,0.0,-1.7575,-1.9295,-2.059,0.0,0.0,0.0,0.0,0.0,0.0,0.0,0.0,0.0,-2.2982,-2.3289,-2.3422,0.0,0.0,-2.3035,-2.2902,-2.2738,-2.2552,-2.2281,0.0,0.0,0.0,-2.1526,-2.1371,-2.1199,-2.0925,-2.0662,-2.046,-2.022,-2.0025,-1.9833,-1.9705,-1.956,-1.9339,-1.925,-1.9213,-1.9101,-1.8974,-1.8874,-1.8736,-1.8634,-1.8503,2.0228,2.0176,1.9858,1.9633,1.95,1.95,1.95,1.95,1.95,1.9448,1.9396,1.9303,1.9198,1.9081,1.8804,0.0,0.0,0.0,1.7897,1.7667,1.7423,1.7256,1.7123,1.6719,1.6409,1.6165,1.5211,1.456,1.4128,1.3333,1.3035,1.3266,0.0,0.0,1.3563,1.3515,1.3467,1.3467,1.3542,1.3579,1.3627,1.3909,1.4318,1.4858,1.5274,1.5616,1.5966,1.6311,1.6735,1.7137,1.6752,1.65,0.0,0.0,0.0,0.0,0.0,0.0,0.0,0.0,0.0,0.0,0.0,0.6043,0.0,0.0,0.0,0.0,-1.244,-1.6447,-1.9507,-2.0082,0.0,0.0,0.0,0.0,0.0,0.0,0.0,-2.213,-2.2147,-2.2209,-2.2281,-2.251,-2.2712,-2.2868,-2.273,-2.2598,-2.248,0.0,-2.2175,-2.1928,-2.184,-2.1678,-2.145,-2.1294,-2.1119,-2.0893,-2.0628,-2.0357,-2.0185,-2.0025,-1.9812,-1.9632,-1.9472,-1.9339,-1.9093,-1.9003,-1.8927,-1.8927,-1.8798,-1.8644,-1.8581,-1.8464,-1.8347,1.9905,1.9572,1.9627,1.9383,1.8946,1.8934,1.8934,1.8946,1.8946,1.8839,1.8744,1.8744,1.8518,1.8224,1.7952,0.0,0.0,1.7479,1.7245,1.6888,1.6797,1.6637,1.6457,1.6046,1.5595,1.521,1.44,1.3705,1.3086,1.2629,1.2274,1.2076,1.2529,1.2774,1.2832,1.2725,1.2627,1.2627,1.2589,1.2511,1.2511,1.3016,1.3399,1.3674,1.3982,1.4215,1.4354,1.4812,1.5186,1.5419,1.4819,1.4555,1.4701,0.0,0.0,0.0,0.0,0.0,0.0,0.0,0.0,0.0,0.0,0.0,0.0,0.0,0.0,0.0,-1.6635,0.0,-1.9167,-2.0137,0.0,0.0,0.0,-2.1491,-2.1415,-2.1415,-2.1446,-2.1507,0.0,0.0,0.0,0.0,-2.1827,-2.2315,-2.2254,-2.2108,-2.2051,-2.194,-2.1781,-2.1573,-2.1542,-2.1466,-2.1119,-2.1023,-2.086,-2.0527,-2.0357,-2.0166,-1.999,-1.9762,-1.9581,-1.9413,-1.9213,-1.904,-1.8993,-1.8788,-1.8673,-1.8673,-1.8542,-1.845,-1.8333,-1.8254,-1.8189,1.9849,1.9448,1.907,1.8714,1.8302,1.8302,1.8302,1.8302,1.829,1.8247,1.8127,1.7975,1.7822,1.7545,1.72,1.7032,1.6987,1.6694,1.6446,1.6151,1.6161,1.5921,1.57,1.5371,1.5032,1.4598,1.3855,1.3183,1.2654,1.2117,1.1819,1.1678,1.1669,1.1868,1.2283,1.2175,1.2085,1.2067,1.1968,1.1909,1.1909,1.2116,1.2304,1.2414,1.2696,1.2986,1.3178,1.3474,1.3805,1.4064,1.3595,1.328,1.3197,1.2581,0.0,0.0,0.0,0.0,0.0,0.0,0.0,0.0,0.0,-0.2358,-0.5596,0.0,-1.5575,0.0,-1.7373,-1.8621,-1.9552,-1.9798,0.0,0.0,-2.0589,-2.0601,-2.0567,-2.0648,-2.0681,-2.0764,-2.0812,-2.0926,-2.1087,-2.1087,-2.115,-2.1354,-2.1538,-2.1628,-2.1584,-2.157,-2.1448,-2.1246,-2.123,-2.1135,-2.0859,-2.061,-2.0423,-2.0166,-1.9975,-1.9797,-1.972,-1.945,-1.9213,-1.9176,-1.9026,-1.8836,-1.8634,-1.8556,-1.8478,-1.8347,-1.8347,-1.8333,-1.8214,-1.8135,-1.8042,1.9382,1.8934,1.8454,1.8013,1.7619,1.7679,1.7689,1.7689,1.7689,1.759,1.7412,1.7134,1.6976,1.6864,1.6513,1.641,1.64,1.6056,1.5768,1.5478,1.5478,1.5303,1.5001,1.4784,1.4359,1.3728,1.3222,1.26,1.1903,1.1573,1.1377,1.1226,1.1124,1.1175,1.1477,1.1528,1.1519,1.1519,1.1377,1.1276,1.1267,1.1326,1.1418,1.1493,1.1692,1.1891,1.2039,1.2267,1.2453,1.2628,1.227,1.2077,1.1955,1.14,1.0964,0.0,0.0,0.0,0.0,0.0,0.0,0.0,0.0,0.0,0.0,0.0,-1.5874,0.0,-1.7457,0.0,-1.8893,-1.9159,-1.9459,-1.9858,-1.9763,-1.9722,-1.9773,-1.9894,-1.9965,-2.0,-2.0139,-2.0277,-2.0379,-2.0462,-2.0512,-2.0545,-2.073,-2.0926,-2.1135,-2.1135,-2.1023,-2.086,-2.0794,-2.0695,-2.0441,-2.02,-2.001,-1.9863,-1.9669,-1.9523,-1.9413,-1.9191,-1.9003,-1.8889,-1.8721,-1.8606,-1.8386,-1.8361,-1.8321,-1.8189,-1.8095,-1.8135,-1.8095,-1.8016,-1.7935,1.8792,1.84,1.7915,1.7461,1.7038,1.7094,1.7076,1.7078,1.7088,1.6909,1.6694,1.6353,1.6239,1.6181,1.5941,1.5816,1.5758,1.5468,1.5186,1.4911,1.4843,1.4725,1.4419,1.4181,1.3629,1.2882,1.2645,1.2029,1.1099,1.104,1.0964,1.082,1.0667,1.0616,1.0616,1.082,1.0972,1.0964,1.0718,1.0616,1.0616,1.0616,1.0667,1.0761,1.0871,1.0964,1.0964,1.1133,1.1216,1.1208,1.1045,1.0941,1.0889,1.0326,0.9947,0.0,0.8737,0.0,0.0,0.0,0.0,0.0,0.0,0.0,0.0,-1.2672,-1.4443,-1.5787,-1.7027,-1.7741,-1.7782,-1.8309,-1.8712,-1.8774,-1.8765,-1.8793,-1.8936,-1.9109,-1.9244,-1.9281,-1.9515,-1.9645,-1.9717,-1.9818,-1.9884,-1.9919,-1.9955,-2.015,-2.0563,-2.0628,-2.0577,-2.041,-2.0342,-2.0204,-1.999,-1.9848,-1.969,-1.9538,-1.9428,-1.9265,-1.9064,-1.8979,-1.8841,-1.8556,-1.8478,-1.84,-1.8202,-1.8163,-1.8109,-1.7962,-1.7895,-1.7868,-1.7935,-1.7895,-1.7828,1.8556,1.8455,1.8021,1.7577,1.7133,1.6678,1.6451,1.6457,1.6457,1.64,1.6228,1.5961,1.5788,1.5788,1.5498,1.5254,1.5137,1.4951,1.4656,1.4378,1.4249,1.413,1.395,1.3571,1.3229,1.2736,1.2318,1.1784,1.1157,1.0813,1.0522,1.0419,1.0205,1.0102,1.0154,0.0,0.0,0.0,1.0154,1.0154,1.0154,1.0102,1.011,1.0007,1.0154,0.0,1.0079,1.0167,1.0261,1.0261,1.0097,0.0,0.0,0.0,0.0,0.0,0.0,0.0,0.0,0.0,0.0,0.0,-0.2778,-0.537,-0.8494,-1.1405,-1.3779,-1.5351,-1.5945,-1.6441,-1.7022,-1.7397,-1.7585,-1.7612,-1.7814,-1.7948,-1.8028,-1.8238,-1.8419,-1.8655,-1.8769,-1.8921,-1.9161,-1.925,-1.9339,-1.945,-1.9523,-1.9545,-1.969,-1.994,-2.008,-1.9945,-1.9889,-1.9747,-1.956,-1.9472,-1.9391,-1.9182,-1.9107,-1.8979,-1.8812,-1.8659,-1.8542,-1.8372,-1.8293,-1.8202,-1.8003,-1.7963,-1.7868,-1.7639,-1.7598,-1.7611,-1.7747,-1.7652,-1.757,1.8018,0.0,1.7549,1.7119,0.0,1.6189,1.583,1.5662,1.5826,1.5768,1.5652,1.5439,1.5323,1.5196,1.4961,1.4784,1.4616,1.4359,1.4121,1.3821,1.37,1.358,1.3415,1.3164,1.2792,1.2364,1.189,1.1368,1.0879,1.0428,1.0213,1.0162,0.9999,0.9888,0.9777,0.9681,0.9681,0.9777,0.9829,0.9725,0.9577,0.9629,0.9577,0.9532,0.0,0.0,0.0,0.0,0.0,0.0,0.0,0.0,0.0,0.0,0.0,0.7621,0.674,0.5717,0.4607,0.3081,0.13,-0.0599,-0.3079,-0.5751,-0.8598,-1.0964,-1.2796,-1.4047,-1.4756,-1.5372,-1.5842,-1.6176,-1.6416,-1.6544,-1.6769,-1.698,-1.7131,-1.7325,-1.7558,-1.7828,-1.8042,-1.824,-1.8422,-1.8567,-1.8721,-1.8822,-1.886,-1.8874,-1.8988,-1.931,-1.9566,-1.9493,-1.942,-1.9362,-1.9228,-1.9153,-1.904,-1.8865,-1.8736,-1.8606,-1.8528,-1.8425,-1.8321,-1.8149,-1.8069,-1.7963,-1.7774,-1.7693,-1.7652,-1.7529,-1.7488,-1.7474,-1.7515,-1.7543,-1.7475,1.7461,1.7442,1.7091,1.6646,1.6163,1.577,1.5294,1.4852,0.0,0.0,0.0,1.4911,1.4784,1.4597,1.4469,1.4291,1.4061,1.383,1.364,1.339,1.3268,1.3094,1.2928,1.2797,1.2461,1.198,1.1526,1.1071,1.0584,1.0196,0.9948,0.9895,0.974,0.9629,0.951,0.9309,0.9309,0.9465,0.9503,0.9413,0.9204,0.9204,0.9159,0.9159,0.9113,0.9061,0.8903,0.8903,0.885,0.8699,0.858,0.8468,0.8415,0.7984,0.7605,0.7272,0.6202,0.5161,0.4204,0.2704,0.1024,-0.0819,-0.3503,-0.6222,-0.895,-1.0466,-1.1677,-1.2528,-1.3552,-1.425,-1.4538,-1.4915,-1.5242,-1.5478,-1.5732,-1.5952,-1.625,-1.6466,-1.6697,-1.6964,-1.7297,-1.7544,-1.7666,-1.7882,-1.8069,-1.8161,-1.8201,-1.8201,-1.8372,-1.8784,-1.9072,-1.9026,-1.8988,-1.895,-1.8889,-1.8798,-1.8683,-1.8581,-1.8411,-1.8266,-1.824,-1.8175,-1.8043,-1.7868,-1.7828,-1.7747,-1.7529,-1.7488,-1.7475,-1.7488,-1.7419,-1.735,-1.735,-1.7406,-1.7406,1.7461,1.7461,1.7404,1.6921,1.6182,1.5817,1.5113,1.4207,1.4597,1.4765,1.4775,1.4419,1.4309,1.4249,1.413,1.3881,1.3623,1.3571,1.3398,0.0,1.292,1.2797,1.2621,1.2428,1.2282,1.2089,1.163,1.1236,1.0741,1.0302,0.9899,0.9501,0.9368,0.9263,0.9263,0.9211,0.9159,0.9113,0.9211,0.9263,0.9204,0.9204,0.9113,0.8857,0.8857,0.8745,0.848,0.8474,0.8427,0.8275,0.8109,0.7895,0.7676,0.7246,0.6869,0.6426,0.5642,0.4754,0.3765,0.2538,0.0605,-0.2146,-0.3727,-0.5527,-0.789,-0.9156,-1.0295,-1.1465,-1.226,-1.2851,-1.3246,-1.3711,-1.4143,-1.4387,-1.4709,-1.5073,-1.5389,-1.5623,-1.5876,-1.6213,-1.6484,-1.6808,-1.7047,-1.7227,-1.7406,-1.7557,-1.7639,-1.7666,-1.7841,-1.8254,-1.8581,-1.8581,-1.8595,-1.8542,-1.845,-1.8383,-1.8333,-1.8268,-1.8121,-1.8002,-1.7989,-1.7868,-1.7747,-1.7557,-1.7557,-1.7488,-1.7432,-1.7391,-1.7337,-1.7282,-1.7199,-1.7212,-1.7212,-1.724,-1.724,1.6839,1.6839,1.683,1.6483,1.5898,1.5359,1.4666,1.4028,1.4121,1.424,1.43,1.4189,1.401,1.3821,1.3761,1.358,1.3216,1.3164,1.2972,1.2797,1.2613,1.2436,1.2305,1.2127,1.1996,1.1911,1.1398,1.0989,1.0755,1.0185,0.976,0.9564,0.9249,0.9106,0.9061,0.9008,0.8962,0.8903,0.9008,0.9061,0.8956,0.8896,0.8844,0.8692,0.8639,0.848,0.8321,0.8168,0.8055,0.7949,0.7622,0.7408,0.73,0.682,0.6332,0.5991,0.5289,0.4463,0.3574,0.1845,0.0056,-0.1788,-0.3118,-0.4464,-0.6039,-0.7701,-0.911,-1.0222,-1.0906,-1.1516,-1.1963,-1.2502,-1.2938,-1.3294,-1.3721,-1.4097,-1.4479,-1.4766,-1.5085,-1.5421,-1.5744,-1.6008,-1.6312,-1.6582,-1.6752,-1.6934,-1.7102,-1.7256,-1.7284,-1.7598,-1.7895,-1.8123,-1.8163,-1.8149,-1.8095,-1.8016,-1.7989,-1.7922,-1.7814,-1.772,-1.7693,-1.7611,-1.7529,-1.7365,-1.7323,-1.7282,-1.7183,-1.7141,-1.7099,-1.7057,-1.7031,-1.7031,-1.7044,-1.7031,-1.7115,1.6272,1.6272,1.6272,1.5998,1.5495,1.4778,1.4259,1.3847,1.3709,1.3649,1.3769,1.383,1.3649,1.339,1.3398,1.3216,1.2989,1.2805,1.2683,1.2498,1.2313,1.2182,1.1996,1.1872,1.1747,1.1648,1.1175,1.0842,1.0721,1.0164,0.975,0.9556,0.9152,0.8956,0.8956,0.8857,0.8804,0.8804,0.885,0.885,0.8752,0.8633,0.8573,0.8527,0.8427,0.8268,0.8115,0.7955,0.7788,0.767,0.7295,0.709,0.6977,0.644,0.6,0.5668,0.5014,0.4187,0.3132,0.1287,-0.0224,-0.1174,-0.2343,-0.3456,-0.4446,-0.6122,-0.7735,-0.8849,-0.9636,-1.0261,-1.0762,-1.1308,-1.1814,-1.2267,-1.2716,-1.316,-1.3484,-1.3884,-1.428,-1.4582,-1.4937,-1.5266,-1.5522,-1.5832,-1.6095,-1.6281,-1.6582,-1.674,-1.6837,-1.6934,-1.7157,-1.7461,-1.7666,-1.7747,-1.7747,-1.7679,-1.7584,-1.7584,-1.7488,-1.7406,-1.7365,-1.7365,-1.7323,-1.7157,-1.7128,-1.7086,-1.6973,-1.6931,-1.6931,-1.6931,-1.6931,-1.6931,-1.6931,-1.696,-1.7002,1.6272,1.6272,1.6272,1.5771,1.4946,1.44,1.3896,1.3388,1.3172,1.305,1.3172,1.3302,1.3233,1.305,1.3042,1.2928,1.2805,1.2683,1.2498,1.2305,1.2182,1.1996,1.1864,1.1802,1.1622,1.1365,1.126,1.1034,1.0625,1.0414,0.9935,0.9321,0.8951,0.8811,0.8811,0.8811,0.8804,0.8804,0.8685,0.8626,0.8626,0.8626,0.8474,0.8215,0.8221,0.8115,0.7955,0.7788,0.7676,0.7515,0.7252,0.6977,0.6761,0.6273,0.5832,0.5391,0.4791,0.3849,0.2294,0.1232,0.0168,-0.0841,-0.1792,-0.2683,-0.3624,-0.4618,-0.5928,-0.7374,-0.8448,-0.9138,-0.971,-1.0261,-1.0771,-1.1325,-1.1792,-1.2206,-1.2667,-1.3054,-1.3409,-1.3658,-1.4176,-1.4547,-1.4801,-1.5073,-1.5367,-1.5668,-1.5944,-1.6151,-1.6262,-1.6337,-1.6454,-1.668,-1.6989,-1.724,-1.724,-1.724,-1.7253,-1.7253,-1.7157,-1.7073,-1.7086,-1.7044,-1.696,-1.696,-1.6918,-1.6918,-1.6876,-1.6888,-1.6876,-1.6846,-1.6833,-1.6876,-1.6888,-1.6888,-1.6931,1.578,1.563,1.563,1.5197,1.4404,1.4219,1.3705,1.3136,1.3042,1.2989,1.2867,1.2997,1.2989,1.2858,1.2867,1.2744,1.249,1.2436,1.2305,1.1996,1.1934,1.1872,1.1685,1.1685,1.156,1.1303,1.1247,1.0996,1.0739,1.0384,0.9966,0.9512,0.9205,0.9065,0.9045,0.8891,0.8752,0.8685,0.8626,0.8521,0.8374,0.8374,0.8321,0.8221,0.8062,0.7949,0.7783,0.7622,0.7521,0.7365,0.7031,0.6761,0.6544,0.6114,0.5673,0.5175,0.4349,0.3408,0.2352,0.1457,0.0561,-0.0336,-0.1175,-0.2012,-0.2907,-0.3741,-0.4725,-0.5756,-0.7106,-0.8143,-0.8837,-0.9354,-0.9909,-1.0415,-1.0939,-1.146,-1.1909,-1.2295,-1.2647,-1.2987,-1.342,-1.3789,-1.4071,-1.4408,-1.4789,-1.5142,-1.5367,-1.5546,-1.5736,-1.5856,-1.5944,-1.6088,-1.6293,-1.6552,-1.6723,-1.6863,-1.6876,-1.6918,-1.6918,-1.696,-1.6918,-1.6918,-1.6876,-1.6791,-1.6761,-1.6705,-1.6663,-1.6663,-1.665,-1.6663,-1.6663,-1.6705,-1.6748,-1.6803,-1.6803,1.5346,1.5204,1.5196,1.4849,1.4288,1.4106,1.3704,1.3091,1.2969,1.2797,1.2744,1.2683,1.2683,1.2683,1.2674,1.2552,1.2305,1.2182,1.205,1.1802,1.1747,1.1685,1.1622,1.156,1.1435,1.1247,1.1122,1.0933,1.071,1.0322,1.0007,0.978,0.9506,0.9309,0.9227,0.9029,0.8836,0.8704,0.8644,0.8444,0.8234,0.8168,0.8115,0.8115,0.7955,0.7842,0.7723,0.7568,0.7413,0.7311,0.6928,0.6598,0.6386,0.6009,0.5572,0.4963,0.4024,0.319,0.2521,0.1681,0.0896,0.0168,-0.0672,-0.1454,-0.2183,-0.3019,-0.3738,-0.4508,-0.576,-0.6902,-0.7877,-0.8514,-0.904,-0.9555,-1.0123,-1.0592,-1.1006,-1.146,-1.1868,-1.2264,-1.2696,-1.3074,-1.3457,-1.3905,-1.4269,-1.4593,-1.4789,-1.4971,-1.5198,-1.5322,-1.5412,-1.5558,-1.5736,-1.5957,-1.6306,-1.6491,-1.6547,-1.659,-1.6633,-1.6663,-1.6705,-1.6705,-1.6718,-1.6491,-1.6547,-1.6547,-1.6448,-1.6436,-1.6436,-1.6479,-1.6479,-1.6534,-1.662,-1.662,-1.662,1.5196,1.5196,1.5196,1.4981,1.4635,1.4138,1.3664,1.3195,1.2827,1.2621,1.256,1.2436,1.2297,1.2305,1.2305,1.2305,1.2243,1.1988,1.1864,1.174,1.1685,1.1622,1.1622,1.1435,1.1247,1.1122,1.0933,1.0744,1.0604,1.0274,1.0114,1.008,0.9806,0.9601,0.9421,0.9382,0.9144,0.885,0.8719,0.8496,0.8224,0.8026,0.7973,0.7973,0.7901,0.7842,0.7729,0.7568,0.7419,0.7311,0.6928,0.6593,0.6386,0.6005,0.5403,0.4629,0.3968,0.3249,0.2575,0.1903,0.1231,0.0448,-0.028,-0.1008,-0.1623,-0.235,-0.3077,-0.3796,-0.4508,-0.5487,-0.674,-0.7551,-0.8137,-0.862,-0.9145,-0.9614,-1.0072,-1.0592,-1.1065,-1.1528,-1.2026,-1.2559,-1.3122,-1.3467,-1.3705,-1.3999,-1.414,-1.4362,-1.4651,-1.4754,-1.4891,-1.5119,-1.53,-1.548,-1.5901,-1.6132,-1.62,-1.6244,-1.6244,-1.6244,-1.6244,-1.6231,-1.6231,-1.6231,-1.6287,-1.6287,-1.6244,-1.6244,-1.6331,-1.6362,-1.6392,-1.6448,-1.6491,-1.6479,-1.6479,1.4927,1.4848,1.4856,1.4646,1.43,1.387,1.3386,1.2932,1.2586,1.2375,1.2251,1.2189,1.2182,1.2182,1.2058,1.1988,1.1934,1.1864,1.174,1.1685,1.1622,1.1622,1.156,1.1435,1.124,1.1122,1.087,1.0744,1.0618,1.0448,1.0401,1.0354,1.0107,0.9907,0.9695,0.9538,0.9215,0.8953,0.8883,0.8775,0.8488,0.8293,0.8147,0.8141,0.7985,0.7788,0.7568,0.7521,0.7359,0.7041,0.6815,0.6539,0.6109,0.5559,0.5014,0.4519,0.3913,0.3304,0.2689,0.2128,0.1511,0.0785,0.0224,-0.0449,-0.112,-0.1736,-0.2406,-0.3077,-0.3741,-0.4563,-0.5382,-0.6416,-0.7283,-0.7871,-0.8408,-0.8942,-0.9406,-0.9873,-1.0336,-1.0913,-1.1528,-1.2116,-1.2501,-1.2803,-1.3045,-1.3409,-1.3505,-1.3752,-1.414,-1.4244,-1.4384,-1.4708,-1.4846,-1.4971,-1.5232,-1.5647,-1.5881,-1.5893,-1.5937,-1.5937,-1.5925,-1.6001,-1.6044,-1.6057,-1.61,-1.6113,-1.6113,-1.61,-1.6188,-1.6231,-1.6275,-1.6275,-1.6318,-1.6362,-1.6362,1.4569,1.4425,1.4418,1.4292,1.4026,1.3648,1.3267,1.2879,1.2445,1.2182,1.212,1.2003,1.1996,1.1996,1.1809,1.174,1.174,1.174,1.1685,1.1622,1.1622,1.1622,1.156,1.1373,1.1185,1.1059,1.087,1.0681,1.0624,1.0618,1.0618,1.0598,1.0279,1.0076,0.992,0.9637,0.9389,0.9069,0.9038,0.8948,0.8727,0.8507,0.8369,0.8279,0.8068,0.7823,0.7526,0.7521,0.7306,0.6933,0.6766,0.6431,0.595,0.5289,0.4791,0.4463,0.3968,0.3413,0.28,0.2296,0.1736,0.1066,0.0561,-0.0056,-0.0673,-0.1288,-0.1903,-0.2519,-0.3132,-0.3796,-0.4457,-0.5386,-0.6317,-0.7015,-0.7664,-0.8249,-0.8725,-0.9197,-0.9762,-1.0454,-1.1074,-1.1578,-1.1977,-1.2184,-1.2471,-1.29,-1.2977,-1.318,-1.3621,-1.3763,-1.3858,-1.4244,-1.4384,-1.4512,-1.4731,-1.5051,-1.5435,-1.5525,-1.5582,-1.5614,-1.5703,-1.578,-1.5812,-1.5869,-1.5925,-1.5981,-1.5981,-1.6013,-1.6057,-1.6057,-1.61,-1.6132,-1.6188,-1.6231,-1.6212,1.4129,1.4137,1.4137,1.4114,1.4007,1.3447,1.3088,1.2935,1.2363,1.2096,1.2011,1.1872,1.1809,1.174,1.1685,1.1622,1.1622,1.1622,1.1622,1.1622,1.1622,1.1622,1.156,1.1247,1.1059,1.1066,1.0751,1.0618,1.0618,1.0618,1.0618,1.0561,1.0415,1.0186,1.0034,0.985,0.9556,0.9248,0.9138,0.9023,0.8782,0.8699,0.8585,0.8375,0.8202,0.7961,0.7555,0.7526,0.7306,0.6933,0.6766,0.6436,0.5845,0.5234,0.4791,0.4515,0.4076,0.3519,0.2963,0.2462,0.1961,0.1346,0.0785,0.0224,-0.0336,-0.0898,-0.1514,-0.2073,-0.2685,-0.3294,-0.3796,-0.4408,-0.5234,-0.6218,-0.6912,-0.7444,-0.7931,-0.8461,-0.9152,-0.9991,-1.0608,-1.1023,-1.1368,-1.1619,-1.1927,-1.2323,-1.2471,-1.2657,-1.3084,-1.3228,-1.3362,-1.3716,-1.3905,-1.4035,-1.4222,-1.4419,-1.4789,-1.5119,-1.521,-1.53,-1.539,-1.5468,-1.5457,-1.5501,-1.5558,-1.5659,-1.5736,-1.5736,-1.5792,-1.5836,-1.5925,-1.5957,-1.5957,-1.6025,-1.6142,1.4137,1.4137,1.4137,1.4137,1.4011,1.3592,1.3233,1.2833,1.239,1.2089,1.1777,1.1685,1.1685,1.1622,1.1622,1.1622,1.1622,1.1622,1.1622,1.156,1.1622,1.1622,1.1498,1.1254,1.0996,1.0744,1.0688,1.0618,1.0618,1.0618,1.0618,1.0555,1.0428,1.018,0.9989,0.9856,0.9679,0.9427,0.9352,0.9304,0.9214,0.904,0.8963,0.8819,0.8545,0.8212,0.7783,0.7503,0.7149,0.6766,0.6707,0.644,0.5845,0.5234,0.4849,0.4629,0.4132,0.3574,0.3074,0.2629,0.2186,0.1684,0.1178,0.0673,0.0168,-0.0393,-0.0954,-0.1569,-0.2127,-0.2685,-0.3241,-0.3796,-0.4515,-0.55,-0.615,-0.6804,-0.7343,-0.8143,-0.8837,-0.9413,-0.9873,-1.0285,-1.0702,-1.0964,-1.1368,-1.1828,-1.1977,-1.2166,-1.2569,-1.2754,-1.29,-1.3276,-1.342,-1.3563,-1.381,-1.3999,-1.4222,-1.4558,-1.48,-1.4983,-1.5074,-1.5108,-1.5096,-1.5187,-1.5244,-1.5334,-1.5424,-1.5501,-1.5558,-1.557,-1.5647,-1.5691,-1.5736,-1.5816,-1.5965,1.396,1.3928,1.3848,1.3848,1.381,1.3502,1.3102,1.2639,1.2313,1.1981,1.1667,1.1622,1.1622,1.1622,1.1622,1.156,1.1498,1.1498,1.1498,1.1435,1.156,1.156,1.1435,1.1122,1.0877,1.0618,1.0618,1.0618,1.0618,1.0618,1.0618,1.0561,1.0308,1.011,0.9989,0.9798,0.9612,0.9478,0.9478,0.9478,0.9448,0.931,0.9172,0.9058,0.8739,0.841,0.8046,0.7577,0.7127,0.6727,0.649,0.6168,0.5795,0.5234,0.4846,0.4632,0.4187,0.3688,0.3244,0.2854,0.2408,0.1906,0.1458,0.0954,0.0449,-0.0056,-0.0561,-0.1178,-0.1737,-0.2294,-0.2798,-0.3355,-0.4018,-0.4732,-0.5441,-0.6204,-0.6972,-0.783,-0.8468,-0.889,-0.9302,-0.9666,-1.0035,-1.0352,-1.0761,-1.1267,-1.1477,-1.1628,-1.2076,-1.2274,-1.2559,-1.2842,-1.2997,-1.319,-1.343,-1.3573,-1.3658,-1.3988,-1.428,-1.4569,-1.4765,-1.48,-1.4834,-1.4937,-1.504,-1.504,-1.5119,-1.5244,-1.5334,-1.5367,-1.5424,-1.5558,-1.5603,-1.5603,-1.5754,1.3792,1.3506,1.3492,1.3492,1.3528,1.3184,1.2862,1.2504,1.2219,1.1897,1.1619,1.156,1.156,1.1553,1.1498,1.1435,1.1303,1.1303,1.1247,1.1247,1.1373,1.1435,1.1247,1.0996,1.0744,1.0618,1.0618,1.0618,1.0618,1.0618,1.0618,1.0555,1.0244,0.9989,0.9926,0.9676,0.9478,0.9478,0.9478,0.9478,0.9478,0.9472,0.9358,0.9124,0.886,0.8621,0.8249,0.7679,0.7149,0.6688,0.6173,0.5845,0.5681,0.5234,0.4846,0.4743,0.4245,0.3858,0.3469,0.3074,0.2629,0.2073,0.1626,0.1066,0.0561,0.0168,-0.0393,-0.0954,-0.1456,-0.1959,-0.2464,-0.2968,-0.3522,-0.4021,-0.4952,-0.5878,-0.6864,-0.7509,-0.7937,-0.8315,-0.8791,-0.9256,-0.951,-0.9777,-1.0198,-1.0718,-1.0922,-1.1217,-1.1578,-1.1877,-1.2126,-1.2372,-1.251,-1.2764,-1.3007,-1.3152,-1.3286,-1.3478,-1.381,-1.4057,-1.4395,-1.4477,-1.4569,-1.4662,-1.4776,-1.4776,-1.4857,-1.5028,-1.5119,-1.5119,-1.521,-1.5435,-1.5504,-1.5494,-1.5845,1.3792,1.3506,1.3492,1.3492,1.3484,1.3389,1.3038,1.2555,1.2311,1.1876,1.1466,1.1247,1.1254,1.1247,1.1247,1.1185,1.1185,1.1185,1.1129,1.1129,1.1185,1.1122,1.0996,1.087,1.0744,1.0624,1.0618,1.0618,1.0618,1.0618,1.0618,1.0618,1.0174,0.9989,0.9989,0.9676,0.9484,0.9478,0.9478,0.9478,0.9478,0.9478,0.9448,0.9249,0.9041,0.8731,0.836,0.7549,0.7002,0.6673,0.6119,0.5791,0.5736,0.5234,0.4901,0.4791,0.4298,0.391,0.363,0.3183,0.274,0.2408,0.1908,0.1459,0.0954,0.0505,0.0,-0.0505,-0.1009,-0.1513,-0.2073,-0.2519,-0.3077,-0.3965,-0.4846,-0.5668,-0.6322,-0.6869,-0.7306,-0.7729,-0.8162,-0.8633,-0.8988,-0.9256,-0.9629,-1.0095,-1.0403,-1.0608,-1.1015,-1.1377,-1.1678,-1.1868,-1.2067,-1.2323,-1.2578,-1.2725,-1.292,-1.3055,-1.3296,-1.3488,-1.3821,-1.4104,-1.4197,-1.428,-1.4441,-1.4534,-1.4627,-1.4811,-1.4811,-1.4857,-1.4949,-1.5085,-1.5257,-1.5337,-1.5962,1.3679,1.3379,1.3323,1.3273,1.3273,1.3273,1.2978,1.2484,1.223,1.1909,1.1425,1.1171,1.1129,1.1129,1.1129,1.1059,1.0996,1.0996,1.0933,1.087,1.087,1.087,1.0807,1.0744,1.0688,1.0624,1.0618,1.0618,1.0618,1.0618,1.0618,1.0498,1.0174,0.9989,0.9983,0.967,0.9478,0.9478,0.9478,0.9478,0.9478,0.9478,0.9408,0.9274,0.9075,0.8775,0.8269,0.7647,0.7133,0.6804,0.6225,0.5845,0.5736,0.5348,0.5014,0.4901,0.4408,0.4021,0.3741,0.3297,0.2852,0.2575,0.2188,0.1682,0.1234,0.0841,0.0393,-0.0168,-0.0617,-0.1065,-0.1681,-0.2296,-0.2965,-0.3688,-0.4519,-0.5289,-0.5887,-0.6322,-0.6761,-0.7198,-0.7628,-0.8055,-0.8468,-0.8784,-0.9152,-0.9577,-0.994,-1.0198,-1.0506,-1.0863,-1.1124,-1.1318,-1.1619,-1.1927,-1.2126,-1.2274,-1.248,-1.2666,-1.291,-1.3055,-1.3392,-1.3726,-1.3915,-1.3999,-1.415,-1.4244,-1.4384,-1.4488,-1.4534,-1.4581,-1.4673,-1.481,-1.5003,-1.5378,-1.5998,1.3557,1.3244,1.3026,1.29,1.29,1.2893,1.2711,1.2403,1.2102,1.1794,1.1407,1.1121,1.1003,1.1059,1.0996,1.094,1.0807,1.08,1.0744,1.0681,1.0624,1.0688,1.0744,1.0688,1.0624,1.0618,1.0618,1.0618,1.0618,1.0618,1.0618,1.0498,1.0174,1.0047,0.9926,0.967,0.9478,0.9478,0.9478,0.9478,0.9478,0.9478,0.9344,0.921,0.9017,0.874,0.8258,0.7876,0.7522,0.7087,0.6379,0.6,0.5817,0.5462,0.5183,0.4904,0.4519,0.4132,0.3852,0.3411,0.3021,0.2742,0.2296,0.1849,0.1402,0.1066,0.0673,0.0112,-0.0224,-0.0729,-0.1401,-0.2238,-0.2852,-0.3355,-0.3858,-0.4522,-0.5289,-0.5828,-0.6317,-0.6766,-0.7144,-0.7628,-0.8002,-0.8368,-0.8626,-0.9054,-0.9368,-0.9681,-0.9991,-1.0352,-1.0616,-1.0769,-1.1124,-1.1477,-1.1678,-1.1828,-1.2076,-1.2283,-1.2529,-1.2764,-1.3045,-1.3334,-1.3583,-1.3773,-1.381,-1.3905,-1.401,-1.4104,-1.4244,-1.4337,-1.4395,-1.4578,-1.4829,-1.5378,-1.5957,1.3628,1.3251,1.3019,1.29,1.29,1.2893,1.2725,1.2353,1.1978,1.1627,1.1238,1.088,1.0758,1.0758,1.0744,1.0681,1.0681,1.0618,1.0618,1.0618,1.0618,1.0624,1.0618,1.0624,1.0618,1.0618,1.0618,1.0618,1.0618,1.0618,1.0618,1.0555,1.0238,0.9989,0.9919,0.967,0.9478,0.9478,0.9478,0.9478,0.9478,0.9408,0.928,0.9081,0.8765,0.8619,0.835,0.7944,0.768,0.739,0.6754,0.6154,0.5852,0.5525,0.5183,0.4901,0.4625,0.4298,0.3968,0.3635,0.3302,0.2852,0.2575,0.2186,0.174,0.129,0.0841,0.0393,-0.0056,-0.0561,-0.1402,-0.2017,-0.2517,-0.2963,-0.3469,-0.3916,-0.4522,-0.5238,-0.5841,-0.6218,-0.6598,-0.7025,-0.7456,-0.7777,-0.8096,-0.8527,-0.8844,-0.9159,-0.9524,-0.9895,-1.0102,-1.0308,-1.0616,-1.1023,-1.1226,-1.1418,-1.1728,-1.1927,-1.2175,-1.2372,-1.2657,-1.289,-1.3142,-1.3334,-1.3467,-1.3563,-1.3668,-1.3763,-1.3905,-1.401,-1.4183,-1.4417,-1.4777,-1.5307,-1.5857,1.342,1.3229,1.2791,1.2599,1.2599,1.2599,1.251,1.2319,1.1975,1.1607,1.131,1.0889,1.0695,1.0568,1.0618,1.0618,1.0618,1.0618,1.0618,1.0618,1.0618,1.0618,1.0618,1.0618,1.0618,1.0618,1.0618,1.0618,1.0618,1.0555,1.0561,1.0434,1.011,0.9989,0.9862,0.9612,0.9478,0.9478,0.9478,0.9478,0.9478,0.9344,0.9151,0.8958,0.8641,0.8517,0.849,0.8084,0.7833,0.7571,0.7007,0.6393,0.5958,0.5673,0.5352,0.4956,0.4739,0.4408,0.4079,0.3749,0.3416,0.3019,0.2687,0.2298,0.1906,0.1458,0.101,0.0617,0.0168,-0.0393,-0.1234,-0.1796,-0.2184,-0.2629,-0.3077,-0.3524,-0.3968,-0.4688,-0.5348,-0.5727,-0.6159,-0.6539,-0.6918,-0.7241,-0.7616,-0.8043,-0.8474,-0.8791,-0.9061,-0.9427,-0.9629,-0.9888,-1.0205,-1.0514,-1.0769,-1.1074,-1.1427,-1.1628,-1.1778,-1.1977,-1.2166,-1.2412,-1.2657,-1.29,-1.3142,-1.3276,-1.3382,-1.3525,-1.3621,-1.3763,-1.3942,-1.4259,-1.4654,-1.52,-1.5756,1.3206,1.316,1.2552,1.2305,1.2305,1.2305,1.2298,1.2251,1.1991,1.1703,1.1456,1.1149,1.0835,1.0732,1.0638,1.0624,1.0618,1.0618,1.0618,1.0618,1.0618,1.0618,1.0618,1.0618,1.0618,1.0618,1.0618,1.0618,1.0618,1.0561,1.0498,1.0308,1.0117,0.9926,0.9804,0.9612,0.9478,0.9478,0.9478,0.9478,0.9414,0.9338,0.9087,0.877,0.8582,0.8447,0.8382,0.8151,0.7896,0.7666,0.7182,0.6669,0.628,0.5901,0.5529,0.4967,0.4794,0.4519,0.4079,0.3802,0.3527,0.3132,0.2798,0.2408,0.2017,0.1626,0.1178,0.0785,0.0336,-0.028,-0.101,-0.1515,-0.1962,-0.2354,-0.2798,-0.319,-0.3583,-0.4138,-0.4743,-0.5348,-0.5727,-0.6055,-0.649,-0.6864,-0.7235,-0.761,-0.799,-0.8374,-0.8639,-0.8903,-0.9159,-0.942,-0.9688,-1.0102,-1.036,-1.0667,-1.1023,-1.1226,-1.1427,-1.1578,-1.1728,-1.1968,-1.2215,-1.2618,-1.2861,-1.2997,-1.3094,-1.319,-1.3334,-1.3478,-1.3676,-1.3948,-1.4461,-1.5014,-1.5658,1.3206,1.316,1.2559,1.2305,1.2305,1.2305,1.2305,1.2251,1.2011,1.1844,1.1724,1.1249,1.1009,1.0862,1.0648,1.0631,1.0631,1.0618,1.0618,1.0618,1.0618,1.0618,1.0618,1.0618,1.0555,1.0618,1.0555,1.0555,1.0555,1.0555,1.0434,1.0308,1.011,0.9926,0.974,0.9612,0.9478,0.9478,0.9478,0.9408,0.9338,0.9145,0.8888,0.8576,0.8517,0.8441,0.8242,0.8117,0.7907,0.7668,0.7194,0.6827,0.6481,0.6095,0.5539,0.506,0.4849,0.4625,0.4076,0.3968,0.3633,0.3241,0.2907,0.2573,0.2184,0.1794,0.1346,0.0897,0.0336,-0.0336,-0.0897,-0.1346,-0.1738,-0.2074,-0.2521,-0.2968,-0.3357,-0.3747,-0.4138,-0.4746,-0.5183,-0.5622,-0.6,-0.6431,-0.681,-0.7133,-0.7515,-0.7836,-0.8109,-0.8374,-0.8639,-0.8903,-0.9166,-0.9584,-0.9999,-1.0308,-1.0675,-1.0828,-1.1023,-1.1226,-1.1377,-1.1528,-1.1778,-1.2126,-1.248,-1.2666,-1.2764,-1.291,-1.3055,-1.3238,-1.3456,-1.3626,-1.4357,-1.5029,-1.5615,1.302,1.285,1.242,1.2146,1.2164,1.215,1.2224,1.2278,1.2158,1.2011,1.1824,1.1563,1.1263,1.1029,1.0868,1.0779,1.0595,1.0618,1.0618,1.0618,1.0618,1.0618,1.0555,1.0555,1.0498,1.0498,1.0434,1.0434,1.0434,1.0428,1.0308,1.0053,0.9926,0.9798,0.9676,0.9548,0.9478,0.9478,0.9408,0.9344,0.9268,0.9022,0.877,0.8576,0.8511,0.8376,0.8242,0.8047,0.7922,0.7642,0.7187,0.6889,0.6567,0.617,0.5589,0.5137,0.4957,0.4625,0.4132,0.3965,0.3688,0.3188,0.2963,0.2685,0.2296,0.185,0.1459,0.0897,0.0393,-0.028,-0.0785,-0.1122,-0.1458,-0.185,-0.2298,-0.2689,-0.3026,-0.336,-0.3749,-0.4193,-0.4688,-0.5128,-0.5567,-0.5946,-0.6327,-0.6707,-0.7085,-0.7359,-0.7628,-0.7895,-0.8209,-0.8586,-0.885,-0.9271,-0.9688,-0.9947,-1.0257,-1.0462,-1.0624,-1.082,-1.1023,-1.1175,-1.1377,-1.1628,-1.1977,-1.2323,-1.248,-1.2618,-1.2813,-1.2958,-1.3125,-1.3421,-1.4266,-1.4983,-1.5546,1.2826,1.2546,1.2266,1.2049,1.1955,1.1929,1.2003,1.2157,1.2144,1.2025,1.1899,1.1786,1.1451,1.1101,1.0896,1.0731,1.0578,1.0481,1.0428,1.0428,1.0428,1.0428,1.0434,1.0434,1.0371,1.0238,1.0238,1.0244,1.0244,1.0244,1.0053,0.9926,0.9804,0.9676,0.9548,0.9478,0.9478,0.9408,0.9338,0.9274,0.9145,0.8894,0.8641,0.8511,0.8447,0.8312,0.8177,0.7982,0.7792,0.7531,0.7181,0.6807,0.6672,0.6168,0.5709,0.5336,0.5065,0.457,0.4187,0.4021,0.3744,0.3186,0.3019,0.2685,0.224,0.185,0.1403,0.0785,0.028,-0.0112,-0.0561,-0.0897,-0.129,-0.1684,-0.213,-0.2465,-0.2802,-0.3137,-0.3416,-0.386,-0.4245,-0.4688,-0.5179,-0.5567,-0.5946,-0.6332,-0.6712,-0.7031,-0.73,-0.7515,-0.7836,-0.8268,-0.8692,-0.9061,-0.9375,-0.9577,-0.9836,-1.0043,-1.0257,-1.0411,-1.0616,-1.0828,-1.1074,-1.1276,-1.1578,-1.1927,-1.2126,-1.2332,-1.2471,-1.2618,-1.2774,-1.3253,-1.4118,-1.4666,-1.5087,1.2826,1.2546,1.2188,1.198,1.1732,1.1706,1.1781,1.1781,1.1781,1.1768,1.1758,1.1493,1.141,1.1134,1.0718,1.0533,1.0424,1.0296,1.0277,1.029,1.0271,1.0187,1.0136,1.0053,1.013,1.006,1.0047,1.0053,1.0053,1.0053,0.9926,0.9804,0.974,0.9676,0.9478,0.9408,0.9338,0.9274,0.9145,0.9022,0.8829,0.8641,0.8582,0.8447,0.8312,0.8177,0.8047,0.7857,0.7601,0.7335,0.7073,0.6868,0.662,0.6225,0.5907,0.5574,0.5199,0.4666,0.4163,0.4021,0.3744,0.3244,0.3077,0.2796,0.2294,0.1682,0.1234,0.0729,0.0393,0.0,-0.0393,-0.0729,-0.1122,-0.1459,-0.1852,-0.2244,-0.2579,-0.2858,-0.3193,-0.3527,-0.3913,-0.4408,-0.4849,-0.5183,-0.5572,-0.5955,-0.6332,-0.6657,-0.6977,-0.7192,-0.7461,-0.7943,-0.8321,-0.8692,-0.9008,-0.9218,-0.942,-0.9681,-0.9836,-1.0051,-1.0257,-1.0462,-1.0675,-1.0922,-1.1226,-1.1519,-1.1728,-1.1927,-1.2175,-1.2332,-1.248,-1.3147,-1.4047,-1.4429,-1.4671,1.2548,1.224,1.2043,1.1806,1.1577,1.1558,1.1632,1.17,1.1706,1.1706,1.1687,1.1592,1.1446,1.1236,1.0786,1.0628,1.0602,1.0482,1.0451,1.0425,1.0413,1.0356,1.0255,1.0211,1.0166,0.9912,0.9868,0.9798,0.9804,0.9817,0.9804,0.9676,0.9612,0.9542,0.9414,0.9338,0.921,0.9145,0.8958,0.8835,0.8641,0.8511,0.8447,0.8306,0.8236,0.8047,0.7857,0.7731,0.7536,0.7204,0.7012,0.6876,0.6601,0.6205,0.5815,0.5687,0.5213,0.468,0.4194,0.4039,0.3694,0.3299,0.3077,0.2796,0.2238,0.1681,0.1234,0.0954,0.0561,0.0168,-0.0224,-0.0561,-0.0954,-0.1346,-0.1628,-0.1964,-0.2355,-0.2633,-0.2968,-0.3246,-0.3635,-0.4079,-0.4519,-0.4908,-0.5297,-0.5626,-0.6009,-0.6337,-0.6657,-0.6923,-0.7246,-0.7622,-0.7949,-0.8321,-0.8586,-0.885,-0.9061,-0.9263,-0.9524,-0.9681,-0.9836,-1.0102,-1.0308,-1.0522,-1.0769,-1.1015,-1.1318,-1.1628,-1.1927,-1.2076,-1.2234,-1.295,-1.3662,-1.3974,-1.4344,1.2439,1.2017,1.195,1.1684,1.1347,1.1335,1.1409,1.1558,1.1558,1.1558,1.1558,1.1539,1.1426,1.1225,1.0916,1.0697,1.0766,1.0704,1.0673,1.0667,1.0648,1.0536,1.0417,1.0348,1.0207,0.9931,1.0017,0.9873,0.9784,0.9753,0.9735,0.949,0.9472,0.9344,0.928,0.9151,0.9022,0.8829,0.877,0.8641,0.8517,0.8441,0.8306,0.8236,0.8107,0.7982,0.7731,0.7601,0.74,0.7138,0.6942,0.6745,0.6539,0.6129,0.5825,0.5596,0.5198,0.4742,0.4392,0.4101,0.3677,0.3307,0.291,0.2629,0.2238,0.1625,0.1234,0.1066,0.0617,0.028,-0.0112,-0.0449,-0.0785,-0.1122,-0.1459,-0.1738,-0.2074,-0.241,-0.2745,-0.3023,-0.336,-0.3694,-0.4138,-0.4632,-0.5018,-0.5297,-0.5626,-0.6014,-0.6337,-0.6712,-0.7031,-0.7354,-0.7628,-0.7949,-0.8215,-0.848,-0.8692,-0.8903,-0.9106,-0.9316,-0.9524,-0.9732,-0.9947,-1.0154,-1.036,-1.0616,-1.0922,-1.1326,-1.1678,-1.1778,-1.1959,-1.2595,-1.314,-1.3547,-1.4136,1.2542,1.2264,1.2023,1.1618,1.1123,1.1111,1.1111,1.1186,1.1186,1.1192,1.1186,1.118,1.1168,1.1077,1.0888,1.0761,1.0683,1.0441,1.0493,1.0463,1.0333,1.0432,1.0384,1.036,1.0272,1.0212,1.0089,1.0039,0.9961,0.9861,0.965,0.935,0.9368,0.9245,0.9017,0.8899,0.877,0.8641,0.8576,0.8511,0.8441,0.8306,0.8242,0.8107,0.7922,0.7731,0.7666,0.7466,0.7199,0.6942,0.6811,0.6609,0.6346,0.602,0.5789,0.556,0.5158,0.4795,0.4482,0.4107,0.3686,0.3163,0.2685,0.235,0.2184,0.1626,0.129,0.1066,0.0673,0.028,0.0,-0.028,-0.0617,-0.0954,-0.129,-0.1572,-0.1906,-0.2242,-0.2577,-0.28,-0.3081,-0.3471,-0.3805,-0.4245,-0.4688,-0.5018,-0.5352,-0.5736,-0.6119,-0.6495,-0.6766,-0.709,-0.7359,-0.7628,-0.7901,-0.8109,-0.8321,-0.848,-0.8692,-0.8949,-0.9211,-0.942,-0.9584,-0.9836,-1.0043,-1.0257,-1.0522,-1.0922,-1.1217,-1.1368,-1.1718,-1.2268,-1.3057,-1.3756,-1.4317,1.2137,1.1875,1.1624,1.1473,1.1359,1.119,1.1117,1.1117,1.1117,1.1117,1.1117,1.1117,1.1117,1.1075,1.1039,1.096,1.0948,1.0876,1.0803,1.081,1.081,1.0719,1.0575,1.0402,1.0284,1.0178,1.0067,0.9916,0.9829,0.9898,0.9719,0.9491,0.9342,0.9148,0.8961,0.8738,0.8592,0.8452,0.8382,0.8306,0.8306,0.8177,0.8047,0.7857,0.7857,0.7601,0.74,0.7269,0.7068,0.6806,0.6613,0.6412,0.6145,0.5885,0.562,0.5488,0.5091,0.4714,0.4475,0.4085,0.3593,0.3051,0.2519,0.2184,0.2184,0.1626,0.1346,0.1066,0.0729,0.0336,0.0112,-0.0168,-0.0561,-0.0841,-0.1178,-0.1459,-0.174,-0.213,-0.241,-0.2633,-0.2968,-0.3357,-0.3635,-0.391,-0.4301,-0.4688,-0.5077,-0.5462,-0.5845,-0.6228,-0.6495,-0.6712,-0.6982,-0.7252,-0.7467,-0.7735,-0.7949,-0.8162,-0.8321,-0.8586,-0.8798,-0.8956,-0.9113,-0.942,-0.9732,-0.9888,-1.0146,-1.0514,-1.082,-1.1124,-1.1498,-1.1903,-1.2824,-1.3801,-1.4343,1.1849,1.1735,1.1495,1.1364,1.1361,1.1157,1.1037,1.1111,1.1117,1.1117,1.1117,1.1117,1.1117,1.1117,1.1111,1.1099,1.1087,1.1075,1.1019,1.1001,1.0896,1.0849,1.0674,1.0531,1.0327,1.0153,0.9993,0.995,0.9907,0.9867,0.974,0.9574,0.9436,0.9173,0.8975,0.8641,0.8488,0.8417,0.8273,0.8177,0.8112,0.7982,0.7852,0.7727,0.7601,0.7466,0.7269,0.7068,0.6872,0.6675,0.6412,0.6214,0.6017,0.5749,0.5488,0.5223,0.4948,0.4647,0.433,0.3859,0.3442,0.2978,0.2473,0.2244,0.2073,0.1682,0.1346,0.1234,0.0785,0.0336,0.0224,-0.0112,-0.0393,-0.0729,-0.1122,-0.1403,-0.1628,-0.1962,-0.2242,-0.2465,-0.2856,-0.319,-0.3411,-0.3688,-0.4132,-0.4577,-0.5018,-0.5297,-0.5576,-0.59,-0.6119,-0.6386,-0.6549,-0.682,-0.7036,-0.73,-0.7568,-0.7741,-0.7955,-0.8168,-0.8434,-0.854,-0.8752,-0.9061,-0.9316,-0.9517,-0.9777,-1.0087,-1.0506,-1.0922,-1.1345,-1.18,-1.2474,-1.339,-1.3999,1.1946,1.2003,1.1651,1.1439,1.1181,1.0936,1.0905,1.1043,1.1037,1.1111,1.1117,1.1117,1.1117,1.1117,1.1111,1.1037,1.1037,1.1037,1.0956,1.0812,1.0818,1.072,1.0553,1.0444,1.0399,1.0484,1.0336,1.0148,1.006,1.0005,0.986,0.962,0.9363,0.9219,0.9104,0.8759,0.8529,0.8295,0.8118,0.8073,0.7962,0.7841,0.771,0.7596,0.74,0.7265,0.7068,0.6872,0.6675,0.6412,0.628,0.6013,0.5683,0.5488,0.5292,0.509,0.4824,0.4556,0.4265,0.3643,0.3268,0.2975,0.2459,0.2257,0.2077,0.1682,0.129,0.1234,0.0729,0.0449,0.0224,-0.0056,-0.0336,-0.0617,-0.101,-0.1346,-0.157,-0.185,-0.2128,-0.2354,-0.2689,-0.297,-0.3244,-0.3519,-0.3965,-0.4463,-0.4963,-0.5242,-0.5352,-0.5521,-0.5791,-0.6009,-0.6223,-0.6495,-0.6712,-0.6977,-0.7192,-0.7365,-0.758,-0.7842,-0.8055,-0.8268,-0.8533,-0.8745,-0.9008,-0.9211,-0.9413,-0.9614,-1.0087,-1.0581,-1.1266,-1.179,-1.2379,-1.2919,-1.3522,1.1521,1.1505,1.1337,1.1222,1.1184,1.0952,1.0836,1.0761,1.0812,1.0962,1.1111,1.1117,1.1117,1.1037,1.0956,1.0887,1.0887,1.0738,1.0588,1.0663,1.0594,1.0594,1.0513,1.0363,1.0293,1.0288,1.0218,0.9992,0.975,0.9846,0.9674,0.9445,0.9309,0.9144,0.8877,0.8628,0.8548,0.8468,0.8319,0.8171,0.7956,0.7798,0.7617,0.7433,0.7288,0.7086,0.6876,0.6741,0.6544,0.628,0.6083,0.5818,0.5488,0.5292,0.509,0.4824,0.4625,0.4428,0.4064,0.3516,0.3193,0.2807,0.2503,0.2231,0.2084,0.157,0.1346,0.1178,0.0729,0.0449,0.0336,-0.0112,-0.0393,-0.0561,-0.0897,-0.1178,-0.1458,-0.1793,-0.2127,-0.2296,-0.2577,-0.2912,-0.3244,-0.3408,-0.3799,-0.4073,-0.4519,-0.4849,-0.5014,-0.5242,-0.5462,-0.5681,-0.59,-0.6173,-0.6445,-0.6657,-0.6869,-0.7036,-0.7252,-0.7461,-0.7676,-0.7943,-0.8162,-0.8374,-0.8639,-0.8903,-0.9106,-0.9368,-0.9732,-1.0267,-1.0809,-1.1408,-1.195,-1.2401,-1.288,1.1267,1.1246,1.1182,1.1142,1.1167,1.0885,1.0687,1.0547,1.0669,1.0743,1.0893,1.0887,1.0887,1.0812,1.0738,1.0663,1.0663,1.0588,1.0438,1.0438,1.0368,1.0368,1.0218,1.0143,1.0073,0.9992,0.9841,0.9695,0.9544,0.9468,0.9387,0.9231,0.9165,0.9015,0.8724,0.863,0.8551,0.8455,0.8311,0.8135,0.8043,0.7853,0.7646,0.7382,0.7176,0.7017,0.6766,0.6544,0.6412,0.6148,0.5885,0.5624,0.5355,0.509,0.4888,0.4691,0.4359,0.4161,0.3735,0.3381,0.2997,0.2646,0.2455,0.2274,0.1995,0.1582,0.1404,0.1122,0.0729,0.0505,0.0336,-0.0112,-0.0393,-0.0561,-0.0785,-0.1122,-0.1402,-0.1737,-0.2017,-0.2184,-0.2465,-0.2856,-0.319,-0.3411,-0.3688,-0.3852,-0.4073,-0.4405,-0.468,-0.4959,-0.5187,-0.5407,-0.5572,-0.5795,-0.6064,-0.6337,-0.6549,-0.6766,-0.6923,-0.7139,-0.7354,-0.7622,-0.7788,-0.8002,-0.8268,-0.8533,-0.8857,-0.9166,-0.9472,-0.9784,-1.0074,-1.0729,-1.1439,-1.2007,-1.2492,1.1267,1.1267,1.1267,1.1209,1.1028,1.0792,1.0578,1.0449,1.0513,1.0519,1.0513,1.0513,1.0588,1.0513,1.0519,1.0519,1.0443,1.0438,1.0368,1.0218,1.0143,1.0073,0.9922,0.9846,0.9771,0.962,0.9544,0.9473,0.9322,0.9246,0.9094,0.9022,0.9022,0.8878,0.8721,0.8635,0.8558,0.8446,0.8297,0.8193,0.8042,0.7877,0.7626,0.7362,0.7133,0.6844,0.6635,0.6432,0.6152,0.5885,0.5686,0.5418,0.5153,0.4891,0.4758,0.4492,0.4092,0.3761,0.356,0.3209,0.2981,0.2682,0.2451,0.2269,0.1983,0.1604,0.1363,0.1125,0.0785,0.0561,0.0336,0.0,-0.0393,-0.0561,-0.0841,-0.1066,-0.129,-0.157,-0.1905,-0.213,-0.241,-0.2745,-0.3023,-0.3302,-0.3524,-0.3688,-0.3852,-0.4073,-0.4405,-0.4677,-0.4904,-0.5132,-0.5301,-0.5466,-0.5736,-0.6009,-0.6282,-0.65,-0.6663,-0.682,-0.7036,-0.7252,-0.7461,-0.7681,-0.7848,-0.8168,-0.8699,-0.9008,-0.9263,-0.9517,-0.9725,-1.0223,-1.0967,-1.1655,-1.2212,1.1267,1.1267,1.1267,1.1305,1.1209,1.0995,1.0699,1.0332,1.0293,1.0368,1.0513,1.0513,1.0443,1.0513,1.0368,1.0293,1.0218,1.0143,1.0067,0.9992,0.9841,0.9771,0.97,0.9544,0.9468,0.9397,0.9322,0.9246,0.9099,0.9018,0.8861,0.8784,0.8784,0.8708,0.8685,0.8566,0.8538,0.8506,0.8351,0.8194,0.8043,0.787,0.7673,0.7332,0.7055,0.6825,0.6551,0.6281,0.6047,0.5693,0.5557,0.5292,0.4894,0.4694,0.4561,0.4161,0.3828,0.3563,0.3429,0.3159,0.2876,0.2644,0.2431,0.221,0.1911,0.1635,0.1382,0.1138,0.0787,0.0505,0.028,0.0,-0.028,-0.0505,-0.0785,-0.101,-0.1234,-0.1458,-0.1794,-0.2073,-0.2352,-0.2635,-0.2914,-0.3193,-0.3413,-0.3524,-0.3688,-0.3852,-0.4073,-0.4405,-0.468,-0.4908,-0.5077,-0.5242,-0.5462,-0.5681,-0.5955,-0.6178,-0.6391,-0.6549,-0.6766,-0.6977,-0.7192,-0.7413,-0.7681,-0.8162,-0.8699,-0.8903,-0.9054,-0.9263,-0.9517,-0.9993,-1.0504,-1.1239,-1.1824,1.1181,1.1181,1.1084,1.1037,1.0931,1.0789,1.0502,1.0156,1.0182,1.0247,1.0223,1.0212,1.0293,1.0218,1.0143,1.0067,0.9922,0.9846,0.9771,0.962,0.9544,0.9468,0.9397,0.9322,0.9246,0.9251,0.9175,0.9099,0.8865,0.8708,0.8551,0.8556,0.8551,0.8475,0.8394,0.8313,0.8318,0.8313,0.8291,0.8174,0.8041,0.7908,0.7651,0.736,0.7066,0.6726,0.6495,0.6271,0.5858,0.5624,0.5416,0.5093,0.4761,0.4495,0.4228,0.383,0.3632,0.3429,0.3295,0.3025,0.2822,0.2613,0.2383,0.2183,0.1851,0.1558,0.1409,0.1211,0.0738,0.0393,0.0224,0.0056,-0.0168,-0.0393,-0.0673,-0.0898,-0.1122,-0.1347,-0.1682,-0.1961,-0.2296,-0.2579,-0.2858,-0.3081,-0.3304,-0.3413,-0.3522,-0.3688,-0.391,-0.4187,-0.4463,-0.4684,-0.4853,-0.5073,-0.5238,-0.5407,-0.5626,-0.5845,-0.6059,-0.6223,-0.649,-0.6652,-0.6869,-0.7192,-0.7574,-0.8055,-0.8427,-0.8639,-0.8844,-0.9054,-0.9256,-0.9598,-1.0196,-1.0981,-1.1495,1.1008,1.0921,1.0733,1.0626,1.0363,1.0358,1.0221,0.9922,1.0205,1.0124,0.9926,0.9878,0.9878,0.9857,0.9846,0.9695,0.962,0.9544,0.9549,0.9322,0.9327,0.9251,0.9246,0.9251,0.9094,0.9022,0.887,0.8789,0.8632,0.8475,0.8403,0.8403,0.8255,0.8178,0.8178,0.8102,0.8102,0.8102,0.8025,0.7999,0.8012,0.7842,0.7643,0.7422,0.7114,0.6757,0.6467,0.6124,0.5734,0.5552,0.528,0.4931,0.4561,0.4161,0.383,0.3629,0.3431,0.3295,0.3092,0.2822,0.2622,0.2421,0.2285,0.2046,0.179,0.1607,0.1453,0.1182,0.0757,0.0458,0.0342,0.0056,-0.0168,-0.0336,-0.0561,-0.0841,-0.1122,-0.1346,-0.1626,-0.1961,-0.224,-0.2521,-0.2691,-0.2914,-0.3081,-0.3246,-0.3469,-0.358,-0.3744,-0.3968,-0.419,-0.4408,-0.4629,-0.4849,-0.4959,-0.5128,-0.5242,-0.5462,-0.5732,-0.6,-0.6218,-0.6436,-0.6598,-0.6977,-0.7408,-0.7681,-0.8002,-0.8268,-0.8533,-0.8791,-0.8995,-0.9256,-0.9841,-1.0638,-1.1169,1.0824,1.0733,1.0733,1.0692,1.0565,1.0651,1.0439,1.0236,1.0269,1.0095,0.9693,0.9637,0.9638,0.954,0.9535,0.9459,0.9443,0.9453,0.9332,0.9261,0.9113,0.9018,0.9018,0.8865,0.8784,0.8708,0.8632,0.8479,0.8327,0.8255,0.8178,0.8178,0.8102,0.8025,0.8025,0.7949,0.7876,0.7876,0.7718,0.7718,0.7799,0.7642,0.7447,0.7299,0.7021,0.6712,0.6441,0.605,0.5701,0.5516,0.5047,0.46,0.4169,0.3832,0.3632,0.3498,0.3295,0.3092,0.2891,0.269,0.249,0.2356,0.222,0.2012,0.1782,0.1603,0.1437,0.1099,0.0836,0.0588,0.0405,0.0114,-0.0168,-0.0337,-0.0449,-0.0729,-0.1066,-0.1346,-0.1626,-0.1906,-0.2128,-0.2352,-0.2521,-0.2691,-0.2914,-0.3081,-0.3304,-0.3469,-0.3522,-0.3744,-0.3968,-0.4187,-0.4408,-0.4629,-0.4739,-0.4849,-0.5018,-0.5187,-0.5407,-0.5677,-0.6,-0.6223,-0.6495,-0.6869,-0.7246,-0.7461,-0.7735,-0.7955,-0.8215,-0.848,-0.8791,-0.9054,-0.9454,-1.0155,-1.0781,1.0554,1.0467,1.0386,1.0381,1.0386,1.0381,1.0312,1.0218,1.0203,0.9932,0.9629,0.9682,0.9647,0.9541,0.9541,0.9438,0.9423,0.9349,0.9271,0.9164,0.8928,0.8713,0.8632,0.8579,0.8479,0.8403,0.8327,0.8178,0.8102,0.7949,0.7949,0.7949,0.7949,0.7872,0.7868,0.7718,0.7642,0.7642,0.7484,0.7488,0.7569,0.7411,0.7334,0.7138,0.687,0.6651,0.6375,0.606,0.5705,0.5328,0.485,0.4397,0.3968,0.3724,0.3433,0.3295,0.3092,0.2956,0.2758,0.2557,0.2356,0.2288,0.2153,0.1879,0.1677,0.1505,0.1357,0.1074,0.0735,0.0482,0.0412,0.0174,-0.0114,-0.0338,-0.045,-0.0617,-0.0954,-0.129,-0.1514,-0.1684,-0.1962,-0.2184,-0.2354,-0.2521,-0.2691,-0.2916,-0.3137,-0.3304,-0.3413,-0.3522,-0.3747,-0.3968,-0.4187,-0.4353,-0.4467,-0.4632,-0.4853,-0.5018,-0.5187,-0.5513,-0.5896,-0.6119,-0.6445,-0.6712,-0.6977,-0.7241,-0.7461,-0.7681,-0.7901,-0.8162,-0.8533,-0.885,-0.9281,-0.9783,-1.0389,1.0294,1.0207,1.0033,0.9951,0.9951,0.9951,0.9859,0.9946,0.9854,0.9765,0.9583,0.9742,0.9819,0.975,0.974,0.9663,0.9442,0.9119,0.9072,0.8862,0.8595,0.8599,0.8476,0.8335,0.8227,0.8115,0.8102,0.8025,0.7949,0.7795,0.7718,0.7718,0.7638,0.748,0.748,0.748,0.7484,0.7407,0.733,0.718,0.7184,0.7184,0.7107,0.6949,0.6791,0.656,0.6357,0.6069,0.5689,0.5229,0.4748,0.4214,0.3848,0.3584,0.3341,0.3123,0.2898,0.2695,0.2491,0.2423,0.2288,0.2153,0.2018,0.1816,0.1614,0.1403,0.1255,0.0975,0.0694,0.0494,0.0362,0.0178,-0.0116,-0.0341,-0.0453,-0.0562,-0.0898,-0.1235,-0.1403,-0.1572,-0.1794,-0.2017,-0.2184,-0.2354,-0.2579,-0.2805,-0.2972,-0.3081,-0.3249,-0.3413,-0.3577,-0.3747,-0.3965,-0.4079,-0.4193,-0.4415,-0.4632,-0.4798,-0.5022,-0.5403,-0.5786,-0.6005,-0.6223,-0.6386,-0.6652,-0.6923,-0.7192,-0.7461,-0.7681,-0.7901,-0.8168,-0.8553,-0.9065,-0.9522,-1.0137,1.0038,1.0038,0.9777,0.9689,0.9689,0.9519,0.9437,0.9432,0.9437,0.9405,0.936,0.9407,0.9342,0.9169,0.9169,0.9114,0.9092,0.8896,0.8792,0.8598,0.8519,0.8537,0.8497,0.8286,0.8164,0.8039,0.7859,0.7812,0.7802,0.7691,0.7569,0.7581,0.7488,0.7484,0.7484,0.7407,0.7257,0.7176,0.7096,0.6945,0.6945,0.6945,0.6868,0.6714,0.6641,0.6328,0.6083,0.5767,0.552,0.516,0.4686,0.4198,0.3822,0.3457,0.3201,0.2957,0.2797,0.2567,0.2363,0.229,0.2153,0.2018,0.1883,0.1681,0.1479,0.1344,0.12,0.1064,0.078,0.0512,0.0377,0.0185,-0.0121,-0.0293,-0.0462,-0.0739,-0.1016,-0.1182,-0.1346,-0.157,-0.1793,-0.1959,-0.2071,-0.224,-0.2465,-0.2635,-0.2805,-0.2914,-0.3028,-0.3193,-0.3413,-0.3577,-0.3744,-0.3968,-0.4135,-0.4193,-0.4415,-0.4581,-0.4857,-0.5183,-0.5513,-0.5837,-0.6055,-0.6218,-0.644,-0.6652,-0.6923,-0.7246,-0.7515,-0.7735,-0.7848,-0.8205,-0.8756,-0.9315,-0.9966]},{"header":{"parameterUnit":"m.s-1","parameterCategory":1,"la1":31.0,"la2":29.5877,"lo1":-88.7671,"lo2":-86.6584,"dy":0.0162,"dx":0.0185,"nx":115,"ny":88,"refTime":"2023-04-04T00:00:00:Z","depth":0,"parameterNumber":3,"parameterNumberName":"V-component_of_WINDS"},"data":[0.0,0.0,0.0,0.0,0.0,0.0,0.0,0.0,0.0,0.0,0.0,0.0,0.0,0.0,0.0,0.0,0.0,0.0,0.0,0.0,0.0,0.0,0.0,0.0,0.0,0.0,0.0,0.0,0.0,0.0,0.0,0.0,0.0,0.0,0.0,0.0,0.0,0.0,0.0,0.0,0.0,0.0,0.0,0.0,0.0,0.0,0.0,0.0,0.0,0.0,0.0,0.0,0.0,0.0,0.0,0.0,0.0,0.0,0.0,0.0,0.0,0.0,0.0,0.0,0.0,0.0,0.0,0.0,0.0,0.0,0.0,0.0,0.0,0.0,0.0,0.0,0.0,0.0,0.0,0.0,0.0,0.0,0.0,0.0,0.0,0.0,0.0,0.0,0.0,0.0,0.0,0.0,0.0,0.0,0.0,0.0,0.0,0.0,0.0,0.0,0.0,0.0,0.0,0.0,0.0,0.0,0.0,0.0,0.0,0.0,0.0,0.0,0.0,0.0,0.0,0.0,0.0,0.0,0.0,0.0,0.0,0.0,0.0,0.0,0.0,0.0,0.0,0.0,0.0,0.0,0.0,0.0,0.0,0.0,0.0,0.0,0.0,0.0,0.0,0.0,0.0,0.0,0.0,0.0,0.0,0.0,0.0,0.0,0.0,0.0,0.0,0.0,0.0,0.0,0.0,0.0,0.0,0.0,0.0,0.0,0.0,0.0,0.0,0.0,0.0,0.0,0.0,0.0,0.0,0.0,0.0,0.0,0.0,0.0,0.0,0.0,0.0,0.0,0.0,0.0,0.0,0.0,0.0,0.0,0.0,0.0,0.0,0.0,0.0,0.0,0.0,0.0,0.0,0.0,0.0,0.0,0.0,0.0,0.0,0.0,0.0,0.0,0.0,0.0,0.0,0.0,0.0,0.0,0.0,0.0,0.0,0.0,0.0,0.0,0.0,0.0,0.0,0.0,0.0,0.0,0.0,0.0,0.0,0.0,0.0,0.0,0.0,0.0,0.0,0.0,0.0,0.0,0.0,0.0,0.0,0.0,0.0,0.0,0.0,0.0,0.0,0.0,0.0,0.0,0.0,0.0,0.0,0.0,0.0,0.0,0.0,0.0,0.0,0.0,0.0,0.0,0.0,0.0,0.0,0.0,0.0,0.0,0.0,0.0,0.0,0.0,0.0,0.0,0.0,0.0,0.0,0.0,0.0,0.0,0.0,0.0,0.0,0.0,0.0,0.0,0.0,0.0,0.0,0.0,0.0,0.0,0.0,0.0,0.0,0.0,0.0,0.0,0.0,0.0,0.0,0.0,0.0,0.0,0.0,0.0,0.0,0.0,0.0,0.0,0.0,0.0,0.0,0.0,0.0,0.0,0.0,0.0,0.0,0.0,0.0,0.0,0.0,0.0,0.0,0.0,0.0,0.0,0.0,0.0,0.0,0.0,0.0,0.0,0.0,0.0,0.0,0.0,0.0,0.0,0.0,0.0,0.0,0.0,0.0,0.0,0.0,0.0,0.0,0.0,0.0,0.0,0.0,0.0,0.0,0.0,0.0,0.0,0.0,0.0,0.0,0.0,0.0,0.0,0.0,0.0,0.0,0.0,0.0,0.0,0.0,0.0,0.0,0.0,0.0,0.0,0.0,0.0,0.0,0.0,0.0,0.0,0.0,0.0,0.0,0.0,0.0,0.0,0.0,0.0,0.0,0.0,0.0,0.0,0.0,0.0,0.0,0.0,0.0,0.0,0.0,0.0,0.0,0.0,0.0,0.0,0.0,0.0,0.0,0.0,0.0,0.0,0.0,0.0,0.0,0.0,0.0,0.0,0.0,0.0,0.0,0.0,0.0,0.0,0.0,0.0,0.0,0.0,0.0,0.0,0.0,0.0,0.0,0.0,0.0,0.0,0.0,0.0,0.0,0.0,0.0,0.0,0.0,0.0,0.0,0.0,0.0,0.0,0.0,0.0,0.0,0.0,0.0,0.0,0.0,0.0,0.0,0.0,0.0,0.0,0.0,0.0,0.0,0.0,0.0,0.0,0.0,0.0,0.0,0.0,0.0,0.0,0.0,0.0,0.0,0.0,0.0,0.0,0.0,0.0,0.0,0.0,0.0,0.0,0.0,0.0,0.0,0.0,0.0,0.0,0.0,0.0,0.0,0.0,0.0,0.0,0.0,0.0,0.0,0.0,0.0,0.0,0.0,0.0,0.0,0.0,0.0,0.0,0.0,0.0,0.0,0.0,0.0,0.0,0.0,0.0,0.0,0.0,0.0,0.0,0.0,0.0,0.0,0.0,0.0,0.0,0.0,0.0,0.0,0.0,0.0,0.0,0.0,0.0,0.0,0.0,0.0,0.0,0.0,0.0,0.0,0.0,0.0,0.0,0.0,0.0,0.0,0.0,0.0,0.0,0.0,0.0,0.0,0.0,0.0,0.0,0.0,0.0,0.0,0.0,0.0,0.0,0.0,0.0,0.0,0.0,0.0,0.0,0.0,0.0,0.0,0.0,0.0,0.0,0.0,0.0,0.0,0.0,0.0,0.0,0.0,0.0,0.0,0.0,0.0,0.0,0.0,0.0,0.0,0.0,0.0,0.0,0.0,0.0,0.0,0.0,0.0,0.0,0.0,0.0,0.0,0.0,0.0,0.0,0.0,0.0,0.0,0.0,0.0,0.0,0.0,0.0,0.0,0.0,0.0,0.0,0.0,0.0,0.0,0.0,0.0,0.0,0.0,0.0,0.0,0.0,0.0,0.0,0.0,0.0,0.0,0.0,0.0,0.0,0.0,0.0,0.0,0.0,0.0,0.0,0.0,0.0,0.0,0.0,0.0,0.0,0.0,0.0,0.0,0.0,0.0,0.0,0.0,0.0,0.0,0.0,0.0,0.0,0.0,0.0,0.0,0.0,0.0,0.0,0.0,0.0,0.0,0.0,0.0,0.0,0.0,0.0,0.0,0.0,0.0,0.0,0.0,0.0,0.0,0.0,0.0,0.0,0.0,0.0,0.0,0.0,0.0,0.0,0.0,0.0,0.0,0.0,0.0,0.0,0.0,0.0,0.0,0.0,0.0,0.0,0.0,0.0,0.0,0.0,0.0,0.0,0.0,0.0,0.0,0.0,0.0,0.0,0.0,0.0,0.0,0.0,0.0,0.0,0.0,0.0,0.0,0.0,0.0,0.0,0.0,0.0,0.0,0.0,0.0,0.0,0.0,0.0,0.0,0.0,0.0,0.0,0.0,0.0,0.0,0.0,0.0,0.0,0.0,0.0,0.0,0.0,0.0,0.0,0.0,0.0,0.0,0.0,0.0,0.0,0.0,0.0,0.0,0.0,0.0,0.0,0.0,0.0,0.0,0.0,0.0,0.0,0.0,0.0,0.0,0.0,0.0,0.0,0.0,0.0,0.0,0.0,0.0,0.0,0.0,0.0,0.0,0.0,0.0,0.0,0.0,0.0,0.0,0.0,0.0,0.0,0.0,0.0,0.0,0.0,0.0,0.0,0.0,0.0,0.0,0.0,0.0,0.0,0.0,0.0,0.0,0.0,0.0,0.0,0.0,0.0,0.0,0.0,0.0,0.0,0.0,0.0,0.0,0.0,0.0,0.0,0.0,0.0,0.0,0.0,0.0,0.0,0.0,0.0,0.0,0.0,0.0,0.0,0.0,0.0,0.0,0.0,0.0,0.0,0.0,0.0,0.0,0.0,0.0,0.0,0.0,0.0,0.0,0.0,0.0,0.0,0.0,0.0,0.0,0.0,0.0,0.0,0.0,0.0,0.0,0.0,0.0,0.0,0.0,0.0,0.0,0.0,0.0,0.0,0.0,0.0,0.0,0.0,0.0,0.0,0.0,0.0,0.0,0.0,0.0,0.0,0.0,0.0,0.0,0.0,0.0,0.0,0.0,0.0,0.0,0.0,0.0,0.0,0.0,0.0,0.0,0.0,0.0,0.0,0.0,0.0,0.0,0.0,0.0,0.0,0.0,0.0,0.0,0.0,0.0,0.0,0.0,0.0,0.0,0.0,0.0,0.0,0.0,0.0,0.0,0.0,0.0,0.0,0.0,0.0,0.0,0.0,0.0,0.0,0.0,0.0,0.0,0.0,0.0,0.0,0.0,0.0,0.0,0.0,0.0,0.0,0.0,0.0,0.0,0.0,0.0,0.0,0.0,0.0,0.0,0.0,0.0,0.0,0.0,0.0,0.0,0.0,0.0,0.0,0.0,0.0,0.0,0.0,0.0,0.0,0.0,0.0,0.0,0.0,0.0,0.0,0.0,0.0,1.0812,0.0,0.0,0.0,0.0,0.0,0.0,0.0,0.0,0.0,0.0,0.0,0.0,0.0,0.0,0.0,0.0,0.0,0.0,0.0,0.0,0.0,0.0,0.0,0.0,0.0,0.0,0.0,0.0,0.0,0.0,0.0,0.0,0.0,0.0,0.0,0.0,0.0,0.0,0.0,0.0,0.0,0.0,0.0,0.0,0.0,0.0,0.0,0.0,0.0,0.0,0.0,0.0,0.0,0.0,0.0,0.0,0.0,0.0,0.0,0.0,0.0,0.0,0.0,0.0,0.0,0.0,0.0,0.0,0.0,0.0,0.0,0.0,0.0,0.0,0.0,0.0,0.0,0.0,0.0,0.0,0.0,0.0,0.0,0.0,0.0,0.0,0.0,0.0,0.0,0.0,0.0,0.0,0.0,0.0,0.0,0.0,0.0,0.0,0.0,0.0,0.0,0.0,0.0,0.0,0.0,0.0,0.0,0.0,0.0,0.0,1.1706,1.1706,1.1329,1.1037,1.0812,0.0,0.0,0.0,0.0,0.0,0.0,0.0,0.0,0.0,0.0,0.0,0.0,0.0,0.0,0.0,0.0,0.0,0.0,0.0,0.0,0.0,0.0,0.0,0.0,0.0,0.0,0.0,0.0,0.0,0.0,0.0,0.0,0.0,0.0,0.0,0.0,0.0,0.0,0.0,0.0,0.0,0.0,0.0,0.0,0.0,0.0,0.0,0.0,0.0,0.0,0.0,0.0,0.0,0.0,0.0,0.0,0.0,0.0,0.0,0.0,0.0,0.0,0.0,0.0,0.0,0.0,0.0,0.0,0.0,0.0,0.0,0.0,0.0,0.0,0.0,0.0,0.0,0.0,0.0,0.0,0.0,0.0,0.0,0.0,0.0,0.0,0.0,0.0,0.0,0.0,0.0,0.0,0.0,0.0,0.0,0.0,0.0,0.0,0.0,0.0,0.0,0.0,0.0,0.0,0.0,0.0,0.0,0.0,0.0,0.0,0.0,0.0,1.1335,1.0932,1.0656,0.0,0.0,0.0,0.0,0.0,0.0,0.0,0.0,0.0,0.0,0.0,0.0,0.0,0.0,0.0,0.0,0.0,0.0,0.0,0.0,0.0,0.0,0.0,0.0,0.0,0.0,0.0,0.0,0.0,0.0,0.0,0.0,0.0,0.0,0.0,0.0,0.0,0.0,0.0,0.0,0.0,0.0,0.0,0.0,0.0,0.0,0.0,0.0,0.0,0.0,0.0,0.0,0.0,0.0,0.0,0.0,0.0,0.0,0.0,0.0,0.0,0.0,0.0,0.0,0.0,0.0,0.0,0.0,0.0,0.0,0.0,0.0,0.0,0.0,0.0,0.0,0.0,0.0,0.0,0.0,0.0,0.0,0.0,0.0,0.0,0.0,0.0,0.0,0.0,0.0,0.0,0.0,0.0,0.0,0.0,0.0,0.0,0.0,0.0,0.0,0.0,0.0,0.0,0.0,0.0,0.0,0.0,0.0,0.0,0.0,1.1706,1.1706,1.1335,0.0,1.0266,0.0,0.0,0.0,0.0,0.0,0.0,0.0,0.0,0.0,0.0,0.0,0.0,0.0,0.0,0.0,0.0,0.0,0.0,0.0,0.0,0.0,0.0,0.0,0.0,0.0,0.0,0.0,0.0,0.0,0.0,0.0,0.0,0.0,0.0,0.0,0.0,0.0,0.0,0.0,0.0,0.0,0.0,0.0,0.0,0.0,0.0,0.0,0.0,0.0,0.0,0.0,0.0,0.0,0.0,0.0,0.0,0.0,0.0,0.0,0.0,0.0,0.0,0.0,0.0,0.0,0.0,0.0,0.0,0.0,0.0,0.0,0.0,0.0,0.0,0.0,0.0,0.0,0.0,0.0,0.0,0.0,0.0,0.0,0.0,0.0,0.0,0.0,0.0,0.0,0.0,0.0,0.0,0.0,0.0,0.0,0.0,0.0,0.0,0.0,0.0,0.0,0.0,0.0,0.0,0.0,0.0,0.0,0.0,0.0,0.0,1.1706,1.1706,1.0966,1.0475,0.0,0.0,0.0,0.0,0.0,0.0,0.0,0.0,0.0,0.0,0.0,0.0,0.0,0.0,0.0,0.0,0.0,0.0,0.0,0.0,0.0,0.0,0.0,0.0,0.0,0.0,0.0,0.0,0.0,0.0,0.0,0.0,0.0,0.0,0.0,0.0,0.0,0.0,0.0,0.0,0.0,0.0,0.0,0.0,0.0,0.0,0.0,0.0,0.0,0.0,0.0,0.0,0.0,0.0,0.0,0.0,0.0,0.0,0.0,0.0,0.0,0.0,0.0,0.0,0.0,0.0,0.0,0.0,0.0,0.0,0.0,0.0,0.0,0.0,0.0,0.0,0.0,0.0,0.0,0.0,0.0,0.0,0.0,0.0,0.0,0.0,0.0,0.0,0.0,0.0,0.0,0.0,0.0,0.0,0.0,0.0,0.0,0.0,0.0,0.0,0.0,0.0,0.0,0.0,0.0,0.0,0.0,0.0,0.0,0.0,1.1929,1.1594,1.1371,1.0609,1.0085,0.9947,0.0,0.0,0.0,0.0,0.0,0.0,0.0,0.0,0.0,0.0,0.0,0.0,0.0,0.0,0.0,0.0,0.0,0.0,0.0,0.0,0.0,0.0,0.0,0.0,0.0,0.0,0.0,0.0,0.0,0.0,0.0,0.0,0.0,0.0,0.0,0.0,0.0,0.0,0.0,0.0,0.0,0.0,0.0,0.0,0.0,0.0,0.0,0.0,0.0,0.0,0.0,0.0,0.0,0.0,0.0,0.0,0.0,0.0,0.0,0.0,0.0,0.0,0.0,0.0,0.0,0.0,0.0,0.0,0.0,0.0,0.0,0.0,0.0,0.0,0.0,0.0,0.0,0.0,0.0,0.0,0.0,0.0,0.0,0.0,0.0,0.0,0.0,0.0,0.0,0.0,0.0,0.0,0.0,0.0,0.0,0.0,0.0,0.0,0.0,0.0,0.0,0.0,0.0,0.0,0.0,0.0,0.0,0.0,1.2599,1.1996,1.1359,1.0623,1.0298,0.9925,0.0,0.0,0.0,0.0,0.0,0.0,0.0,0.0,0.0,0.0,0.0,0.0,0.0,0.0,0.0,0.0,0.0,0.0,0.0,0.0,0.0,0.0,0.0,0.0,0.0,0.0,0.0,0.0,0.0,0.0,0.0,0.0,0.0,0.0,0.0,0.0,0.0,0.0,0.0,0.0,0.0,0.0,0.0,0.0,0.0,0.0,0.0,0.0,0.0,0.0,0.0,0.0,0.0,0.0,0.0,0.0,0.0,0.0,0.0,0.0,0.0,0.0,0.0,0.0,0.0,0.0,0.0,0.0,0.0,0.0,0.0,0.0,0.0,0.0,0.0,0.0,0.0,0.0,0.0,0.0,0.0,0.0,0.0,0.0,0.0,0.0,0.0,0.0,0.0,0.0,0.0,0.0,0.0,0.0,0.0,0.0,0.0,0.0,0.0,0.0,0.0,0.0,0.0,0.0,0.0,0.0,0.0,0.0,0.0,1.2233,1.1729,1.1112,1.0503,0.9979,0.9445,0.0,0.0,0.0,0.0,0.0,0.0,0.0,0.0,0.0,0.0,0.0,0.0,0.0,0.0,0.0,0.0,0.0,0.0,0.0,0.0,0.0,0.0,0.0,0.0,0.0,0.0,0.0,0.0,0.0,0.0,0.0,0.0,0.0,0.0,0.0,0.0,0.0,0.0,0.0,0.0,0.0,0.0,0.0,0.0,0.0,0.0,0.0,0.0,0.0,0.0,0.0,0.0,0.0,0.0,0.0,0.0,0.0,0.0,0.0,0.0,0.0,0.0,0.0,0.0,0.0,0.0,0.0,0.0,0.0,0.0,0.0,0.0,0.0,0.0,0.0,0.0,0.0,0.0,0.0,0.0,0.0,0.0,0.0,0.0,0.0,0.0,0.0,0.0,0.0,0.0,0.0,0.0,0.0,0.0,0.0,0.0,0.0,0.0,0.0,0.0,0.0,0.0,0.0,0.0,0.0,0.0,0.0,0.0,0.0,1.1724,0.0,1.0839,1.0178,0.9639,0.9153,0.0,0.0,0.0,0.0,0.0,0.0,0.0,0.0,0.0,0.0,0.0,0.0,0.0,0.0,0.0,0.0,0.0,0.0,0.0,0.0,0.0,0.0,0.0,0.0,0.0,0.0,0.0,0.0,0.0,0.0,0.0,0.0,0.0,0.0,0.0,0.0,0.0,0.0,0.0,0.0,0.0,0.0,0.0,0.0,0.0,0.0,0.0,0.0,0.0,0.0,0.0,0.0,0.0,0.0,0.0,0.0,0.0,0.0,0.0,0.0,0.0,0.0,0.0,0.0,0.0,0.0,0.0,0.0,0.0,0.0,0.0,0.0,0.0,0.0,0.0,0.0,0.0,0.0,0.0,0.0,0.0,0.0,0.0,0.0,0.0,0.0,0.0,0.0,0.0,0.0,0.0,0.0,0.0,0.0,0.0,0.0,0.0,0.0,0.0,0.0,0.0,0.0,0.0,0.0,0.0,0.0,0.0,0.0,1.1635,1.0955,1.088,1.0418,0.9472,0.9382,0.8997,0.0,0.0,0.0,0.0,0.0,0.0,0.0,0.0,0.0,0.0,0.0,0.0,0.0,0.0,0.0,0.0,0.0,0.0,0.0,0.0,0.0,0.0,0.0,0.0,0.0,0.0,0.0,0.0,0.0,0.0,0.0,0.0,0.0,0.0,0.0,0.0,0.0,0.0,0.0,0.0,0.0,0.0,0.0,0.0,0.0,0.0,0.0,0.0,0.0,0.0,0.0,0.0,0.0,0.0,0.0,0.0,0.0,0.0,0.0,0.0,0.0,0.0,0.0,0.0,0.0,0.0,0.0,0.0,0.0,0.0,0.0,0.0,0.0,0.0,0.0,0.0,0.0,0.0,0.0,0.0,0.0,0.0,0.0,0.0,0.0,0.0,0.0,0.0,0.0,0.0,0.0,0.0,0.0,0.0,0.0,0.0,0.0,0.0,0.0,0.0,0.0,0.0,0.0,0.0,0.0,0.0,0.0,0.0,0.0,1.1067,1.0763,1.0214,0.9455,0.9222,0.8772,0.0,0.0,0.0,0.0,0.0,0.0,0.0,0.0,0.0,0.0,0.0,0.0,0.0,0.0,0.0,0.0,0.0,0.0,0.0,0.0,0.0,0.0,0.0,0.0,0.0,0.0,0.0,0.0,0.0,0.0,0.0,0.0,0.0,0.0,0.0,0.0,0.0,0.0,0.0,0.0,0.0,0.0,0.0,0.0,0.0,0.0,0.0,0.0,0.0,0.0,0.0,0.0,0.0,0.0,0.0,0.0,0.0,0.0,0.0,0.0,0.0,0.0,0.0,0.0,0.0,0.0,0.0,0.0,0.0,0.0,0.0,0.0,0.0,0.0,0.0,0.0,0.0,0.0,0.0,0.0,0.0,0.0,0.0,0.0,0.0,0.0,0.0,0.0,0.0,0.0,0.0,0.0,0.0,0.0,0.0,0.0,0.0,0.0,0.0,0.0,0.0,0.0,0.0,0.0,0.0,0.0,0.0,0.0,0.0,1.0876,1.0535,0.998,0.9245,0.9037,0.8635,0.8052,0.0,0.0,0.0,0.0,0.0,0.0,0.0,0.0,0.0,0.0,0.0,0.0,0.0,0.0,0.0,0.0,0.0,0.0,0.0,0.0,0.0,0.0,0.0,0.0,0.0,0.0,0.0,0.0,0.0,0.0,0.0,0.0,0.0,0.0,0.0,0.0,0.0,0.0,0.0,0.0,0.0,0.0,0.0,0.0,0.0,0.0,0.0,0.0,0.0,0.0,0.0,0.0,0.0,0.0,0.0,0.0,0.0,0.0,0.0,0.0,0.0,0.0,0.0,0.0,0.0,0.0,0.0,0.0,0.0,0.0,0.0,0.0,0.0,0.0,0.0,0.0,0.0,0.0,0.0,0.0,0.0,0.0,0.0,0.0,0.0,0.0,0.0,0.0,0.0,0.0,0.0,0.0,0.0,0.0,0.0,0.0,0.0,0.0,0.0,0.0,0.0,0.0,0.0,0.0,0.0,0.0,0.0,0.0,1.0618,1.0238,0.9664,0.9022,0.8899,0.8576,0.0,0.0,0.0,0.0,0.0,0.0,0.0,0.0,0.0,0.0,0.0,0.0,0.0,0.0,0.0,0.0,0.0,0.0,0.0,0.0,0.0,0.0,0.0,0.0,0.0,0.0,0.0,0.0,0.0,0.0,0.0,0.0,0.0,0.0,0.0,0.0,0.0,0.0,0.0,0.0,0.0,0.0,0.0,0.0,0.0,0.0,0.0,0.0,0.0,0.0,0.0,0.0,0.0,0.0,0.0,0.0,0.0,0.0,0.0,0.0,0.0,0.0,0.0,0.0,0.0,0.0,0.0,0.0,0.0,0.0,0.0,0.0,0.0,0.0,0.0,0.0,0.0,0.0,0.0,0.0,0.0,0.0,0.0,0.0,0.0,0.0,0.0,0.0,0.0,0.0,0.0,0.0,0.0,0.0,0.0,0.0,0.0,0.0,0.0,0.0,0.0,0.0,0.0,0.0,0.0,0.0,0.0,0.0,0.0,1.0624,1.0174,0.9664,0.9017,0.8899,0.8571,0.0,0.0,0.0,0.0,0.0,0.0,0.0,0.0,0.0,0.0,0.0,0.0,0.0,0.0,0.0,0.0,0.0,0.0,0.0,0.0,0.0,0.0,0.0,0.0,0.0,0.0,0.0,0.0,0.0,0.0,0.0,0.0,0.0,0.0,0.0,0.0,0.0,0.0,0.0,0.0,0.0,0.0,0.0,0.0,0.0,0.0,0.0,0.0,0.0,0.0,0.0,0.0,0.0,0.0,0.0,0.0,0.0,0.0,0.0,0.0,0.0,0.0,0.0,0.0,0.0,0.0,0.0,0.0,0.0,0.0,0.0,0.0,0.0,0.0,0.0,0.0,0.0,0.0,0.0,0.0,0.0,0.0,0.0,0.0,0.0,0.0,0.0,0.0,0.0,0.0,0.0,0.0,0.0,0.0,0.0,0.0,0.0,0.0,0.0,0.0,0.0,0.0,0.0,0.0,0.0,0.0,0.0,0.0,1.1052,1.0618,1.0238,0.9664,0.9022,0.8765,0.8441,0.0,0.0,0.0,0.0,0.0,0.0,0.0,0.0,0.0,0.0,0.0,0.0,0.0,0.0,0.0,0.0,0.0,0.0,0.0,0.0,0.0,0.0,0.0,0.0,0.0,0.0,0.0,0.0,0.0,0.0,0.0,0.0,0.0,0.0,0.0,0.0,0.0,0.0,0.0,0.0,0.0,0.0,0.0,0.0,0.0,0.0,0.0,0.0,0.0,0.0,0.0,0.0,0.0,0.0,0.0,0.0,0.0,0.0,0.0,0.0,0.0,0.0,0.0,0.0,0.0,0.0,0.0,0.0,0.0,0.0,0.0,0.0,0.0,0.0,0.0,0.0,0.0,0.0,0.0,0.0,0.0,0.0,0.0,0.0,0.0,0.0,0.0,0.0,0.0,0.0,0.0,0.0,0.0,0.0,0.0,0.0,0.0,0.0,0.0,0.0,0.0,0.0,0.0,0.0,0.0,0.0,0.0,0.0,1.1122,1.0681,1.0244,0.9728,0.9081,0.87,0.8317,0.0,0.0,0.0,0.0,0.0,0.0,0.0,0.0,0.0,0.0,0.0,0.0,0.0,0.0,0.0,0.0,0.0,0.0,0.0,0.0,0.0,0.0,0.0,0.0,0.0,0.0,0.0,0.0,0.0,0.0,0.0,0.0,0.0,0.0,0.0,0.0,0.0,0.0,0.0,0.0,0.0,0.0,0.0,0.0,0.0,0.0,0.0,0.0,0.0,0.0,0.0,0.0,0.0,0.0,0.0,0.0,0.0,0.0,0.0,0.0,0.0,0.0,0.0,0.0,0.0,0.0,0.0,0.0,0.0,0.0,0.0,0.0,0.0,0.0,0.0,0.0,0.0,0.0,0.0,0.0,0.0,0.0,0.0,0.0,0.0,0.0,0.0,0.0,0.0,0.0,0.0,0.0,0.0,0.0,0.0,0.0,0.0,0.0,0.0,0.0,0.0,0.0,0.0,0.0,0.0,0.0,0.0,0.0,1.1435,1.0996,1.0491,0.9919,0.9274,0.877,0.8257,0.0,0.0,0.0,0.0,0.0,0.0,0.0,0.0,0.0,0.0,0.0,0.0,0.0,0.0,0.0,0.0,0.0,0.0,0.0,0.0,0.0,0.0,0.0,0.0,0.0,0.0,0.0,0.0,0.0,0.0,0.0,0.0,0.0,0.0,0.0,0.0,0.0,0.0,0.0,0.0,0.0,0.0,0.0,0.0,0.0,0.0,0.0,0.0,0.0728,0.0,0.0,0.0,0.0,0.0,0.0,0.0,0.0,0.0,0.0,0.0,0.0,0.0,0.0,0.0,0.0,0.0,0.0,0.0,0.0,0.0,0.0,0.0,0.0,0.0,0.0,0.0,0.0,0.0,0.0,0.0,0.0,0.0,0.0,0.0,0.0,0.0,0.0,0.0,0.0,0.0,0.0,0.0,0.0,0.0,0.0,0.0,0.0,0.0,0.0,0.0,0.0,0.0,0.0,0.0,0.0,0.0,0.0,0.0,1.1685,1.1122,1.0555,0.9977,0.9338,0.8765,0.8252,0.0,0.0,0.0,0.0,0.0,0.0,0.0,0.0,0.0,0.0,0.0,0.0,0.0,0.0,0.0,0.0,0.0,0.0,0.0,0.0,0.0,0.0,0.0,0.0,0.0,0.0,0.0,0.0,0.0,0.0,0.0,0.0,0.0,0.0,0.0,0.0,0.0,0.0,0.0,0.0,0.0,0.0,0.0,0.0,0.0,0.0,0.0,0.0,0.0,0.0,0.0,0.0,0.0,0.0,0.0,0.0,0.0,0.0,0.0,0.0,0.0,0.0,0.0,0.0,0.0,0.0,0.0,0.0,0.0,0.0,0.0,0.0,0.0,0.0,0.0,0.0,0.0,0.0,0.0,0.0,0.0,0.0,0.0,0.0,0.0,0.0,0.0,0.0,0.0,0.0,0.0,0.0,0.0,0.0,0.0,0.0,0.0,0.0,0.0,0.0,0.0,0.0,0.0,0.0,0.0,0.0,0.0,1.2498,1.1872,1.1247,1.0681,1.004,0.9402,0.8835,0.8252,0.7666,0.0,0.0,0.0,0.0,0.0,0.0,0.0,0.0,0.0,0.0,0.0,0.0,0.0,0.0,0.0,0.0,0.0,0.0,0.0,0.0,0.0,0.0,0.0,0.0,0.0,0.0,0.0,0.0,0.0,0.0,0.0,0.0,0.0,0.0,0.0,0.0,0.0,0.0,-1.6061,-1.4365,0.0,0.0,0.0,0.0,0.0,0.0,0.0,0.0,0.5211,0.0,0.0,0.0,0.0,0.0,0.0,0.0,0.0,0.0,0.0,0.0,0.0,0.0,0.0,0.0,0.0,0.0,0.0,0.0,0.0,0.0,0.0,0.0,0.0,0.0,0.0,0.0,0.0,0.0,0.0,0.0,0.0,0.0,0.0,0.0,0.0,0.0,0.0,0.0,0.0,0.0,0.0,0.0,0.0,0.0,0.0,0.0,0.0,0.0,0.0,0.0,0.0,0.0,0.0,0.0,0.0,1.3649,1.3042,1.2436,1.1934,1.1122,1.0421,0.9716,0.8894,0.8187,0.7591,0.0,0.0,0.0,0.0,0.0,0.0,0.0,0.0,0.0,0.0,0.0,0.0,0.0,0.0,0.0,0.0,0.0,0.0,0.0,0.0,0.0,0.0,0.0,0.0,0.0,0.0,0.0,0.0,0.0,0.0,0.0,0.0,0.0,0.0,0.0,0.0,0.0,0.0,0.0,-1.5147,-1.234,0.0,0.0,0.0,0.0,0.0,0.0,0.0,0.0,0.6742,0.0,0.0,0.0,0.0,0.0,0.0,0.0,0.0,0.0,0.0,0.0,0.0,0.0,0.0,0.0,0.0,0.0,0.0,0.0,0.0,0.0,0.0,0.0,0.0,0.0,0.0,0.0,0.0,0.0,0.0,0.0,0.0,0.0,0.0,0.0,0.0,0.0,0.0,0.0,0.0,0.0,0.0,0.0,0.0,0.0,0.0,0.0,0.0,0.0,0.0,0.0,0.0,0.0,0.0,0.0,1.4181,1.3519,1.292,1.2305,1.149,1.0737,1.004,0.921,0.8376,0.0,0.0,0.0,0.0,0.0,0.0,0.0,0.0,0.0,0.0,0.0,0.0,0.0,0.0,0.0,0.0,0.0,0.0,0.0,0.0,0.0,0.0,0.0,0.0,0.0,0.0,0.0,0.0,0.0,0.0,0.0,0.0,0.0,0.0,0.0,0.0,0.0,0.0,0.0,0.0,-1.2987,-0.9672,-0.6123,0.0,0.0,0.0,0.0,0.0,0.0,0.6816,0.7454,0.0,0.0,0.0,0.0,0.0,0.0,0.0,0.0,0.0,0.0,0.0,0.0,0.0,0.0,0.0,0.0,0.0,0.0,0.0,0.0,0.0,0.0,0.0,0.0,0.0,0.0,0.0,0.0,0.0,0.0,0.0,0.0,0.0,0.0,0.0,0.0,0.0,0.0,0.0,0.0,0.0,0.0,0.0,0.0,0.0,0.0,0.0,0.0,0.0,0.0,0.0,0.0,0.0,0.0,0.0,1.4756,1.4103,1.339,1.2728,1.1926,1.1178,1.0428,0.9588,0.8737,0.0,0.0,0.0,0.0,0.0,0.0,0.0,0.0,0.0,0.0,0.0,0.0,0.0,0.0,0.0,0.0,0.0,0.0,0.0,0.0,0.0,0.0,0.0,0.0,0.0,0.0,0.0,0.0,0.0,0.0,0.0,0.0,0.0,0.0,0.0,0.0,0.0,0.0,0.0,0.0,0.0,-0.6379,-0.3219,0.0702,0.0,0.0,0.0,0.0,0.6942,0.7595,0.0,0.0,0.0,0.0,0.0,0.0,0.0,0.0,0.0,0.0,0.0,0.0,0.0,0.0,0.0,0.0,0.0,0.0,0.0,0.0,0.0,0.0,0.0,0.0,0.0,0.0,0.0,0.0,0.0,0.0,0.0,0.0,0.0,0.0,0.0,0.0,0.0,0.0,0.0,0.0,0.0,0.0,0.0,0.0,0.0,0.0,0.0,0.0,0.0,0.0,0.0,0.0,0.0,0.0,0.0,0.0,1.5758,1.4942,1.4231,1.3571,1.2658,1.1794,1.0919,1.0155,0.9156,0.0,0.0,0.0,0.0,0.0,0.0,0.0,0.0,0.0,0.0,0.0,0.0,0.0,0.0,0.0,0.0,0.0,0.0,0.0,0.0,0.0,0.0,0.0,0.0,0.0,0.0,0.0,0.0,0.0,0.0,0.0,0.0,0.0,0.0,0.0,0.0,0.0,0.0,0.0,0.0,0.0,-0.3282,-0.2173,0.1624,0.463,0.0,0.0,0.0,0.8122,0.8822,0.0,0.0,0.0,0.0,0.0,0.0,0.0,0.0,0.0,0.0,0.0,0.0,0.0,0.0,0.0,0.0,0.0,0.0,0.0,0.0,0.0,0.0,0.0,0.0,0.0,0.0,0.0,0.0,0.0,0.0,0.0,0.0,0.0,0.0,0.0,0.0,0.0,0.0,0.0,0.0,0.0,0.0,0.0,0.0,0.0,0.0,0.0,0.0,0.0,0.0,0.0,0.0,0.0,0.0,0.0,1.7067,1.6425,1.5796,1.5157,1.4392,1.3442,1.2493,1.1616,1.0581,0.953,0.0,0.0,0.0,0.0,0.0,0.0,0.0,0.0,0.0,0.0,0.0,0.0,0.0,0.0,0.0,0.0,0.0,0.0,0.0,0.0,0.0,0.0,0.0,0.0,0.0,0.0,0.0,0.0,0.0,0.0,0.0,0.0,0.0,0.0,0.0,0.0,0.0,0.0,0.0,0.0,0.0,0.0,0.1148,0.3668,0.0,0.0,0.0,0.8132,0.8734,0.0,0.0,0.0,0.0,0.0,0.0,0.0,0.0,0.0,0.0,0.0,0.0,0.0,0.0,0.0,0.0,0.0,0.0,0.0,0.0,0.0,0.0,0.0,0.0,0.0,0.0,0.0,0.0,0.0,0.0,0.0,0.0,0.0,0.0,0.0,0.0,0.0,0.0,0.0,0.0,0.0,0.0,0.0,0.0,0.0,0.0,0.0,0.0,0.0,0.0,0.0,0.0,0.0,0.0,0.0,0.0,0.0,1.7313,1.68,1.6115,1.5205,1.4344,1.3336,1.2208,1.1203,0.0,0.0,0.0,0.0,0.0,0.0,0.0,0.0,0.0,0.0,0.0,0.0,0.0,0.0,0.0,0.0,0.0,0.0,0.0,0.0,0.0,0.0,0.0,0.0,0.0,0.0,0.0,-1.5387,0.0,0.0,0.0,0.0,0.0,0.0,0.0,0.0,0.0,0.0,0.0,0.0,0.0,0.0,0.0809,0.4125,0.5531,0.6491,0.0,0.0,0.8938,0.9415,1.0114,1.069,0.0,0.0,0.0,0.0,0.0,0.0,0.0,0.0,0.0,0.0,0.0,0.0,0.0,0.0,0.0,0.0,0.0,0.0,0.0,0.0,0.0,0.0,0.0,0.0,0.0,0.0,0.0,0.0,0.0,0.0,0.0,0.0,0.0,0.0,0.0,0.0,0.0,0.0,0.0,0.0,0.0,0.0,0.0,0.0,0.0,0.0,0.0,0.0,0.0,0.0,0.0,0.0,0.0,0.0,0.0,1.8555,1.807,1.7169,1.5986,1.521,1.4063,1.2628,1.1936,1.0986,0.0,0.0,0.0,0.0,0.0,0.0,0.0,0.0,0.0,0.0,0.0,0.0,0.0,0.0,0.0,0.0,0.0,0.0,0.0,0.0,0.0,0.0,0.0,0.0,0.0,0.0,0.0,0.0,0.0,0.0,0.0,0.0,0.0,0.0,0.0,0.0,0.0,0.0,0.0,0.0,0.0,0.4294,0.5658,0.664,0.7499,0.0,0.0,0.9908,1.0485,1.119,1.1796,1.2297,0.0,0.0,0.0,0.0,0.0,0.0,0.0,0.0,0.0,0.0,0.0,0.0,0.0,0.0,0.0,0.0,0.0,0.0,0.0,0.0,0.0,0.0,0.0,0.0,0.0,0.0,0.0,0.0,0.0,0.0,0.0,0.0,0.0,0.0,0.0,0.0,0.0,0.0,0.0,0.0,0.0,0.0,0.0,0.0,0.0,0.0,0.0,0.0,0.0,0.0,0.0,0.0,0.0,1.952,1.8956,1.8222,1.7393,1.6537,1.5793,1.4831,1.363,1.2881,1.1851,0.0,0.0,0.0,0.0,0.0,0.0,0.0,0.0,0.0,0.0,0.0,0.0,0.0,0.0,0.0,0.0,0.0,0.0,0.0,0.0,0.0,0.0,0.0,0.0,0.0,0.0,0.0,0.0,-1.3691,-1.2348,-1.0558,0.0,0.0,0.0,0.0,0.0,0.0,0.0,0.0,0.0,0.0,0.5655,0.6534,0.7503,0.0,0.0,0.9821,1.0549,1.1124,1.1778,1.2323,1.2676,1.3152,0.0,0.0,0.0,0.0,0.0,0.0,0.0,0.0,0.0,0.0,0.0,0.0,0.0,0.0,0.0,0.0,0.0,0.0,0.0,0.0,0.0,0.0,0.0,0.0,0.0,0.0,0.0,0.0,0.0,0.0,0.0,0.0,0.0,0.0,0.0,0.0,0.0,0.0,0.0,0.0,0.0,0.0,0.0,0.0,0.0,0.0,0.0,0.0,0.0,0.0,0.0,0.0,1.994,1.9283,1.8661,1.7922,1.7147,1.6534,1.5661,1.4569,1.3846,1.2908,0.0,0.0,0.0,0.0,0.0,0.0,0.0,0.0,0.0,0.0,0.0,0.0,0.0,0.0,0.0,0.0,0.0,0.0,0.0,0.0,0.0,0.0,0.0,0.0,0.0,0.0,0.0,0.0,-1.0301,-0.8258,-0.5008,0.0,0.0,0.0,0.0,0.0,0.0,0.0,0.0,0.0,0.0,0.6686,0.745,0.8302,0.904,0.9621,1.0344,1.1074,1.1569,1.2175,1.2676,1.3017,0.0,0.0,0.0,0.0,0.0,0.0,0.0,0.0,0.0,0.0,0.0,0.0,0.0,0.0,0.0,0.0,0.0,0.0,0.0,0.0,0.0,0.0,0.0,0.0,0.0,0.0,0.0,0.0,0.0,0.0,0.0,0.0,0.0,0.0,0.0,0.0,0.0,0.0,0.0,0.0,0.0,0.0,0.0,0.0,0.0,0.0,0.0,0.0,0.0,0.0,0.0,0.0,0.0,0.0,1.9781,1.9609,1.9016,1.7991,1.7568,1.6712,1.5433,1.4903,1.4193,1.329,0.0,0.0,0.0,0.0,0.0,0.0,0.0,0.0,0.0,0.0,0.0,0.0,0.0,0.0,0.0,0.0,0.0,0.0,0.0,0.0,0.0,0.0,0.0,0.0,0.0,0.0,-0.8174,-0.4031,-0.0038,0.0,0.0,0.0,0.0,0.0,0.0,0.0,0.0,0.0,0.0,0.6966,0.761,0.8461,0.9047,0.9621,1.03,1.0922,1.1477,1.2026,1.2431,1.2871,0.0,0.0,0.0,0.0,0.0,0.0,0.0,0.0,0.0,0.0,0.0,0.0,0.0,0.0,0.0,0.0,0.0,0.0,0.0,0.0,0.0,0.0,0.0,0.0,0.0,0.0,0.0,2.1541,2.1554,0.0,0.0,0.0,0.0,0.0,0.0,0.0,0.0,0.0,0.0,0.0,2.3377,2.3595,0.0,0.0,0.0,0.0,0.0,0.0,0.0,0.0,0.0,0.0,0.0,0.0,2.0533,2.0197,1.9623,1.9072,1.849,1.8153,1.7553,1.6689,1.6305,1.5528,1.4321,0.0,0.0,0.0,0.0,0.0,0.0,0.0,0.0,0.0,0.0,0.0,0.0,0.0,0.0,0.0,0.0,0.0,0.0,0.0,0.0,0.0,0.0,0.0,0.0,0.0,-0.7515,0.0,0.0,0.0,0.0,0.0,0.0,0.0,0.0,0.0,0.0,0.0,0.6902,0.7545,0.8078,0.8666,0.9197,0.9829,1.0454,0.0,0.0,0.0,0.0,0.0,0.0,0.0,0.0,0.0,0.0,0.0,0.0,0.0,0.0,1.61,1.6175,1.6349,1.6522,1.662,0.0,0.0,0.0,0.0,0.0,0.0,0.0,0.0,0.0,0.0,0.0,0.0,0.0,0.0,0.0,0.0,2.2249,0.0,0.0,0.0,0.0,0.0,0.0,0.0,0.0,2.3739,2.3867,2.3937,2.423,2.4451,0.0,2.3967,2.3475,0.0,0.0,0.0,0.0,0.0,0.0,0.0,0.0,2.0691,2.0449,1.9912,1.9522,1.9214,1.8991,1.8559,1.7959,1.7477,1.6693,1.568,1.4992,1.4347,0.0,0.0,0.0,0.0,0.0,0.0,0.0,0.0,0.0,0.0,0.0,0.0,0.0,0.0,0.0,0.0,0.0,0.0,0.0,0.0,0.0,0.0,0.0,-0.1264,0.0,0.0,0.0,0.0,0.0,0.0,0.0,0.0,0.0,0.7906,0.7865,0.8137,0.8606,0.9124,0.9547,0.9969,0.0,0.0,0.0,0.0,0.0,0.0,0.0,1.3552,1.3847,1.4186,1.4477,1.4708,1.5255,1.5647,1.5836,0.0,0.0,1.6436,1.6534,1.662,1.6833,1.6973,1.7128,1.7282,1.7419,1.7569,0.0,0.0,0.0,0.0,0.0,0.0,0.0,0.0,2.2889,2.2934,0.0,2.2934,0.0,0.0,0.0,0.0,0.0,0.0,0.0,0.0,2.4261,2.4426,2.463,2.4839,2.4997,2.5098,2.4532,2.3951,2.3363,2.2362,0.0,0.0,0.0,0.0,0.0,0.0,2.0828,2.063,2.0548,2.0413,2.0243,1.9965,1.9666,1.9222,1.8387,1.7746,1.7247,1.6793,1.6273,1.5568,1.454,0.0,0.0,0.0,0.0,0.0,0.0,0.0,0.0,0.0,0.0,0.0,0.0,0.0,0.0,0.0,0.0,0.0,0.0,0.0,0.0,0.3341,0.0,0.0,0.0,0.0,0.0,0.0,0.0,0.0,0.0,0.0,0.928,0.9197,0.9413,0.9814,0.0,0.0,0.0,0.0,1.1719,1.2224,1.2529,1.2871,1.3324,1.3563,1.381,1.4326,0.0,0.0,1.5062,1.5525,1.5824,1.6001,1.6262,1.6522,1.6509,1.6675,1.6791,1.7115,1.7199,1.7269,1.7488,1.7625,1.772,2.5061,0.0,0.0,0.0,0.0,2.3377,2.3421,2.3377,2.3406,2.3377,2.3421,2.3523,0.0,0.0,0.0,0.0,0.0,0.0,2.4558,2.4679,2.491,2.5084,2.5185,2.5384,2.5551,2.5631,2.4498,2.3933,2.3852,2.2599,2.1849,2.1631,0.0,0.0,0.0,0.0,2.1291,2.1213,2.1166,2.1087,2.1007,2.0813,2.0485,1.9989,1.9483,1.9016,1.8551,1.8257,1.7812,1.7234,1.6239,0.0,0.0,0.0,0.0,0.0,0.0,0.0,0.0,0.0,0.0,0.0,0.0,0.0,0.0,0.0,0.0,0.0,0.0,0.0,0.4586,0.6833,0.8423,0.0,0.0,0.0,0.0,0.0,0.0,0.0,0.0,0.0,1.1334,1.0736,1.049,0.0,0.0,1.136,1.1669,1.2026,1.2372,1.2735,0.0,0.0,0.0,1.4046,1.428,1.4569,1.4926,1.5289,1.5558,1.5869,1.6144,1.6349,1.6534,1.6705,1.696,1.7031,1.7073,1.7199,1.731,1.7447,1.7625,1.776,1.7868,2.6601,2.5479,2.4633,2.4137,2.3867,2.3867,2.3867,2.3867,2.3867,2.3909,2.3952,2.4051,2.4135,2.4204,2.4395,0.0,0.0,0.0,2.5091,2.523,2.547,2.5584,2.5626,2.5868,2.5881,2.562,2.458,2.3994,2.3866,2.2748,2.213,2.1969,0.0,0.0,2.1811,2.184,2.1869,2.1869,2.1777,2.1731,2.1702,2.1521,2.1228,2.083,2.0454,2.0169,1.9893,1.9611,1.9251,1.8867,1.7653,1.6645,0.0,0.0,0.0,0.0,0.0,0.0,0.0,0.0,0.0,0.0,0.0,-0.2066,0.0,0.0,0.0,0.0,0.1006,0.4989,0.833,0.9525,0.0,0.0,0.0,0.0,0.0,0.0,0.0,1.2841,1.2851,1.2822,1.2735,1.2286,1.195,1.1778,1.1959,1.2206,1.2461,0.0,1.2997,1.3372,1.3515,1.381,1.4197,1.443,1.4651,1.4971,1.5334,1.5691,1.5913,1.6144,1.6405,1.662,1.6778,1.696,1.7267,1.7337,1.7419,1.7419,1.7529,1.7693,1.7788,1.7909,1.8029,2.7906,2.7063,2.5928,2.5033,2.4359,2.4343,2.4343,2.4359,2.4359,2.4441,2.4539,2.4539,2.4686,2.4855,2.5052,0.0,0.0,2.5432,2.5567,2.5758,2.5864,2.599,2.6082,2.6314,2.6084,2.5313,2.4816,2.4224,2.3608,2.2901,2.2605,2.2712,2.2487,2.2349,2.2338,2.2377,2.2432,2.2432,2.2364,2.2341,2.2341,2.2096,2.1866,2.1672,2.1428,2.1274,2.118,2.0862,2.0616,2.0369,1.8883,1.7894,1.7597,0.0,0.0,0.0,0.0,0.0,0.0,0.0,0.0,0.0,0.0,0.0,0.0,0.0,0.0,0.0,0.6637,0.0,1.0461,1.1685,0.0,0.0,0.0,1.3956,1.4107,1.4107,1.4061,1.3967,0.0,0.0,0.0,0.0,1.3573,1.2754,1.2783,1.2957,1.3054,1.3314,1.361,1.401,1.4057,1.4208,1.4651,1.4789,1.5017,1.5468,1.5691,1.5969,1.6188,1.6436,1.665,1.6876,1.7073,1.7295,1.7404,1.7597,1.772,1.772,1.7828,1.7895,1.8016,1.8095,1.8189,2.9016,2.8297,2.749,2.6236,2.4846,2.4846,2.4846,2.4846,2.4831,2.4886,2.495,2.5084,2.5217,2.541,2.5621,2.5733,2.5787,2.5954,2.6066,2.6227,2.6243,2.6367,2.6521,2.6759,2.6435,2.5671,2.5124,2.4534,2.3798,2.3154,2.2825,2.2919,2.2902,2.2799,2.2623,2.2659,2.2729,2.2694,2.2747,2.2756,2.2756,2.2668,2.2544,2.2395,2.2214,2.2046,2.1931,2.1774,2.1565,2.135,2.0443,1.9596,1.8847,1.7967,0.0,0.0,0.0,0.0,0.0,0.0,0.0,0.0,0.0,0.7836,0.4353,0.0,0.8022,0.0,1.0182,1.192,1.3065,1.3607,0.0,0.0,1.4959,1.5174,1.5219,1.5209,1.5164,1.5017,1.4983,1.4858,1.4628,1.4628,1.4536,1.4201,1.392,1.3779,1.3884,1.3941,1.4129,1.4466,1.4523,1.4662,1.5085,1.539,1.5671,1.5969,1.6175,1.6392,1.6547,1.6833,1.7073,1.7115,1.7282,1.7488,1.776,1.7842,1.7922,1.8029,1.8029,1.8016,1.8135,1.8214,1.8279,2.9704,2.9017,2.8281,2.7215,2.5999,2.5484,2.5262,2.5262,2.5262,2.5355,2.5454,2.5642,2.577,2.5844,2.6046,2.6134,2.6118,2.633,2.6504,2.6674,2.6674,2.6775,2.6923,2.7087,2.6585,2.5549,2.5265,2.4597,2.3615,2.3212,2.307,2.3144,2.3193,2.3168,2.302,2.2995,2.2977,2.2977,2.307,2.3119,2.3102,2.3095,2.3028,2.2925,2.2824,2.2721,2.2643,2.2476,2.2351,2.2207,2.1468,2.0812,2.0295,1.9647,1.9087,0.0,0.0,0.0,0.0,0.0,0.0,0.0,0.0,0.0,0.0,0.0,1.1908,0.0,1.3215,0.0,1.5028,1.5445,1.5758,1.6009,1.6219,1.633,1.6299,1.6182,1.6095,1.6051,1.5876,1.57,1.5567,1.549,1.5457,1.5412,1.513,1.4858,1.4593,1.4593,1.4789,1.5017,1.5108,1.5244,1.5614,1.5925,1.6132,1.6374,1.6577,1.6748,1.6876,1.7128,1.7337,1.7461,1.7611,1.7733,1.7989,1.8043,1.8083,1.8189,1.8254,1.8214,1.8254,1.8333,1.8411,3.022,2.9589,2.881,2.808,2.74,2.6323,2.5798,2.568,2.5696,2.5791,2.5954,2.617,2.6241,2.6277,2.64,2.6453,2.6487,2.6657,2.6842,2.704,2.7055,2.712,2.7261,2.7386,2.6748,2.5418,2.5362,2.4664,2.34,2.3276,2.3247,2.3336,2.3407,2.343,2.343,2.3336,2.3265,2.3247,2.3383,2.343,2.343,2.343,2.3407,2.3342,2.3313,2.3247,2.3247,2.308,2.2996,2.2979,2.2275,2.1825,2.172,2.1171,2.0855,0.0,2.0459,0.0,0.0,0.0,0.0,0.0,0.0,0.0,0.0,1.5372,1.4697,1.4916,1.5878,1.6544,1.6728,1.7223,1.745,1.7354,1.7422,1.7449,1.7352,1.7131,1.6951,1.6909,1.6667,1.6484,1.6398,1.6337,1.6318,1.6275,1.6231,1.5957,1.5355,1.5334,1.5435,1.5591,1.568,1.5856,1.6188,1.6362,1.6522,1.6761,1.6888,1.7044,1.724,1.7391,1.7569,1.7842,1.7922,1.8003,1.8202,1.8242,1.8268,1.8358,1.845,1.8503,1.8411,1.845,1.8542,3.073,3.0563,2.9844,2.9109,2.8373,2.7621,2.6845,2.6082,2.6082,2.6118,2.6225,2.6434,2.6537,2.6537,2.6708,2.6825,2.6892,2.6973,2.7135,2.7327,2.7373,2.7434,2.7526,2.7672,2.7274,2.6405,2.5826,2.5128,2.4342,2.3726,2.3494,2.3539,2.3611,2.3656,2.3634,0.0,0.0,0.0,2.3634,2.3634,2.3634,2.3656,2.3674,2.3718,2.3634,0.0,2.3602,2.3522,2.3459,2.3459,2.336,0.0,0.0,0.0,0.0,0.0,0.0,0.0,0.0,0.0,0.0,0.0,2.1836,2.058,1.8215,1.7231,1.7015,1.7737,1.7943,1.818,1.8576,1.8574,1.8612,1.8559,1.8447,1.8344,1.8266,1.8001,1.7787,1.7625,1.7503,1.7338,1.7102,1.7031,1.696,1.6833,1.6748,1.6693,1.6522,1.6219,1.6044,1.6151,1.625,1.6423,1.6705,1.6778,1.6931,1.7196,1.728,1.7391,1.7543,1.7706,1.7828,1.7975,1.8055,1.8202,1.84,1.8439,1.8503,1.8669,1.8707,1.8721,1.862,1.8683,1.876,3.1207,0.0,3.0395,2.9651,0.0,2.8181,2.7418,2.6589,2.6469,2.6504,2.6572,2.6742,2.6809,2.6859,2.699,2.7087,2.7201,2.7293,2.7417,2.7569,2.763,2.7689,2.7813,2.7911,2.7589,2.6819,2.609,2.5383,2.4724,2.3983,2.3629,2.3652,2.37,2.3725,2.375,2.381,2.381,2.375,2.3728,2.3771,2.3852,2.3831,2.3852,2.3891,0.0,0.0,0.0,0.0,0.0,0.0,0.0,0.0,0.0,0.0,0.0,2.3112,2.2936,2.2931,2.316,2.3017,2.2893,2.2883,2.2623,2.1652,1.9774,1.9379,1.9332,1.9513,1.9671,1.9765,1.9917,1.9798,1.9651,1.9543,1.9376,1.9192,1.9109,1.8907,1.8664,1.8461,1.8279,1.8082,1.7868,1.7774,1.7611,1.7475,1.7434,1.7447,1.7323,1.6934,1.6637,1.6723,1.6808,1.6905,1.7086,1.717,1.7295,1.7515,1.7625,1.7733,1.7814,1.7949,1.8083,1.8228,1.8307,1.8439,1.8567,1.8644,1.8683,1.8798,1.8836,1.8903,1.8865,1.8812,1.8822,3.15,3.1466,3.0834,3.0031,2.916,2.8596,2.7877,2.7072,0.0,0.0,0.0,2.704,2.7087,2.7166,2.7213,2.7307,2.7448,2.7587,2.7659,2.776,2.7818,2.7922,2.8042,2.8081,2.7825,2.7227,2.6509,2.5769,2.5085,2.4316,2.3869,2.3743,2.3807,2.3831,2.3837,2.3937,2.3937,2.3876,2.3819,2.3896,2.3978,2.3978,2.4016,2.4016,2.4054,2.4074,2.4133,2.4133,2.4152,2.4228,2.4229,2.4248,2.4266,2.4391,2.4491,2.4551,2.4198,2.4022,2.4149,2.3733,2.3454,2.3443,2.3095,2.2434,2.1344,2.1341,2.1285,2.0954,2.1171,2.1227,2.1054,2.0813,2.0599,2.0447,2.0227,2.0054,1.9889,1.9711,1.9464,1.9258,1.8959,1.8731,1.8616,1.8436,1.8307,1.8161,1.8121,1.8121,1.7975,1.7516,1.7173,1.7282,1.7323,1.7365,1.7461,1.7529,1.7652,1.7788,1.7935,1.8028,1.8082,1.8175,1.8361,1.8503,1.8542,1.862,1.8798,1.8836,1.8822,1.8836,1.8927,1.9017,1.9017,1.8912,1.8912,3.15,3.15,3.1397,3.0526,2.9194,2.9283,2.8574,2.7438,2.7166,2.7053,2.707,2.7261,2.7341,2.7373,2.7434,2.7539,2.7624,2.7672,2.7777,0.0,2.8025,2.8081,2.8182,2.8246,2.8246,2.8138,2.7399,2.6633,2.593,2.5181,2.4502,2.3967,2.3935,2.3976,2.3976,2.3996,2.4016,2.4054,2.3996,2.3976,2.3978,2.3978,2.4054,2.417,2.417,2.419,2.4284,2.4266,2.4303,2.4376,2.4411,2.4481,2.453,2.466,2.4768,2.4847,2.4936,2.5041,2.5189,2.5205,2.5208,2.5162,2.4938,2.4181,2.2753,2.2379,2.2331,2.2501,2.2346,2.2147,2.1936,2.1625,2.1368,2.1229,2.1007,2.0747,2.0514,2.0361,2.0139,1.9844,1.9645,1.942,1.9184,1.9049,1.8912,1.8745,1.8669,1.8616,1.8475,1.8095,1.7788,1.7788,1.7801,1.7828,1.7895,1.7908,1.8016,1.8109,1.8201,1.8319,1.8386,1.8503,1.862,1.8745,1.8745,1.8836,1.8941,1.8979,1.9003,1.9026,1.9101,1.9116,1.9116,1.9064,1.9064,3.1837,3.1837,3.1819,3.1163,3.0058,2.9349,2.8476,2.7531,2.7417,2.7355,2.7324,2.7404,2.7496,2.7569,2.76,2.7689,2.7864,2.7911,2.7979,2.8081,2.8164,2.8264,2.83,2.8398,2.8432,2.8404,2.7687,2.72,2.6789,2.5691,2.4935,2.4593,2.4253,2.4036,2.4074,2.4094,2.4132,2.4133,2.4094,2.4074,2.4113,2.4114,2.4134,2.4209,2.4228,2.4284,2.4339,2.4412,2.4429,2.4464,2.4547,2.4613,2.4645,2.4802,2.4931,2.4955,2.5153,2.5313,2.5434,2.5578,2.5605,2.5563,2.5395,2.4995,2.4219,2.3702,2.3428,2.337,2.3124,2.2848,2.2617,2.2324,2.2074,2.1907,2.1642,2.1399,2.1166,2.0991,2.0763,2.0465,2.0243,2.0035,1.9788,1.9588,1.9442,1.931,1.9161,1.8997,1.8945,1.8707,1.845,1.8282,1.8242,1.8228,1.8254,1.8333,1.8386,1.8478,1.8528,1.8592,1.8644,1.8721,1.8798,1.895,1.8988,1.9026,1.9168,1.9205,1.9242,1.928,1.925,1.925,1.9265,1.925,1.9176,3.2108,3.2108,3.2108,3.1568,3.0575,2.9318,2.8289,2.7622,2.7647,2.7677,2.7617,2.7587,2.7677,2.776,2.7777,2.7864,2.8014,2.8099,2.8154,2.8237,2.8318,2.8353,2.8432,2.8484,2.8536,2.8471,2.8009,2.77,2.7391,2.6308,2.5567,2.5223,2.4478,2.4113,2.4113,2.417,2.419,2.419,2.4152,2.4152,2.4209,2.421,2.421,2.4247,2.4303,2.4358,2.443,2.4482,2.4515,2.4512,2.4626,2.4726,2.4738,2.4903,2.4993,2.505,2.5209,2.536,2.5511,2.5632,2.5683,2.5618,2.5498,2.5391,2.5216,2.4782,2.4348,2.3986,2.3702,2.3459,2.3212,2.293,2.2695,2.2476,2.2248,2.201,2.179,2.1584,2.1371,2.1119,2.0845,2.063,2.0413,2.0174,1.9965,1.9839,1.9588,1.9427,1.9369,1.931,1.9139,1.8889,1.8697,1.862,1.862,1.8711,1.8774,1.8774,1.8836,1.8912,1.895,1.895,1.8988,1.9139,1.9191,1.9228,1.9354,1.9391,1.9391,1.9391,1.9391,1.9391,1.9391,1.9339,1.9302,3.2108,3.2108,3.2108,3.1289,2.9977,2.9201,2.8491,2.7912,2.7929,2.7986,2.7929,2.7888,2.79,2.7986,2.7968,2.8042,2.8099,2.8154,2.8237,2.83,2.8353,2.8432,2.8466,2.8492,2.8587,2.8669,2.8585,2.8191,2.7679,2.7488,2.675,2.5436,2.4593,2.4208,2.4208,2.4208,2.419,2.419,2.4191,2.4192,2.4192,2.4192,2.4266,2.4375,2.4394,2.443,2.4482,2.4515,2.453,2.458,2.4679,2.4738,2.4798,2.4926,2.5013,2.5091,2.5233,2.5374,2.5581,2.5654,2.5703,2.5689,2.5621,2.5523,2.5387,2.5225,2.493,2.45,2.4192,2.3961,2.3735,2.3459,2.323,2.2965,2.2773,2.2598,2.2275,2.2051,2.1882,2.1751,2.1417,2.1166,2.0942,2.0747,2.0579,2.0326,2.0135,1.9945,1.9904,1.9818,1.9696,1.953,1.9288,1.9064,1.9064,1.9064,1.9078,1.9078,1.9139,1.9213,1.9228,1.9265,1.9339,1.9339,1.9376,1.9376,1.9413,1.9428,1.9413,1.9465,1.945,1.9413,1.9428,1.9428,1.9391,3.2353,3.2404,3.2404,3.1507,3.0198,2.981,2.9059,2.801,2.7968,2.8014,2.8071,2.8032,2.8014,2.8053,2.8071,2.8126,2.8219,2.8264,2.83,2.8432,2.8458,2.8484,2.8562,2.8562,2.8612,2.8694,2.8737,2.8646,2.8346,2.7958,2.7196,2.6135,2.5291,2.4905,2.485,2.4428,2.4209,2.4191,2.4192,2.4229,2.4321,2.4321,2.4339,2.4394,2.4447,2.4464,2.4497,2.4547,2.4599,2.4666,2.4723,2.4798,2.4856,2.4985,2.5069,2.5157,2.5313,2.5456,2.5595,2.5662,2.5697,2.5701,2.5637,2.5565,2.5518,2.541,2.5186,2.493,2.4579,2.4338,2.4115,2.3899,2.3631,2.3392,2.3194,2.2985,2.2756,2.2527,2.2354,2.2158,2.1899,2.1645,2.1462,2.1261,2.1023,2.0745,2.0579,2.0444,2.0323,2.0204,2.0135,2.0045,1.9854,1.9639,1.9493,1.9398,1.9413,1.9376,1.9376,1.9339,1.9376,1.9376,1.9413,1.9487,1.9538,1.956,1.9596,1.9596,1.9581,1.9596,1.9596,1.956,1.9523,1.9501,1.9501,3.2539,3.2606,3.2588,3.1845,3.0641,3.0424,2.9556,2.8397,2.8131,2.8081,2.8126,2.8154,2.8154,2.8154,2.8136,2.8191,2.83,2.8353,2.8388,2.8492,2.8536,2.8562,2.8587,2.8612,2.8662,2.8737,2.8785,2.8858,2.8837,2.8168,2.7493,2.6869,2.6117,2.5752,2.5698,2.5147,2.478,2.4579,2.4579,2.4524,2.4431,2.4412,2.443,2.443,2.4482,2.4498,2.4495,2.4564,2.4631,2.4682,2.4772,2.4842,2.4917,2.5031,2.5132,2.5239,2.5406,2.5524,2.5599,2.5648,2.5668,2.5703,2.5655,2.5603,2.5591,2.5506,2.539,2.5245,2.4949,2.4678,2.4425,2.4211,2.4019,2.3798,2.3562,2.3376,2.3206,2.2985,2.2799,2.2588,2.2326,2.2084,2.1853,2.1617,2.1355,2.1135,2.1023,2.0893,2.0728,2.0613,2.0545,2.046,2.0323,2.015,1.9869,1.9741,1.972,1.9683,1.9647,1.9596,1.956,1.956,1.9574,1.9741,1.972,1.972,1.9777,1.9762,1.9762,1.9726,1.9726,1.9705,1.9632,1.9632,1.9632,3.2588,3.2588,3.2588,3.2128,3.1384,3.0667,2.9982,2.9123,2.8475,2.8182,2.8209,2.8264,2.8282,2.83,2.83,2.83,2.8327,2.8414,2.8466,2.8518,2.8562,2.8587,2.8587,2.8662,2.8737,2.8785,2.8858,2.8929,2.8938,2.8227,2.7787,2.7695,2.6943,2.656,2.6604,2.6493,2.6184,2.5521,2.5504,2.5208,2.4579,2.452,2.4538,2.4538,2.45,2.4498,2.4513,2.4564,2.465,2.4682,2.4772,2.4823,2.4917,2.5012,2.5149,2.5283,2.5415,2.5536,2.5574,2.5613,2.5634,2.568,2.5702,2.5664,2.5613,2.5576,2.5518,2.5401,2.5245,2.501,2.4723,2.4508,2.4319,2.4173,2.3979,2.3795,2.3584,2.3376,2.3199,2.2995,2.2738,2.2426,2.2056,2.1869,2.1721,2.1556,2.1464,2.1293,2.1119,2.1071,2.0974,2.081,2.0677,2.0543,2.017,2.001,2.0005,1.997,1.997,1.997,1.997,1.9955,1.9955,1.9955,1.9935,1.9935,1.997,1.997,1.9899,1.9848,1.9797,1.9777,1.9741,1.9726,1.9726,3.2755,3.277,3.2787,3.2325,3.156,3.079,3.0065,2.939,2.8603,2.8291,2.8345,2.8371,2.8353,2.8353,2.8406,2.8414,2.8458,2.8466,2.8518,2.8562,2.8587,2.8587,2.8612,2.8662,2.8718,2.8785,2.8881,2.8929,2.8975,2.8705,2.8576,2.8448,2.7769,2.7405,2.7377,2.6935,2.6573,2.6373,2.6356,2.6227,2.5931,2.5522,2.5262,2.5243,2.476,2.4515,2.4564,2.4599,2.4647,2.476,2.4783,2.4837,2.4966,2.5075,2.5209,2.5303,2.5423,2.5529,2.5582,2.5615,2.5619,2.5691,2.5702,2.5699,2.5659,2.5625,2.5571,2.5518,2.541,2.5235,2.5053,2.4809,2.4588,2.4407,2.4248,2.4077,2.3878,2.3689,2.3491,2.3271,2.2995,2.2668,2.2436,2.2287,2.2147,2.1882,2.1823,2.1691,2.1464,2.1419,2.1325,2.1103,2.1006,2.0893,2.0679,2.0392,2.0235,2.025,2.0216,2.0216,2.02,2.0115,2.008,2.0096,2.0061,2.0076,2.0076,2.0061,1.999,1.9955,1.9919,1.9919,1.9884,1.9848,1.9848,3.2916,3.2979,3.2961,3.2675,3.2067,3.1017,3.0331,2.9797,2.8793,2.8353,2.838,2.845,2.8432,2.8432,2.851,2.8518,2.8518,2.8518,2.8562,2.8587,2.8587,2.8587,2.8612,2.8687,2.8761,2.881,2.8881,2.8952,2.8994,2.8975,2.8975,2.892,2.8433,2.8257,2.8209,2.7791,2.7463,2.7303,2.721,2.7137,2.686,2.6377,2.5949,2.5671,2.5205,2.4811,2.4617,2.4599,2.4663,2.4791,2.4817,2.4865,2.5025,2.5153,2.5233,2.5313,2.5415,2.5495,2.557,2.56,2.5625,2.5701,2.5697,2.5703,2.5694,2.5651,2.5613,2.5579,2.5511,2.5401,2.5274,2.5072,2.4874,2.4666,2.4493,2.4302,2.4135,2.3959,2.3714,2.3481,2.3217,2.297,2.2764,2.2676,2.2497,2.2231,2.2141,2.2044,2.1797,2.1708,2.1648,2.1419,2.1325,2.1214,2.1039,2.0811,2.0577,2.0509,2.0491,2.0441,2.0373,2.0289,2.0239,2.022,2.02,2.0181,2.0181,2.0131,2.0096,2.0096,2.0061,2.001,1.999,1.9955,2.0021,3.3086,3.3104,3.3104,3.305,3.2798,3.1487,3.0833,3.0474,2.9125,2.8496,2.8468,2.8484,2.851,2.8518,2.8562,2.8587,2.8587,2.8587,2.8587,2.8587,2.8587,2.8587,2.8612,2.8737,2.881,2.8828,2.8947,2.8975,2.8975,2.8975,2.8975,2.9017,2.9007,2.8964,2.9141,2.9018,2.8767,2.8251,2.8123,2.777,2.7027,2.6972,2.6619,2.5968,2.5818,2.5444,2.4711,2.4617,2.4663,2.4791,2.4817,2.4884,2.507,2.5164,2.5233,2.5284,2.5378,2.5441,2.5512,2.5565,2.5628,2.5687,2.5691,2.5702,2.5701,2.5707,2.5678,2.5619,2.5543,2.5452,2.5401,2.5322,2.5164,2.494,2.4716,2.454,2.4408,2.4229,2.3998,2.3682,2.3412,2.3241,2.3052,2.2927,2.279,2.2579,2.2497,2.2371,2.2101,2.2015,2.1911,2.1738,2.1617,2.1509,2.1386,2.1277,2.1023,2.081,2.0744,2.0677,2.061,2.0527,2.0512,2.0478,2.046,2.0407,2.0323,2.0323,2.0304,2.027,2.02,2.015,2.015,2.0146,2.0203,3.3104,3.3104,3.3104,3.3104,3.3009,3.202,3.1366,3.0792,2.9728,2.9007,2.8608,2.8562,2.8562,2.8587,2.8587,2.8587,2.8587,2.8587,2.8587,2.8612,2.8587,2.8587,2.8637,2.8755,2.8834,2.8929,2.897,2.8975,2.8975,2.8975,2.8975,2.8998,2.9044,2.9152,2.9218,2.9243,2.9138,2.9015,2.8998,2.8849,2.857,2.8031,2.7584,2.7344,2.6898,2.6245,2.5458,2.493,2.4729,2.4817,2.4813,2.4903,2.507,2.5164,2.5241,2.5283,2.5369,2.5434,2.5499,2.5549,2.563,2.5687,2.5696,2.5694,2.5703,2.57,2.5705,2.5655,2.5595,2.5543,2.5478,2.5401,2.5284,2.5068,2.4896,2.4746,2.4591,2.4338,2.4115,2.3896,2.3689,2.3513,2.3348,2.3247,2.3052,2.2842,2.2764,2.2642,2.2443,2.2315,2.2231,2.1986,2.1899,2.1811,2.1678,2.1556,2.1386,2.1183,2.1038,2.0909,2.0843,2.0794,2.0778,2.0712,2.0695,2.0628,2.0561,2.0478,2.046,2.0475,2.0392,2.0357,2.0323,2.0335,2.0343,3.3496,3.3214,3.3226,3.3226,3.3136,3.2397,3.1632,3.0893,3.0098,2.9285,2.8696,2.8587,2.8587,2.8587,2.8587,2.8612,2.8637,2.8637,2.8637,2.8662,2.8612,2.8612,2.8662,2.8785,2.89,2.8975,2.8975,2.8975,2.8975,2.8975,2.8975,2.9017,2.9108,2.9156,2.9218,2.9283,2.9365,2.9388,2.9388,2.9388,2.9295,2.8868,2.844,2.8087,2.7717,2.7084,2.6317,2.5581,2.5061,2.4888,2.487,2.4972,2.5101,2.5164,2.5222,2.5302,2.536,2.5437,2.5498,2.5544,2.559,2.5652,2.5681,2.5705,2.5699,2.5703,2.5697,2.5696,2.5644,2.5581,2.555,2.5483,2.5367,2.5224,2.5061,2.4883,2.4719,2.4461,2.4248,2.4096,2.3919,2.3774,2.3642,2.3526,2.3342,2.3102,2.302,2.2944,2.2712,2.2605,2.2426,2.2243,2.2175,2.2061,2.1915,2.1827,2.1751,2.154,2.1371,2.1199,2.1087,2.1038,2.099,2.0941,2.0892,2.0892,2.081,2.0695,2.0628,2.0579,2.0561,2.046,2.0426,2.0426,2.0531,3.4135,3.3429,3.3393,3.3393,3.3273,3.2632,3.1836,3.0948,3.0242,2.9445,2.8757,2.8612,2.8612,2.8594,2.8637,2.8662,2.8694,2.8694,2.8737,2.8737,2.8687,2.8662,2.8737,2.8834,2.8929,2.8975,2.8975,2.8975,2.8975,2.8975,2.8975,2.8998,2.913,2.9218,2.924,2.9344,2.9388,2.9388,2.9388,2.9388,2.9388,2.937,2.9016,2.8292,2.8314,2.7979,2.7194,2.6345,2.5562,2.4959,2.4991,2.507,2.5107,2.5164,2.5222,2.5282,2.537,2.5432,2.5488,2.5499,2.5549,2.5619,2.5671,2.5701,2.5697,2.5703,2.57,2.5705,2.5642,2.5609,2.5585,2.5551,2.5461,2.5387,2.5182,2.4962,2.4749,2.4561,2.4426,2.4321,2.4153,2.3958,2.3837,2.375,2.3594,2.3383,2.3289,2.3126,2.297,2.2816,2.2685,2.2552,2.2453,2.2332,2.2192,2.2106,2.2003,2.1886,2.1678,2.1542,2.1341,2.1262,2.1199,2.1135,2.1103,2.1103,2.1022,2.0876,2.081,2.081,2.0744,2.0577,2.0574,2.0655,2.1027,3.4135,3.3429,3.3393,3.3393,3.3375,3.314,3.227,3.1075,3.0857,2.9958,2.8923,2.8737,2.8755,2.8737,2.8737,2.8761,2.8761,2.8761,2.8804,2.8804,2.8761,2.8785,2.8834,2.8881,2.8929,2.8994,2.8975,2.8975,2.8975,2.8975,2.8975,2.8975,2.9134,2.9218,2.9218,2.9344,2.9407,2.9388,2.9388,2.9388,2.9388,2.9388,2.9295,2.9113,2.9117,2.8783,2.7997,2.6768,2.5684,2.4903,2.5004,2.5082,2.5095,2.5164,2.5212,2.5233,2.5341,2.5404,2.5426,2.5466,2.5537,2.559,2.5671,2.5701,2.5705,2.5698,2.5703,2.5698,2.5683,2.5658,2.5619,2.5579,2.5518,2.5395,2.5222,2.505,2.4893,2.4768,2.4663,2.4513,2.4393,2.421,2.4039,2.3958,2.3831,2.3638,2.3504,2.3412,2.3223,2.307,2.2919,2.2799,2.2694,2.2579,2.246,2.2377,2.2265,2.2163,2.202,2.1903,2.1694,2.1511,2.145,2.1371,2.131,2.1247,2.1183,2.1054,2.1054,2.1022,2.0957,2.0859,2.1,2.111,2.167,3.4727,3.3964,3.3608,3.3481,3.3481,3.3481,3.2736,3.1692,3.1247,3.0428,2.938,2.8913,2.8804,2.8804,2.8804,2.881,2.8834,2.8834,2.8858,2.8881,2.8881,2.8881,2.8905,2.8929,2.897,2.8994,2.8975,2.8975,2.8975,2.8975,2.8975,2.904,2.9134,2.9218,2.92,2.9326,2.9388,2.9388,2.9388,2.9388,2.9388,2.9388,2.939,2.9412,2.9454,2.9157,2.837,2.7573,2.6619,2.5616,2.52,2.507,2.5095,2.516,2.5209,2.5212,2.5322,2.5387,2.541,2.5471,2.5525,2.5574,2.5649,2.5668,2.5693,2.5689,2.57,2.5703,2.5696,2.5681,2.5648,2.56,2.5531,2.5437,2.5303,2.5153,2.5,2.4893,2.4798,2.4695,2.4566,2.4429,2.4248,2.4135,2.3998,2.3852,2.3703,2.3594,2.3458,2.3295,2.3193,2.3077,2.2927,2.279,2.2685,2.2605,2.2515,2.2388,2.2248,2.2163,2.1961,2.1754,2.1634,2.1556,2.1481,2.1419,2.1325,2.1278,2.1247,2.1215,2.1151,2.1151,2.1229,2.1658,2.2223,3.5549,3.4728,3.3933,3.3605,3.3605,3.3587,3.3113,3.2311,3.1527,3.0724,2.991,2.9162,2.8852,2.881,2.8834,2.8876,2.8905,2.8887,2.8929,2.8952,2.8994,2.897,2.8929,2.897,2.8994,2.8975,2.8975,2.8975,2.8975,2.8975,2.8975,2.904,2.9134,2.9178,2.924,2.9326,2.9388,2.9388,2.9388,2.9388,2.9388,2.9388,2.9411,2.9433,2.9492,2.927,2.88,2.8401,2.7829,2.645,2.5584,2.5234,2.5197,2.5156,2.5195,2.5231,2.5303,2.5369,2.5393,2.5476,2.5525,2.5556,2.56,2.5636,2.5684,2.5701,2.5694,2.5703,2.5702,2.5693,2.5665,2.5586,2.5525,2.5483,2.5432,2.5322,2.5153,2.4994,2.4874,2.4817,2.4711,2.4566,2.4446,2.4303,2.4192,2.4056,2.3935,2.381,2.3682,2.3526,2.343,2.336,2.3193,2.302,2.2919,2.2842,2.2712,2.2623,2.2487,2.2332,2.2147,2.1974,2.1844,2.1724,2.1678,2.1617,2.1573,2.1511,2.1419,2.1356,2.1341,2.1311,2.1376,2.2064,2.2684,3.5501,3.4746,3.3915,3.3605,3.3605,3.3587,3.3149,3.2392,3.1616,3.0892,3.0058,2.9295,2.8965,2.8965,2.8929,2.8952,2.8952,2.8975,2.8975,2.8975,2.8975,2.8994,2.8975,2.8994,2.8975,2.8975,2.8975,2.8975,2.8975,2.8975,2.8975,2.8998,2.9112,2.9218,2.9222,2.9326,2.9388,2.9388,2.9388,2.9388,2.9388,2.939,2.9431,2.9472,2.9589,2.957,2.9363,2.8889,2.8414,2.7824,2.6839,2.588,2.5349,2.5182,2.5195,2.5212,2.5264,2.5341,2.5415,2.5464,2.551,2.5525,2.5574,2.563,2.5683,2.569,2.5689,2.57,2.5703,2.5697,2.5684,2.5624,2.556,2.5512,2.5488,2.5443,2.5322,2.5184,2.5051,2.494,2.4842,2.4704,2.4578,2.4478,2.4374,2.4247,2.4134,2.4016,2.3873,2.3743,2.3656,2.3567,2.343,2.3241,2.3144,2.3028,2.2893,2.279,2.2659,2.2552,2.2371,2.2215,2.2089,2.1974,2.1869,2.1811,2.1768,2.1708,2.1617,2.1573,2.153,2.1679,2.1908,2.2587,2.3181,3.5893,3.5381,3.421,3.3698,3.3698,3.3698,3.346,3.2948,3.2243,3.1462,3.0656,2.9916,2.9384,2.9035,2.8975,2.8975,2.8975,2.8975,2.8975,2.8975,2.8975,2.8975,2.8975,2.8975,2.8975,2.8975,2.8975,2.8975,2.8975,2.8998,2.9017,2.9062,2.9156,2.9218,2.9262,2.9365,2.9388,2.9388,2.9388,2.9388,2.9388,2.9411,2.9471,2.9531,2.9645,2.9701,2.9608,2.9397,2.898,2.8504,2.7843,2.6887,2.5806,2.5329,2.518,2.5201,2.5262,2.5322,2.5397,2.5468,2.5515,2.5506,2.5562,2.562,2.5652,2.5681,2.5703,2.5696,2.5703,2.57,2.5693,2.5679,2.561,2.5549,2.5518,2.548,2.5415,2.5292,2.516,2.5057,2.4934,2.4837,2.4734,2.4642,2.4528,2.4392,2.4266,2.4153,2.4074,2.3933,2.3831,2.3725,2.3611,2.3476,2.336,2.3217,2.3045,2.2944,2.2868,2.2764,2.2642,2.2508,2.2371,2.2231,2.2089,2.1986,2.1945,2.1857,2.1797,2.1708,2.1779,2.2063,2.2458,2.2964,2.358,3.6285,3.6156,3.4486,3.3807,3.3807,3.3807,3.3788,3.366,3.2944,3.2155,3.1476,3.0632,2.9769,2.9287,2.903,2.8994,2.8975,2.8975,2.8975,2.8975,2.8975,2.8975,2.8975,2.8975,2.8975,2.8975,2.8975,2.8975,2.8975,2.9017,2.904,2.9108,2.9175,2.924,2.9302,2.9365,2.9388,2.9388,2.9388,2.9388,2.9409,2.9392,2.9491,2.9607,2.9683,2.9701,2.9719,2.9642,2.9468,2.8862,2.8806,2.8046,2.6934,2.5818,2.5201,2.5258,2.5252,2.5303,2.5397,2.544,2.5499,2.5511,2.555,2.559,2.5624,2.5671,2.5696,2.5691,2.5701,2.5702,2.5703,2.5697,2.5648,2.5615,2.555,2.5524,2.5492,2.5407,2.5282,2.516,2.5057,2.498,2.487,2.4749,2.4623,2.451,2.4409,2.4321,2.4228,2.4133,2.4016,2.3915,2.3828,2.3656,2.3544,2.3407,2.3241,2.3144,2.3045,2.297,2.2893,2.2747,2.2615,2.2415,2.2276,2.2175,2.2118,2.2061,2.1974,2.1886,2.1993,2.2214,2.2699,2.3342,2.3996,3.6285,3.6156,3.4504,3.3807,3.3807,3.3807,3.3807,3.366,3.2999,3.254,3.221,3.0907,3.0246,2.9843,2.9255,2.9012,2.9012,2.8975,2.8975,2.8975,2.8975,2.8975,2.8975,2.8975,2.8998,2.8975,2.8998,2.8998,2.8998,2.8998,2.9062,2.9108,2.9156,2.924,2.9323,2.9365,2.9388,2.9388,2.9388,2.939,2.9392,2.9453,2.9531,2.9664,2.9701,2.9682,2.9718,2.9773,2.9769,2.9649,2.9125,2.8711,2.807,2.6936,2.6058,2.5439,2.5241,2.5264,2.5378,2.5415,2.5445,2.5478,2.5518,2.5554,2.561,2.566,2.5687,2.5687,2.5701,2.5701,2.5687,2.5687,2.5664,2.5639,2.5599,2.5551,2.5503,2.5448,2.5407,2.5301,2.5195,2.5101,2.4993,2.4865,2.4764,2.4673,2.458,2.4479,2.4411,2.4321,2.4228,2.4133,2.4034,2.3871,2.37,2.3567,2.3424,2.3354,2.3241,2.3144,2.307,2.2995,2.2868,2.2685,2.2515,2.2388,2.2332,2.2248,2.2163,2.2032,2.2174,2.2345,2.3088,2.3819,2.4511,3.6767,3.6288,3.5073,3.43,3.3879,3.3842,3.3815,3.3733,3.3403,3.2999,3.2485,3.177,3.0944,3.0301,2.9861,2.9415,2.9108,2.8975,2.8975,2.8975,2.8975,2.8975,2.8998,2.8998,2.904,2.904,2.9062,2.9062,2.9062,2.9044,2.9108,2.9197,2.924,2.9283,2.9344,2.9386,2.9388,2.9388,2.939,2.9411,2.9394,2.9511,2.9607,2.9664,2.9683,2.9701,2.9718,2.9771,2.9825,2.9817,2.9649,2.9258,2.8732,2.812,2.7165,2.6121,2.5499,2.5264,2.5369,2.5395,2.5437,2.5505,2.5512,2.5543,2.56,2.5656,2.5701,2.5687,2.57,2.5702,2.5691,2.5698,2.5681,2.5656,2.562,2.5582,2.5564,2.5522,2.5468,2.5398,2.5292,2.5206,2.5113,2.5006,2.4912,2.4813,2.4707,2.4647,2.4566,2.4481,2.4357,2.4247,2.4152,2.3994,2.3828,2.3721,2.3589,2.3499,2.3448,2.3336,2.3241,2.3168,2.307,2.2944,2.2764,2.2579,2.2515,2.2415,2.2304,2.222,2.2281,2.2559,2.351,2.4331,2.4878,3.7248,3.6436,3.5623,3.4747,3.3994,3.3921,3.3895,3.386,3.3823,3.3493,3.2915,3.2603,3.1893,3.0919,3.0349,2.989,2.926,2.9191,2.9044,2.9044,2.9044,2.9044,2.9062,2.9062,2.9085,2.9112,2.9112,2.913,2.913,2.913,2.9197,2.924,2.9302,2.9344,2.9386,2.9388,2.9388,2.939,2.9392,2.9412,2.9453,2.955,2.9645,2.9683,2.9701,2.9719,2.9736,2.9789,2.9859,2.9926,2.9912,2.9779,2.9189,2.902,2.8377,2.7136,2.6055,2.5591,2.536,2.5387,2.5429,2.5485,2.5506,2.5543,2.5605,2.5656,2.5704,2.5691,2.5702,2.5703,2.5697,2.5687,2.569,2.5687,2.5634,2.5604,2.5589,2.555,2.5515,2.5451,2.537,2.5292,2.5176,2.5113,2.5006,2.4931,2.4832,2.4723,2.4645,2.458,2.4479,2.4358,2.4209,2.4074,2.3953,2.3852,2.3747,2.366,2.3589,2.3522,2.343,2.3354,2.3217,2.3119,2.297,2.279,2.2685,2.2596,2.2497,2.2415,2.2349,2.284,2.3849,2.4409,2.4863,3.7248,3.6436,3.565,3.4792,3.4072,3.3998,3.3972,3.3972,3.3972,3.3935,3.367,3.3142,3.2674,3.2109,3.0909,3.0374,3.006,2.9691,2.9429,2.9466,2.9411,2.9377,2.923,2.9197,2.9211,2.9215,2.9178,2.9197,2.9197,2.9197,2.924,2.9302,2.9323,2.9344,2.9388,2.939,2.9392,2.9412,2.9453,2.9511,2.9569,2.9645,2.9683,2.9701,2.9719,2.9736,2.9771,2.9842,2.9929,2.9975,3.0038,3.0045,2.9861,2.9287,2.9034,2.8344,2.7382,2.613,2.5562,2.5387,2.5429,2.5498,2.5518,2.5531,2.5581,2.5668,2.5693,2.5693,2.57,2.5703,2.57,2.5693,2.5698,2.5701,2.5675,2.5644,2.5613,2.5583,2.5543,2.5499,2.5423,2.5322,2.5241,2.5195,2.5132,2.5044,2.4931,2.4846,2.4738,2.4676,2.4596,2.4445,2.4339,2.4209,2.4094,2.4014,2.3915,2.381,2.3747,2.3678,2.3589,2.3499,2.3424,2.3289,2.3144,2.2977,2.2893,2.279,2.2659,2.2596,2.2515,2.3238,2.4208,2.4618,2.4906,3.7775,3.6581,3.6255,3.5284,3.4104,3.4049,3.4023,3.3979,3.3998,3.3998,3.3943,3.3666,3.3241,3.2631,3.1547,3.1085,3.1011,3.066,3.0567,3.0494,3.0457,3.029,2.9995,2.9865,2.9736,2.941,2.928,2.9283,2.9302,2.9339,2.9302,2.9344,2.9365,2.9368,2.9409,2.9392,2.9433,2.9453,2.9531,2.9588,2.9645,2.9683,2.9701,2.97,2.9699,2.9771,2.9842,2.9895,2.9945,3.0007,3.0072,3.0083,3.0085,2.983,2.957,2.8919,2.8472,2.7237,2.5754,2.5502,2.5476,2.549,2.5518,2.5531,2.5586,2.5648,2.5693,2.5705,2.5697,2.5703,2.5702,2.5697,2.5705,2.5687,2.5691,2.5667,2.5634,2.5587,2.5551,2.5517,2.5464,2.5397,2.5303,2.525,2.5191,2.512,2.5031,2.495,2.4846,2.4753,2.466,2.4547,2.4464,2.4339,2.4247,2.4152,2.4074,2.3976,2.3873,2.381,2.3747,2.3656,2.3567,2.3494,2.336,2.3223,2.3077,2.2944,2.279,2.2712,2.2649,2.3482,2.4271,2.47,2.5096,3.8284,3.6983,3.6779,3.5695,3.4161,3.4124,3.4099,3.4049,3.4049,3.4049,3.4049,3.3993,3.366,3.3068,3.239,3.1969,3.1945,3.176,3.1668,3.1649,3.1594,3.1261,3.0909,3.0705,3.0506,2.9898,3.0157,3.0163,3.0111,3.0018,2.9962,2.9425,2.937,2.9411,2.9431,2.9471,2.9511,2.9569,2.9607,2.9645,2.9701,2.9682,2.97,2.9699,2.9735,2.9789,2.9895,2.9929,2.9959,3.0022,3.0068,3.0113,3.0118,3.0125,2.9966,2.9473,2.911,2.8336,2.6969,2.6264,2.5754,2.5549,2.5538,2.5549,2.5586,2.5652,2.5693,2.5701,2.5696,2.5702,2.5703,2.5699,2.5691,2.5698,2.5701,2.5664,2.5639,2.5609,2.5576,2.5544,2.5522,2.5476,2.5407,2.5302,2.5228,2.5191,2.512,2.505,2.495,2.4832,2.4723,2.4629,2.4566,2.4464,2.4375,2.4284,2.4209,2.4133,2.4036,2.3955,2.3873,2.3789,2.3721,2.3634,2.3544,2.343,2.3289,2.3095,2.2919,2.2868,2.2972,2.3564,2.4202,2.4692,2.5371,3.8599,3.7745,3.7002,3.5757,3.4234,3.4197,3.4197,3.4173,3.4173,3.4191,3.4173,3.4154,3.4117,3.3839,3.3263,3.2873,3.2878,3.2135,3.2057,3.1964,3.1801,3.1871,3.1723,3.1648,3.1615,3.1429,3.1284,3.1362,3.1592,3.1275,3.0605,2.9655,2.971,2.9544,2.9492,2.9569,2.9607,2.9645,2.9664,2.9683,2.9682,2.97,2.9718,2.9735,2.9825,2.9895,2.9912,2.9943,2.9988,3.0068,3.0098,3.0123,3.018,3.0266,3.0132,2.9997,2.9632,2.904,2.83,2.7073,2.6227,2.5763,2.5543,2.5576,2.561,2.5671,2.569,2.5701,2.5694,2.5702,2.5703,2.5702,2.5696,2.5705,2.569,2.5694,2.5652,2.5625,2.5593,2.557,2.5557,2.5507,2.5459,2.537,2.5292,2.5228,2.518,2.5095,2.5004,2.4889,2.4817,2.4726,2.4647,2.4566,2.45,2.4411,2.4339,2.4284,2.4209,2.4095,2.3996,2.3915,2.3871,2.3747,2.366,2.3589,2.3494,2.3289,2.3126,2.3052,2.3249,2.3692,2.4557,2.5335,2.5962,3.879,3.7951,3.715,3.6112,3.4959,3.4439,3.4216,3.4216,3.4216,3.4216,3.4216,3.4216,3.4216,3.4086,3.3974,3.3733,3.3696,3.3473,3.325,3.3268,3.3268,3.299,3.279,3.2497,3.237,3.2035,3.1927,3.1933,3.1899,3.2123,3.179,3.1042,3.0557,2.9922,2.9774,2.9739,2.972,2.972,2.9719,2.97,2.97,2.9736,2.9771,2.9842,2.9842,2.9929,2.9959,2.9991,3.0019,3.0079,3.0142,3.0166,3.0202,3.0273,3.0323,3.0348,3.0021,2.9766,2.9072,2.7748,2.6397,2.5777,2.5579,2.561,2.561,2.5671,2.5687,2.5701,2.5693,2.5701,2.5703,2.5703,2.5697,2.5689,2.5696,2.5701,2.5683,2.5634,2.5609,2.5587,2.5551,2.5503,2.5464,2.5404,2.5361,2.5292,2.5236,2.5156,2.507,2.4977,2.4889,2.4832,2.4757,2.4679,2.4615,2.4532,2.4464,2.4393,2.4339,2.4247,2.4171,2.4113,2.4054,2.3915,2.3789,2.3725,2.3616,2.3476,2.3336,2.3193,2.3315,2.3615,2.4635,2.582,2.6416,3.9063,3.8383,3.7598,3.6597,3.5492,3.4593,3.4221,3.4197,3.4216,3.4216,3.4216,3.4216,3.4216,3.4216,3.4197,3.416,3.4123,3.4086,3.4165,3.411,3.4041,3.3892,3.3599,3.3399,3.3258,3.2698,3.2686,3.2801,3.2916,3.2786,3.262,3.2323,3.1854,3.1219,3.0545,3.0133,3.0095,3.0095,2.9831,2.9736,2.9754,2.9789,2.9823,2.9876,2.9929,2.9943,2.9991,3.0019,3.0064,3.0109,3.0166,3.0207,3.0247,3.0279,3.0348,3.0394,3.0381,3.0191,2.9409,2.7898,2.6595,2.6139,2.5682,2.5644,2.5619,2.5668,2.5687,2.5693,2.5691,2.5701,2.5702,2.5703,2.57,2.5693,2.5698,2.5704,2.5691,2.5648,2.5625,2.5604,2.5564,2.5524,2.5476,2.5437,2.5369,2.5312,2.5228,2.5191,2.5151,2.5057,2.5004,2.4917,2.4875,2.4802,2.4742,2.4645,2.4564,2.4551,2.4482,2.4412,2.4321,2.4284,2.4209,2.4074,2.3955,2.3855,2.375,2.362,2.3458,2.3289,2.352,2.3797,2.4749,2.586,2.6467,3.938,3.9261,3.8408,3.7125,3.5733,3.4684,3.4325,3.424,3.4221,3.4197,3.4216,3.4216,3.4216,3.4216,3.4197,3.4221,3.4221,3.4221,3.4227,3.4293,3.4311,3.426,3.4251,3.4162,3.4012,3.4292,3.4072,3.3986,3.4236,3.4049,3.3827,3.355,3.3197,3.269,3.2012,3.1318,3.1017,3.0959,3.0298,3.0129,2.9976,3.0048,3.0082,2.991,2.9959,2.9972,3.0019,3.0064,3.0109,3.0166,3.0194,3.0228,3.0292,3.0348,3.0402,3.0417,3.046,3.0482,3.0346,2.8144,2.7108,2.6631,2.6135,2.58,2.5678,2.5668,2.569,2.5693,2.5693,2.5699,2.5702,2.5703,2.5701,2.5696,2.5703,2.5687,2.5675,2.5656,2.5615,2.5615,2.5582,2.557,2.5498,2.5441,2.5395,2.5313,2.5239,2.5203,2.518,2.5163,2.5082,2.5031,2.4959,2.4889,2.4832,2.4738,2.4676,2.4666,2.4601,2.4498,2.4429,2.4358,2.4266,2.419,2.4094,2.3996,2.3896,2.3795,2.362,2.3489,2.3753,2.4173,2.5102,2.5771,2.6254,3.9527,3.9471,3.8584,3.7885,3.7162,3.5824,3.4899,3.4391,3.4293,3.4245,3.4197,3.4216,3.4216,3.4221,3.4227,3.4269,3.4269,3.4316,3.4363,3.434,3.4381,3.4381,3.4386,3.4431,3.4473,3.4454,3.4495,3.4561,3.4569,3.4623,3.4591,3.435,3.4144,3.3541,3.2561,3.1921,3.1902,3.1883,3.1599,3.1315,3.0765,3.0705,3.0549,3.0092,3.0067,3.0095,3.0083,3.0094,3.0138,3.0194,3.0234,3.0286,3.0348,3.0402,3.0417,3.046,3.0491,3.054,3.0354,2.9164,2.8022,2.7278,2.6601,2.6155,2.5756,2.5675,2.5687,2.5696,2.5693,2.5699,2.5701,2.5703,2.57,2.5697,2.5687,2.5696,2.5681,2.564,2.5595,2.56,2.5593,2.5557,2.5498,2.5456,2.5421,2.5359,2.5303,2.5241,2.5209,2.5203,2.5156,2.5107,2.5057,2.4991,2.4922,2.4846,2.4768,2.4742,2.4679,2.4596,2.453,2.4445,2.4393,2.4321,2.4228,2.4133,2.4036,2.3935,2.3789,2.3755,2.3857,2.4053,2.4638,2.5287,2.5834,3.962,3.9545,3.8995,3.8539,3.8003,3.6456,3.5231,3.4498,3.4358,3.4335,3.4288,3.4269,3.4269,3.4293,3.4316,3.434,3.434,3.4363,3.4409,3.4409,3.445,3.445,3.4495,3.4517,3.4558,3.4561,3.4604,3.4666,3.4708,3.4728,3.473,3.4752,3.481,3.4243,3.3431,3.3072,3.277,3.2694,3.2428,3.203,3.167,3.1497,3.1246,3.0747,3.0475,3.0392,3.0208,3.0138,3.0166,3.0221,3.0273,3.0343,3.0371,3.0417,3.043,3.0481,3.053,3.0577,3.0416,3.0261,2.9123,2.8118,2.7371,2.6661,2.6076,2.587,2.5723,2.5698,2.5693,2.5698,2.5701,2.5703,2.57,2.5697,2.5691,2.5698,2.5684,2.5644,2.5624,2.561,2.5604,2.5564,2.5524,2.5476,2.5437,2.5393,2.5359,2.5303,2.5253,2.522,2.5214,2.5168,2.5132,2.5101,2.5018,2.495,2.4875,2.4817,2.4753,2.4692,2.4629,2.4547,2.4515,2.4446,2.4358,2.4266,2.417,2.4034,2.3894,2.3768,2.3732,2.3957,2.4254,2.4892,2.5612,3.962,3.962,3.962,3.9089,3.8145,3.6728,3.5427,3.4446,3.4386,3.4404,3.4386,3.4386,3.4363,3.4386,3.4404,3.4404,3.4427,3.4409,3.445,3.4495,3.4517,3.4558,3.4602,3.4623,3.4645,3.4687,3.4708,3.4747,3.4788,3.4809,3.4849,3.4887,3.4887,3.4642,3.4339,3.3999,3.3696,3.3563,3.3278,3.2861,3.2557,3.2496,3.2074,3.1575,3.1207,3.0871,3.0557,3.0261,3.024,3.0273,3.0311,3.034,3.0386,3.0449,3.0471,3.0511,3.0567,3.0629,3.0653,3.0535,3.0264,2.9193,2.8018,2.7308,2.6684,2.622,2.5999,2.5776,2.5691,2.5697,2.5701,2.5703,2.57,2.5697,2.5689,2.5701,2.569,2.5675,2.5632,2.5634,2.5609,2.5576,2.5544,2.551,2.548,2.5437,2.5393,2.5359,2.5303,2.5234,2.5231,2.5225,2.521,2.5175,2.5095,2.5031,2.4964,2.4908,2.4865,2.4802,2.4742,2.4679,2.4596,2.4549,2.4517,2.4412,2.4228,2.4094,2.3976,2.3855,2.3771,2.3795,2.4064,2.4994,2.5747,3.962,3.962,3.962,3.9427,3.9089,3.8032,3.641,3.4604,3.4473,3.445,3.4386,3.4386,3.4427,3.4386,3.445,3.4473,3.4495,3.4517,3.4539,3.4561,3.4604,3.4645,3.4685,3.4708,3.4728,3.4768,3.4788,3.4809,3.4868,3.4868,3.4888,3.4908,3.4908,3.4927,3.4832,3.468,3.4566,3.4434,3.413,3.3806,3.3501,3.3422,3.2906,3.2403,3.1825,3.1435,3.1155,3.0532,3.04,3.0349,3.0355,3.0402,3.0469,3.05,3.052,3.0577,3.0621,3.0673,3.0688,3.0697,3.0568,3.0217,2.9255,2.8077,2.7336,2.6727,2.637,2.6069,2.575,2.5698,2.5702,2.5703,2.5702,2.5698,2.5691,2.5703,2.5693,2.5681,2.566,2.5619,2.5595,2.5607,2.5577,2.5543,2.5495,2.548,2.5437,2.5393,2.5359,2.5303,2.5253,2.525,2.5236,2.5203,2.5156,2.5107,2.5044,2.501,2.4936,2.4875,2.4817,2.4738,2.4676,2.4631,2.4549,2.4393,2.4228,2.4133,2.4056,2.3976,2.3855,2.3829,2.4014,2.4949,2.5648,3.9645,3.9645,3.9631,3.9462,3.9086,3.8578,3.7239,3.5713,3.5218,3.4873,3.4514,3.4476,3.4473,3.4495,3.4517,3.4539,3.4602,3.4623,3.4645,3.4687,3.4708,3.4728,3.4768,3.4788,3.4809,3.4827,3.4848,3.4868,3.4907,3.4927,3.4945,3.4964,3.4945,3.4964,3.4963,3.4963,3.4982,3.4963,3.4868,3.4715,3.4485,3.4255,3.3813,3.3198,3.2542,3.2335,3.1924,3.1172,3.0855,3.072,3.0717,3.0436,3.049,3.053,3.0568,3.064,3.0684,3.0688,3.0703,3.0711,3.071,3.0631,3.0277,2.9372,2.824,2.7436,2.6877,2.6418,2.6005,2.57,2.5702,2.5703,2.5703,2.57,2.5694,2.5707,2.5698,2.5707,2.5668,2.5628,2.56,2.5613,2.5583,2.5557,2.5529,2.5495,2.5461,2.5437,2.5404,2.536,2.5313,2.5273,2.5261,2.5217,2.5184,2.5168,2.512,2.507,2.4999,2.4959,2.487,2.4827,2.4768,2.4676,2.4582,2.4429,2.4303,2.4228,2.4134,2.4056,2.3958,2.3907,2.4168,2.4956,2.5519,3.9693,3.9717,3.9708,3.9312,3.8675,3.8656,3.8146,3.7357,3.649,3.56,3.4905,3.4736,3.4736,3.4661,3.4623,3.4666,3.4687,3.4708,3.4727,3.4788,3.4807,3.4827,3.4809,3.4827,3.4849,3.4887,3.4926,3.4927,3.4946,3.4964,3.5001,3.5001,3.5057,3.5075,3.5075,3.5092,3.5092,3.5092,3.511,3.4996,3.5053,3.5011,3.4835,3.4184,3.383,3.3585,3.2886,3.2256,3.1712,3.1487,3.1137,3.07,3.052,3.0577,3.064,3.0665,3.0707,3.0703,3.0704,3.071,3.0748,3.0764,3.0755,3.0204,2.9262,2.8294,2.7716,2.7064,2.6669,2.6246,2.615,2.584,2.5703,2.5701,2.5697,2.5689,2.5698,2.5687,2.5671,2.5628,2.5605,2.5599,2.5601,2.5577,2.5557,2.5517,2.5488,2.5472,2.5429,2.5415,2.5379,2.5322,2.5283,2.5241,2.522,2.5206,2.5203,2.5156,2.5076,2.4993,2.494,2.4884,2.4842,2.4738,2.4613,2.4549,2.4446,2.4358,2.4266,2.4153,2.4057,2.3958,2.4357,2.5062,2.5535,3.9703,3.9708,3.9708,3.9557,3.9429,3.9406,3.8958,3.8203,3.7992,3.7027,3.5861,3.5654,3.535,3.4992,3.4973,3.4994,3.4938,3.4975,3.4826,3.4865,3.4924,3.4868,3.4868,3.4907,3.4908,3.4927,3.4946,3.4983,3.502,3.5057,3.5075,3.5075,3.5092,3.511,3.511,3.5127,3.5164,3.5164,3.5179,3.5179,3.5181,3.5196,3.5037,3.471,3.4508,3.4131,3.3527,3.3044,3.275,3.2524,3.1868,3.1245,3.0635,3.066,3.0684,3.07,3.0703,3.0704,3.0724,3.0742,3.0778,3.0789,3.0779,3.0696,3.0221,2.937,2.8616,2.7967,2.737,2.6947,2.6501,2.6074,2.5722,2.572,2.5699,2.5693,2.5701,2.5687,2.5671,2.5652,2.5615,2.5595,2.5599,2.5601,2.5577,2.5557,2.5529,2.5488,2.5461,2.5429,2.5415,2.536,2.5322,2.5283,2.5262,2.5241,2.5228,2.5214,2.5168,2.5088,2.4993,2.4959,2.4889,2.4768,2.466,2.4596,2.4532,2.4482,2.4375,2.4284,2.4153,2.4056,2.4468,2.5135,2.5553,3.9735,3.9758,3.98,3.9781,3.98,3.9781,3.9517,3.9157,3.9101,3.8404,3.7232,3.6774,3.6319,3.5922,3.5922,3.5849,3.5792,3.5509,3.5529,3.5436,3.5153,3.4946,3.4946,3.5059,3.4983,3.5001,3.502,3.5075,3.5092,3.5127,3.5127,3.5127,3.5127,3.5145,3.5126,3.5179,3.5196,3.5196,3.5209,3.5229,3.5231,3.5245,3.5261,3.5082,3.4936,3.4621,3.4395,3.3936,3.3641,3.3169,3.2452,3.1787,3.1194,3.0889,3.0727,3.0703,3.0704,3.0698,3.0755,3.0773,3.0789,3.0794,3.0784,3.0724,3.0716,2.9962,2.9598,2.8945,2.8076,2.7593,2.6989,2.6523,2.6054,2.5857,2.5758,2.5696,2.5705,2.569,2.5678,2.5687,2.5648,2.561,2.5615,2.5599,2.5601,2.5596,2.555,2.5529,2.5495,2.5461,2.5448,2.5415,2.536,2.5332,2.5332,2.5302,2.5261,2.5228,2.5214,2.5125,2.5038,2.5004,2.4922,2.4832,2.4738,2.4642,2.4596,2.4549,2.45,2.4393,2.4266,2.4152,2.4659,2.5157,2.5715,3.9804,3.9826,3.987,3.9911,3.9911,3.9911,3.9914,3.9892,3.9895,3.9534,3.8795,3.801,3.7627,3.7362,3.7324,3.7364,3.7179,3.6576,3.6386,3.6217,3.5799,3.5818,3.5647,3.5399,3.5284,3.515,3.5092,3.511,3.5127,3.5162,3.5179,3.5179,3.5176,3.519,3.519,3.519,3.5209,3.5226,3.5242,3.5293,3.5312,3.5312,3.5327,3.5339,3.535,3.5393,3.5152,3.4866,3.4455,3.3975,3.3256,3.256,3.1917,3.1457,3.113,3.1015,3.0801,3.08,3.0798,3.0784,3.0794,3.0784,3.0793,3.0786,3.0798,3.0612,3.0267,2.9769,2.8917,2.8277,2.7673,2.7128,2.666,2.6072,2.5953,2.5756,2.5726,2.5712,2.5704,2.5694,2.566,2.5624,2.561,2.5615,2.5613,2.5609,2.559,2.5557,2.5536,2.5495,2.5453,2.5448,2.5395,2.5397,2.5398,2.5361,2.5302,2.5271,2.5248,2.5149,2.5063,2.5012,2.4959,2.4917,2.4827,2.4753,2.4676,2.4596,2.4549,2.45,2.4412,2.4321,2.4572,2.5132,2.5899,3.9889,3.9889,3.9954,3.9975,3.9975,4.0036,4.0076,4.0057,4.0076,3.9943,3.9753,3.9561,3.8914,3.7469,3.7469,3.7602,3.7869,3.7414,3.7338,3.7243,3.69,3.6976,3.6805,3.6252,3.5719,3.5528,3.5448,3.5238,3.556,3.5425,3.5231,3.5288,3.5229,3.5209,3.5209,3.5226,3.5277,3.5273,3.527,3.532,3.532,3.532,3.5335,3.5364,3.5398,3.5435,3.5399,3.5412,3.5353,3.5052,3.4429,3.3586,3.2904,3.2217,3.1792,3.1424,3.1183,3.089,3.0886,3.0813,3.0784,3.0793,3.0782,3.0794,3.0785,3.0791,3.0543,3.047,2.9794,2.9351,2.8787,2.8261,2.7734,2.6873,2.6441,2.6064,2.5859,2.5774,2.5687,2.5675,2.564,2.5609,2.56,2.5605,2.5604,2.5607,2.5609,2.5577,2.5583,2.5543,2.5495,2.5453,2.5429,2.5415,2.5388,2.5398,2.5361,2.5331,2.528,2.5195,2.5125,2.5032,2.498,2.494,2.4903,2.4827,2.4753,2.466,2.458,2.4532,2.4517,2.4523,2.4726,2.525,2.6133]}]]